[[{"header":{"parameterUnit":"m.s-1","parameterCategory":1,"la1":30.6,"la2":29.2853,"lo1":-89.7004,"lo2":-87.6739,"dy":0.0162,"dx":0.0183,"nx":112,"ny":82,"refTime":"2026-05-11T12:00:00:Z","depth":0,"parameterNumber":2,"parameterNumberName":"U-component_of_WINDS"},"data":[0.0,0.0,0.0,0.0,0.0,0.0,0.0,0.0,0.0,0.0,0.0,0.0,0.0,0.0,0.0,0.0,0.0,0.0,0.0,0.0,0.0,0.0,0.0,0.0,0.0,0.0,0.0,0.0,0.0,0.0,0.0,0.0,0.0,0.0,0.0,0.0,0.0,0.0,0.0,0.0,0.0,0.0,0.0,0.0,0.0,0.0,0.0,0.0,0.0,0.0,0.0,0.0,0.0,0.0,0.0,0.0,0.0,0.0,0.0,0.0,0.0,0.0,0.0,0.0,0.0,0.0,0.0,0.0,0.0,0.0,0.0,0.0,0.0,0.0,0.0,0.0,0.0,0.0,0.0,0.0,0.0,0.0,0.0,0.0,0.0,0.0,0.0,0.0,0.0,0.0,0.0,3.3345,3.4165,3.4401,3.3865,3.2994,3.1192,2.8186,0.0,0.0,0.0,0.0,0.0,0.0,0.0,0.0,0.0,0.0,0.0,0.0,0.0,0.0,0.0,0.0,0.0,0.0,0.0,0.0,0.0,0.0,0.0,0.0,0.0,0.0,0.0,0.0,0.0,0.0,0.0,0.0,0.0,0.0,0.0,0.0,0.0,0.0,0.0,0.0,0.0,0.0,0.0,0.0,0.0,0.0,0.0,0.0,0.0,0.0,0.0,0.0,0.0,0.0,0.0,0.0,0.0,0.0,0.0,0.0,0.0,0.0,0.0,0.0,0.0,0.0,0.0,0.0,0.0,0.0,0.0,0.0,0.0,0.0,0.0,0.0,0.0,0.0,0.0,0.0,0.0,0.0,0.0,0.0,0.0,0.0,0.0,0.0,0.0,0.0,0.0,0.0,0.0,0.0,0.0,0.0,0.0,0.0,0.0,0.0,0.0,0.0,0.0,0.0,3.2919,3.5455,3.51,3.4844,3.5255,3.4015,3.2254,2.9957,0.0,0.0,0.0,0.0,0.0,0.0,0.0,0.0,0.0,0.0,0.0,0.0,0.0,0.0,0.0,0.0,0.0,0.0,0.0,0.0,0.0,0.0,0.0,0.0,0.0,0.0,0.0,0.0,0.0,0.0,0.0,0.0,0.0,0.0,0.0,0.0,0.0,0.0,0.0,0.0,0.0,0.0,0.0,0.0,0.0,0.0,0.0,0.0,0.0,0.0,0.0,0.0,0.0,0.0,0.0,0.0,0.0,0.0,0.0,0.0,0.0,0.0,0.0,0.0,0.0,0.0,0.0,0.0,0.0,0.0,0.0,0.0,0.0,0.0,0.0,0.0,0.0,0.0,0.0,0.0,0.0,0.0,0.0,0.0,0.0,0.0,0.0,0.0,0.0,0.0,0.0,0.0,0.0,0.0,0.0,0.0,0.0,0.0,0.0,0.0,0.0,0.0,0.0,3.1462,3.3839,3.5835,3.5509,3.5241,3.5521,3.4883,3.3406,3.0843,2.9023,0.0,0.0,0.0,0.0,0.0,0.0,0.0,0.0,0.0,0.0,0.0,0.0,0.0,0.0,0.0,0.0,0.0,0.0,0.0,0.0,0.0,0.0,0.0,0.0,0.0,0.0,0.0,0.0,0.0,0.0,0.0,0.0,0.0,0.0,0.0,0.0,0.0,0.0,0.0,0.0,0.0,0.0,0.0,0.0,0.0,0.0,0.0,0.0,0.0,0.0,0.0,0.0,0.0,0.0,0.0,0.0,0.0,0.0,0.0,0.0,0.0,0.0,0.0,0.0,0.0,0.0,0.0,0.0,0.0,0.0,0.0,0.0,0.0,0.0,0.0,0.0,0.0,0.0,0.0,0.0,0.0,0.0,0.0,0.0,0.0,0.0,0.0,0.0,0.0,0.0,0.0,0.0,0.0,0.0,0.0,0.0,0.0,0.0,0.0,0.0,0.0,0.0,3.2352,3.4174,3.5516,3.5591,3.5604,3.5726,3.5419,3.406,3.1301,2.9275,0.0,0.0,0.0,0.0,0.0,0.0,0.0,0.0,0.0,0.0,0.0,0.0,0.0,0.0,0.0,0.0,0.0,0.0,0.0,0.0,0.0,0.0,0.0,0.0,0.0,0.0,0.0,0.0,0.0,0.0,0.0,0.0,0.0,0.0,0.0,0.0,0.0,0.0,0.0,0.0,0.0,0.0,0.0,0.0,0.0,0.0,0.0,0.0,0.0,0.0,0.0,0.0,0.0,0.0,0.0,0.0,0.0,0.0,0.0,0.0,0.0,0.0,0.0,0.0,0.0,0.0,0.0,0.0,0.0,0.0,0.0,0.0,0.0,0.0,0.0,0.0,0.0,0.0,0.0,0.0,0.0,0.0,0.0,0.0,0.0,0.0,0.0,0.0,0.0,0.0,0.0,0.0,0.0,0.0,0.0,0.0,0.0,0.0,0.0,0.0,0.0,0.0,3.1559,3.3481,3.484,3.5402,3.59,3.6395,3.5395,3.3723,3.1339,2.7819,0.0,0.0,0.0,0.0,0.0,0.0,0.0,0.0,0.0,0.0,0.0,0.0,0.0,0.0,0.0,0.0,0.0,0.0,0.0,0.0,0.0,0.0,0.0,0.0,0.0,0.0,0.0,0.0,0.0,0.0,0.0,0.0,0.0,0.0,0.0,0.0,0.0,0.0,0.0,0.0,0.0,0.0,0.0,0.0,0.0,0.0,0.0,0.0,0.0,0.0,0.0,0.0,0.0,0.0,0.0,0.0,0.0,0.0,0.0,0.0,0.0,0.0,0.0,0.0,0.0,0.0,0.0,0.0,0.0,0.0,0.0,0.0,0.0,0.0,0.0,0.0,0.0,0.0,0.0,0.0,0.0,0.0,0.0,0.0,0.0,0.0,0.0,0.0,0.0,0.0,0.0,0.0,0.0,0.0,0.0,0.0,0.0,0.0,0.0,0.0,0.0,0.0,3.3309,3.52,0.0,3.609,3.6517,3.6673,3.6185,3.4545,3.1404,0.0,0.0,0.0,0.0,0.0,0.0,0.0,0.0,0.0,0.0,0.0,0.0,0.0,0.0,0.0,0.0,0.0,0.0,0.0,0.0,0.0,0.0,0.0,0.0,0.0,0.0,0.0,0.0,0.0,0.0,0.0,0.0,0.0,0.0,0.0,0.0,0.0,0.0,0.0,0.0,0.0,0.0,0.0,0.0,0.0,0.0,0.0,0.0,0.0,0.0,0.0,0.0,0.0,0.0,0.0,0.0,0.0,0.0,0.0,0.0,0.0,0.0,0.0,0.0,0.0,0.0,0.0,0.0,0.0,0.0,0.0,0.0,0.0,0.0,0.0,0.0,0.0,0.0,0.0,0.0,0.0,0.0,0.0,0.0,0.0,0.0,0.0,0.0,0.0,0.0,0.0,0.0,0.0,0.0,0.0,0.0,0.0,0.0,0.0,0.0,0.0,0.0,3.2397,3.4954,3.6681,0.0,3.6776,3.6981,3.69,3.6635,3.4971,3.1486,0.0,0.0,0.0,0.0,0.0,0.0,0.0,0.0,0.0,0.0,0.0,0.0,0.0,0.0,0.0,0.0,0.0,0.0,0.0,0.0,0.0,0.0,0.0,0.0,0.0,0.0,0.0,0.0,0.0,0.0,0.0,0.0,0.0,0.0,0.0,0.0,0.0,0.0,0.0,0.0,0.0,0.0,0.0,0.0,0.0,0.0,0.0,0.0,0.0,0.0,0.0,0.0,0.0,0.0,0.0,0.0,0.0,0.0,0.0,0.0,0.0,0.0,0.0,0.0,0.0,0.0,0.0,0.0,0.0,0.0,0.0,0.0,0.0,0.0,0.0,0.0,0.0,0.0,0.0,0.0,0.0,0.0,0.0,0.0,0.0,0.0,0.0,0.0,0.0,0.0,0.0,0.0,0.0,0.0,0.0,0.0,0.0,0.0,0.0,0.0,0.0,0.0,3.4117,3.6173,3.7603,3.7555,3.7421,3.728,3.715,3.6576,3.4845,0.0,0.0,0.0,0.0,0.0,0.0,0.0,0.0,0.0,0.0,0.0,0.0,0.0,0.0,0.0,0.0,0.0,0.0,0.0,0.0,0.0,0.0,0.0,0.0,0.0,0.0,0.0,0.0,0.0,0.0,0.0,0.0,0.0,0.0,0.0,0.0,0.0,0.0,0.0,0.0,0.0,0.0,0.0,0.0,0.0,0.0,0.0,0.0,0.0,0.0,0.0,0.0,0.0,0.0,0.0,0.0,0.0,0.0,0.0,0.0,0.0,0.0,0.0,0.0,0.0,0.0,0.0,0.0,0.0,0.0,0.0,0.0,0.0,0.0,0.0,0.0,0.0,0.0,0.0,0.0,0.0,0.0,0.0,0.0,0.0,0.0,0.0,0.0,0.0,0.0,0.0,0.0,0.0,0.0,0.0,0.0,0.0,0.0,0.0,0.0,0.0,0.0,0.0,3.566,3.8149,3.9965,4.0039,3.9949,3.9656,3.9059,3.819,3.6355,3.3216,0.0,0.0,0.0,0.0,0.0,0.0,0.0,0.0,0.0,0.0,0.0,0.0,0.0,0.0,0.0,0.0,0.0,0.0,0.0,0.0,0.0,0.0,0.0,0.0,0.0,0.0,0.0,0.0,0.0,0.0,0.0,0.0,0.0,0.0,0.0,0.0,0.0,0.0,0.0,0.0,0.0,0.0,0.0,0.0,0.0,0.0,0.0,0.0,0.0,0.0,0.0,0.0,0.0,0.0,0.0,0.0,0.0,0.0,0.0,0.0,0.0,0.0,0.0,0.0,0.0,0.0,0.0,0.0,0.0,0.0,0.0,0.0,0.0,0.0,0.0,0.0,0.0,0.0,0.0,0.0,0.0,0.0,0.0,0.0,0.0,0.0,0.0,0.0,0.0,0.0,0.0,0.0,0.0,0.0,0.0,0.0,0.0,0.0,0.0,0.0,0.0,0.0,3.7132,3.9359,4.101,4.1417,4.1237,4.0749,3.992,3.9282,3.7631,3.4572,0.0,0.0,0.0,0.0,0.0,0.0,0.0,0.0,0.0,0.0,0.0,0.0,0.0,0.0,0.0,0.0,0.0,0.0,0.0,0.0,0.0,0.0,0.0,0.0,0.0,0.0,0.0,0.0,0.0,0.0,0.0,0.0,0.0,0.0,0.0,0.0,0.0,0.0,0.0,0.0,0.0,0.0,0.0,0.0,0.0,0.0,0.0,0.0,0.0,0.0,0.0,0.0,0.0,0.0,0.0,0.0,0.0,0.0,0.0,0.0,0.0,0.0,0.0,0.0,0.0,0.0,0.0,0.0,0.0,0.0,0.0,0.0,0.0,0.0,0.0,0.0,0.0,0.0,0.0,0.0,0.0,0.0,0.0,0.0,0.0,0.0,0.0,0.0,0.0,0.0,0.0,0.0,0.0,0.0,0.0,0.0,0.0,0.0,0.0,0.0,0.0,0.0,3.8366,4.0029,4.1338,4.202,4.1732,4.1129,4.0218,4.0071,3.8807,3.5929,0.0,0.0,0.0,0.0,0.0,0.0,0.0,0.0,0.0,0.0,0.0,0.0,0.0,0.0,0.0,0.0,0.0,0.0,0.0,0.0,0.0,0.0,0.0,0.0,0.0,0.0,0.0,0.0,0.0,0.0,0.0,0.0,0.0,0.0,0.0,0.0,0.0,0.0,0.0,0.0,0.0,0.0,0.0,0.0,0.0,0.0,0.0,0.0,0.0,0.0,0.0,0.0,0.0,0.0,0.0,0.0,0.0,0.0,0.0,0.0,2.5712,0.0,0.0,0.0,0.0,0.0,0.0,0.0,0.0,0.0,0.0,0.0,0.0,0.0,0.0,0.0,0.0,0.0,0.0,0.0,0.0,0.0,0.0,0.0,0.0,0.0,0.0,0.0,0.0,0.0,0.0,0.0,0.0,0.0,0.0,0.0,0.0,0.0,0.0,0.0,0.0,0.0,3.8213,4.1089,4.2943,4.2795,4.3333,4.3211,4.1973,4.132,4.0214,3.8361,3.588,0.0,0.0,0.0,0.0,0.0,0.0,0.0,0.0,0.0,0.0,0.0,0.0,0.0,0.0,0.0,0.0,0.0,0.0,0.0,0.0,0.0,0.0,0.0,0.0,0.0,0.0,0.0,0.0,0.0,0.0,0.0,0.0,0.0,0.0,0.0,0.0,0.0,0.0,0.0,0.0,0.0,0.0,0.0,0.0,0.0,0.0,0.0,0.0,0.0,0.0,0.0,0.0,0.0,0.0,0.0,0.0,0.0,0.0,0.0,0.0,2.7811,0.0,0.0,0.0,0.0,0.0,0.0,0.0,0.0,0.0,0.0,0.0,0.0,0.0,0.0,0.0,0.0,0.0,0.0,0.0,0.0,0.0,0.0,0.0,0.0,0.0,0.0,0.0,0.0,0.0,0.0,0.0,0.0,0.0,0.0,0.0,0.0,0.0,0.0,0.0,0.0,3.8708,4.1702,4.3636,4.3441,4.408,4.3905,4.2473,4.2153,4.1378,3.9863,3.7997,0.0,0.0,0.0,0.0,0.0,0.0,0.0,0.0,0.0,0.0,0.0,0.0,0.0,0.0,0.0,0.0,0.0,0.0,0.0,0.0,0.0,0.0,0.0,0.0,0.0,0.0,0.0,0.0,0.0,0.0,0.0,0.0,0.0,0.0,0.0,0.0,0.0,0.0,0.0,0.0,0.0,0.0,0.0,0.0,0.0,0.0,0.0,0.0,0.0,0.0,0.0,0.0,0.0,3.2151,3.3031,3.472,3.4725,3.4712,3.4573,3.2335,3.0908,3.0127,0.0,0.0,0.0,0.0,0.0,0.0,0.0,0.0,0.0,0.0,0.0,0.0,0.0,0.0,0.0,0.0,0.0,0.0,0.0,0.0,0.0,0.0,0.0,0.0,0.0,3.4975,3.5918,0.0,0.0,0.0,0.0,0.0,0.0,0.0,0.0,0.0,0.0,0.0,0.0,3.9256,4.2151,4.3983,4.379,4.4285,4.4035,4.2601,4.2654,4.2281,4.1105,4.0213,3.8952,0.0,0.0,0.0,0.0,0.0,0.0,0.0,0.0,0.0,0.0,0.0,0.0,0.0,0.0,0.0,0.0,0.0,0.0,0.0,0.0,0.0,0.0,0.0,0.0,0.0,0.0,0.0,0.0,0.0,0.0,0.0,0.0,2.7443,2.8775,0.0,0.0,0.0,0.0,0.0,0.0,0.0,0.0,0.0,0.0,0.0,0.0,0.0,3.1985,3.3173,3.3891,3.4257,3.4304,3.5038,3.5476,3.5645,3.587,3.5798,3.5524,3.5046,0.0,3.2623,3.1555,0.0,0.0,0.0,0.0,0.0,0.0,0.0,0.0,0.0,0.0,0.0,0.0,0.0,0.0,0.0,0.0,0.0,0.0,0.0,0.0,0.0,0.0,3.5328,3.7651,3.8537,3.876,0.0,3.5749,3.3343,3.3355,3.3032,0.0,0.0,0.0,0.0,0.0,0.0,0.0,3.9125,4.2662,4.4648,4.343,4.4127,4.4263,4.3249,4.2834,4.2664,4.2749,4.148,4.0614,4.0387,3.8956,0.0,0.0,0.0,0.0,0.0,0.0,0.0,0.0,0.0,0.0,0.0,0.0,0.0,0.0,0.0,0.0,0.0,0.0,0.0,0.0,0.0,0.0,0.0,0.0,0.0,0.0,0.0,0.0,0.0,2.8357,2.9496,2.9924,2.924,2.8722,0.0,0.0,0.0,0.0,0.0,0.0,0.0,0.0,0.0,3.2595,3.3313,3.4003,3.4636,3.4955,3.5315,3.577,3.5989,3.6532,3.7246,3.6993,3.691,3.692,3.6362,3.5783,3.5113,3.3804,3.364,3.4,0.0,0.0,0.0,0.0,3.0138,3.1191,3.1552,3.2111,0.0,3.2307,0.0,0.0,0.0,0.0,0.0,0.0,0.0,0.0,0.0,0.0,0.0,3.8842,3.9256,3.9367,3.9217,3.7993,3.6829,0.0,3.6566,3.6007,3.3913,0.0,0.0,0.0,0.0,0.0,4.095,4.3967,4.5617,4.454,4.4592,4.4612,4.4384,4.3702,4.3418,4.3752,4.2956,4.2269,4.1807,4.0247,3.8473,0.0,0.0,0.0,0.0,0.0,0.0,0.0,0.0,0.0,0.0,0.0,0.0,0.0,0.0,0.0,0.0,0.0,0.0,0.0,0.0,0.0,0.0,0.0,0.0,0.0,0.0,0.0,0.0,3.0027,3.0818,3.0603,3.0628,3.0499,0.0,0.0,0.0,0.0,0.0,0.0,3.1906,3.2774,3.3534,3.4167,3.5314,3.5954,3.6038,3.6111,3.653,3.7285,3.7124,3.7599,3.8605,3.81,3.7933,3.8027,3.7367,3.7208,3.7299,3.5753,3.5441,3.581,3.4539,3.409,3.4069,3.3395,3.4138,3.5473,3.5329,3.5907,3.6597,3.5923,0.0,3.4736,3.3709,0.0,0.0,0.0,0.0,3.7006,3.8322,3.9424,4.0226,4.0347,4.0517,4.063,4.0463,4.0451,4.0131,0.0,3.9208,3.8811,3.6318,0.0,0.0,0.0,0.0,4.1568,4.2329,4.4709,4.6075,4.5347,4.478,4.4539,4.4687,4.4044,4.3704,4.3882,4.3897,4.3553,4.2773,4.1437,4.0031,3.8575,0.0,0.0,0.0,0.0,0.0,0.0,0.0,0.0,0.0,0.0,0.0,0.0,0.0,0.0,0.0,0.0,0.0,0.0,0.0,0.0,0.0,0.0,0.0,0.0,0.0,0.0,0.0,0.0,0.0,3.0774,3.1452,0.0,0.0,0.0,0.0,3.3487,3.3294,3.3691,3.5003,3.5542,3.5885,3.6057,3.7413,3.8107,3.8058,3.8686,3.9046,3.9172,3.9283,3.9314,3.9251,3.9141,3.8886,3.8463,3.8417,3.8663,3.8921,3.702,3.647,3.6845,3.6891,3.7053,3.7299,3.7491,3.7719,3.7931,3.792,3.7748,3.742,3.6767,3.6338,3.6232,3.6774,3.6584,0.0,0.0,3.8023,3.8447,4.1172,4.1831,4.2139,4.3512,4.386,4.3894,4.402,4.3551,4.2378,0.0,3.953,3.9156,3.7719,0.0,3.8214,3.6951,3.9604,4.1867,4.2177,4.4226,4.5457,4.4974,4.4289,4.3719,4.3412,4.3233,4.3031,4.2793,4.383,4.4207,4.3656,4.2822,4.1982,4.1127,3.9418,0.0,0.0,0.0,0.0,0.0,0.0,0.0,0.0,0.0,0.0,0.0,0.0,0.0,0.0,0.0,0.0,0.0,0.0,0.0,0.0,0.0,0.0,0.0,0.0,0.0,0.0,0.0,0.0,3.305,3.2967,0.0,3.3688,3.3211,3.3642,3.5529,3.5526,3.5829,3.6795,3.738,3.7547,3.7229,3.8047,3.8397,3.8189,3.8581,3.8753,3.8801,3.8931,3.9067,3.9221,3.8774,3.859,3.8633,3.8626,3.8964,3.9485,3.9146,3.8984,3.905,3.9881,4.0016,3.9837,4.0667,4.0661,4.024,4.0429,3.9917,3.9078,3.8331,3.7552,3.7074,3.7917,3.8455,3.9027,4.0253,4.1142,4.1987,4.3007,4.3289,4.3356,4.354,4.3715,4.3816,4.368,4.367,4.3398,4.2402,4.2142,4.1741,4.0511,4.134,4.1789,4.0651,4.2287,4.3717,4.3856,4.4972,4.5665,4.5493,4.4431,4.4015,4.4716,4.3666,4.2856,4.2596,4.3863,4.4089,4.2848,4.2652,4.1914,4.0556,3.8366,3.6297,0.0,0.0,0.0,0.0,0.0,0.0,0.0,0.0,0.0,0.0,0.0,0.0,0.0,0.0,0.0,0.0,0.0,0.0,0.0,0.0,0.0,0.0,0.0,0.0,0.0,0.0,3.4711,3.4397,3.4446,3.4717,3.5254,3.4829,3.5228,3.6963,3.6903,3.7107,3.7881,3.8119,3.8078,3.7738,3.8112,3.8387,3.8534,3.86,3.8821,3.9184,3.9253,3.9416,3.9608,3.9113,3.8973,3.9141,3.9252,3.9633,4.0214,4.0764,4.0864,4.0707,4.1036,4.0805,4.037,4.1067,4.0964,4.0517,4.0803,4.0624,4.0178,3.9416,3.8908,3.8728,3.9468,4.0123,4.0868,4.2102,4.3024,4.3745,4.4272,4.4413,4.4384,4.4293,4.4448,4.4328,4.3266,4.3709,4.405,4.3144,4.293,4.2821,4.2434,4.2514,4.2626,4.2622,4.3308,4.3897,4.4126,4.4642,4.4971,4.4954,4.4127,4.3991,4.5008,4.3632,4.2505,4.195,4.2947,4.2783,4.1095,4.1402,4.0877,3.9256,3.7295,3.5373,3.349,0.0,0.0,0.0,0.0,0.0,0.0,0.0,0.0,0.0,0.0,0.0,0.0,0.0,0.0,0.0,0.0,0.0,0.0,0.0,0.0,0.0,0.0,0.0,3.1879,3.4106,3.5552,3.473,3.5887,3.6433,3.5683,3.6292,3.7077,3.7872,3.7448,3.7514,3.8385,3.7853,3.7566,3.7642,3.7774,3.8291,3.9208,3.9028,3.9466,4.0489,4.0491,4.0476,4.0459,4.0239,4.0065,3.9968,4.0351,4.0747,4.1171,4.1749,4.1917,4.172,4.0325,3.9445,3.8959,3.8774,3.8738,3.8817,3.9071,3.9817,4.06,3.9935,4.032,4.1115,4.1506,4.1572,4.1817,4.3244,4.3328,4.3344,4.4837,4.5082,4.5121,4.5917,4.6231,4.5668,4.3121,4.3956,4.4478,4.2071,4.1721,4.2177,4.3315,4.1497,4.0558,4.2633,4.2521,0.0,4.289,4.3238,4.3422,4.3358,4.3341,4.3553,4.4079,4.3077,4.1965,4.0883,4.1137,4.0488,3.8614,3.931,3.9017,3.7494,3.6542,3.4955,3.2691,0.0,0.0,0.0,0.0,0.0,0.0,0.0,0.0,0.0,0.0,0.0,0.0,0.0,0.0,0.0,0.0,0.0,0.0,0.0,0.0,0.0,0.0,3.4931,3.4355,3.5704,3.7024,3.7811,3.7788,3.778,3.7954,3.7729,3.7924,3.8771,3.8442,3.8428,3.8957,3.8646,3.846,3.8533,3.8711,3.9061,3.9561,3.9885,4.0206,4.0507,4.0254,3.9954,3.9598,3.9128,3.8779,3.8631,3.9971,4.0986,4.1766,4.3047,4.3331,4.2873,4.1941,4.1286,4.0873,4.1071,4.1005,4.071,4.0158,4.029,4.0636,4.0251,4.0049,4.0191,4.1481,4.0909,4.0135,4.184,4.1541,4.0793,4.1238,4.2336,4.3377,4.3617,4.4691,4.5455,4.4634,4.4738,4.4776,4.4035,4.2916,4.2504,4.3781,4.3713,4.359,4.4,4.3921,0.0,4.4044,4.4262,4.4453,4.4523,4.4311,4.4285,4.4585,4.3696,4.2563,4.1256,4.1652,4.1212,3.9576,3.987,3.9075,3.697,3.5761,3.4248,0.0,0.0,0.0,0.0,0.0,0.0,0.0,0.0,0.0,0.0,0.0,0.0,0.0,0.0,0.0,0.0,0.0,0.0,0.0,0.0,0.0,0.0,3.59,3.7114,3.7431,3.7988,3.8625,3.9333,3.8958,3.8731,3.8916,3.8599,3.8572,3.9081,3.9366,3.952,3.9541,3.9526,3.9428,3.9237,3.9266,3.9561,4.0112,4.0613,4.1024,4.137,4.0885,4.0387,3.9835,3.9388,3.9103,0.0,4.0665,4.18,4.2622,4.3768,4.3961,0.0,0.0,0.0,0.0,0.0,4.1052,4.0819,4.0233,4.0374,4.0745,4.0461,4.0292,4.0404,4.163,4.1343,4.0922,4.2616,4.2578,4.2087,4.2395,4.3286,4.4061,4.4013,4.4854,4.5286,4.3971,4.4367,4.4636,4.3444,4.2977,0.0,4.3898,4.3529,4.3288,4.3724,4.344,4.3225,4.3314,4.3485,4.3677,4.3931,4.4173,4.4313,4.4258,4.3629,0.0,0.0,0.0,4.0246,3.8871,3.8374,0.0,0.0,0.0,0.0,0.0,0.0,0.0,0.0,3.2038,3.2393,0.0,0.0,0.0,0.0,0.0,0.0,0.0,0.0,0.0,0.0,0.0,0.0,0.0,0.0,0.0,0.0,3.7726,3.9376,4.057,4.0514,4.0222,3.9894,3.969,3.9459,3.9143,3.9111,3.9111,3.9111,4.0113,4.0537,4.0061,0.0,0.0,0.0,0.0,3.9989,4.0853,4.1199,4.1833,4.2667,4.1961,4.1264,4.0643,4.0428,4.0293,4.0339,4.1869,4.2899,4.3534,4.4278,4.433,4.3846,4.2866,4.1972,4.1097,4.041,4.0187,4.0187,4.0014,0.0,0.0,4.0695,4.0868,4.1353,4.1997,4.2287,4.273,4.4259,4.4612,4.4695,4.534,4.5576,4.5621,4.5526,4.5713,4.5186,4.2547,4.3531,4.4204,4.1765,4.2504,4.3567,4.3728,4.223,4.1421,4.2699,4.219,4.1702,4.1893,4.2033,4.2245,4.2535,0.0,0.0,4.3466,4.3144,4.2407,4.1081,3.9781,3.8588,3.7497,3.6216,3.5724,3.6085,3.5919,3.595,3.623,3.6858,3.7244,3.7364,3.5931,3.607,0.0,0.0,0.0,0.0,0.0,0.0,0.0,0.0,0.0,0.0,0.0,0.0,0.0,0.0,0.0,3.7967,3.9571,4.0935,4.2034,4.2014,4.158,4.0845,4.0706,4.0487,3.9943,3.9796,3.972,3.972,4.0144,4.0356,4.0244,4.0559,4.0748,4.0745,4.0619,4.0944,4.1818,4.1905,4.2372,4.3222,0.0,0.0,4.1004,4.0675,4.031,4.0023,4.2424,4.3599,4.4011,4.5712,4.5994,4.5199,4.3256,4.2201,4.1755,4.1814,4.1963,4.2093,4.1572,4.2048,4.2692,4.1409,4.1504,4.2299,4.3131,4.2342,0.0,4.3019,4.2345,4.1165,4.1181,4.2338,4.3526,4.3594,4.4515,4.5146,4.443,4.4066,4.3739,4.3196,4.3062,4.313,4.3432,4.3145,4.3008,4.3394,4.3297,4.3183,4.3229,4.3406,4.3361,4.2953,4.3481,4.3627,4.3064,4.281,4.2554,4.2268,4.0506,3.9129,3.8382,3.7523,3.7523,3.8503,3.8026,3.7941,3.8331,3.8678,3.8559,3.8001,3.7214,3.7365,0.0,0.0,0.0,0.0,0.0,0.0,0.0,0.0,0.0,0.0,0.0,3.1447,3.374,0.0,3.766,3.9674,4.1409,4.2671,4.3129,4.3053,4.2544,4.1475,4.1134,4.0748,4.0112,3.9956,3.9875,3.9794,4.0605,4.1031,4.0862,4.1648,4.1884,4.1419,4.1692,4.1932,4.2093,4.2859,4.3427,4.3738,4.2896,4.217,4.1588,4.1429,4.1205,4.1065,4.3297,4.4557,4.5118,4.6212,4.5996,4.4887,4.375,4.2816,4.2095,4.2002,4.1844,4.1682,4.1505,4.1988,4.2575,4.189,4.2198,4.2923,4.3372,4.3249,4.3107,4.3803,4.3658,4.3273,4.3144,4.3557,4.4073,4.439,4.458,4.4696,4.4691,4.4174,4.3639,4.3402,4.3115,4.2961,4.313,4.3161,4.3091,4.297,4.295,4.3008,4.3169,4.3346,4.3502,4.3627,4.3776,4.3552,4.2864,4.2217,4.1719,4.1478,4.0537,3.9736,3.9177,3.8857,3.9111,3.9974,3.9642,3.9674,4.0099,4.0252,3.9977,3.9337,3.904,3.92,0.0,0.0,0.0,0.0,0.0,0.0,0.0,0.0,2.9603,3.0558,3.1897,3.3606,3.5981,3.7641,3.9239,4.1004,4.2741,4.3854,4.3844,4.3686,4.3126,4.1902,4.1328,4.084,4.0286,3.9977,3.9876,4.0027,4.1109,4.1733,4.1624,4.2765,4.3033,4.2127,4.2591,4.2667,4.2317,4.3611,4.4219,4.4164,4.3815,4.3284,4.2612,4.2646,4.2681,4.2813,4.4436,4.5591,4.6337,4.653,4.5913,4.4807,4.4595,4.3729,4.2479,4.1993,4.1546,4.1181,4.1247,4.1703,4.2267,4.2261,4.2741,4.337,4.3558,4.4295,4.506,4.5066,4.5686,4.6284,4.6159,4.5679,4.532,4.5681,4.4997,4.4342,4.4453,4.4032,4.3534,4.3143,4.2976,4.2899,4.2899,4.2899,4.2812,4.2555,4.2517,4.262,4.2926,4.2948,4.3171,4.381,4.3603,4.3133,4.2411,4.1583,4.0926,4.0496,4.0414,4.0211,3.9866,3.9777,4.0119,4.087,4.0627,4.081,4.1475,4.1356,4.1074,4.0677,4.0537,4.0623,2.891,2.8683,2.8939,2.9037,2.8952,2.9114,0.0,0.0,3.1215,3.2523,3.4139,3.5681,3.695,3.8668,4.037,4.176,4.2764,4.3517,4.3915,4.3712,4.3098,4.2005,4.1452,4.1154,4.1065,4.0128,4.0004,4.1133,4.1255,4.1607,4.234,4.3137,4.3459,4.3227,4.2837,4.2783,4.307,4.3544,4.3974,4.4362,4.448,4.4506,4.4427,4.4586,4.476,4.5015,4.5958,4.6656,4.7081,4.7288,4.7242,4.6985,4.6296,4.4983,4.3385,4.2782,4.2718,4.2832,4.2137,4.2481,4.3157,4.2571,4.2873,4.3633,4.4469,4.4822,4.5032,4.5545,4.5877,4.6013,4.5884,4.5781,4.5703,4.5645,4.5131,4.4578,4.4375,4.3711,4.3128,4.2961,4.2915,4.2899,4.2899,4.2899,4.299,4.3243,4.3272,4.3332,4.3497,4.3061,4.2629,4.2374,4.1957,4.1528,4.1138,4.1098,4.11,4.1099,4.0601,4.0331,4.0404,3.9624,3.9852,4.1212,4.0466,4.0745,4.2093,4.1564,4.1305,4.1271,4.0686,4.0556,3.1373,3.1585,3.1879,0.0,3.1362,3.2011,3.2003,3.2921,3.4001,3.486,3.6158,3.7552,3.8864,4.0232,4.1526,0.0,4.3831,4.4511,4.4271,4.4006,4.347,4.2431,4.1573,4.0928,4.054,3.9997,3.9934,4.0587,4.0808,4.1337,4.2327,4.2903,4.3114,4.2943,4.2633,4.2462,4.2443,4.2892,4.3401,4.4011,4.4204,4.4497,4.4894,4.5191,4.5605,4.6044,4.5913,4.6003,4.6278,4.6224,4.5745,4.5063,4.5486,4.4841,4.3643,4.3456,4.2697,4.1837,4.2519,4.2689,4.2644,4.2941,4.351,4.4168,4.4647,4.5184,4.569,4.5873,4.577,4.5542,4.5316,4.494,4.4481,4.4031,4.3896,4.3742,4.3239,4.3134,4.3021,4.2774,4.2822,4.2899,4.2899,4.2899,4.2877,4.2769,4.3033,4.3357,4.3734,4.3316,4.2717,4.1992,4.183,4.1545,4.1052,4.1169,4.1278,4.1318,4.1144,4.1108,4.1239,4.0879,4.1047,4.1858,4.1746,4.2049,4.2776,4.2226,4.2028,4.2187,4.136,4.1387,3.3244,0.0,0.0,3.2777,3.3501,3.4388,3.3903,3.4957,3.6245,3.6959,3.7866,3.9026,4.0601,4.1547,4.2456,4.36,4.4677,4.508,4.4274,4.406,4.3518,4.2254,4.1522,4.0783,3.9965,3.974,3.9788,4.0186,4.0484,4.1058,4.2047,4.26,4.279,4.2554,4.2349,4.2158,4.1963,4.2432,4.295,4.3491,4.3921,4.4391,4.4853,4.5312,4.5722,4.6039,4.5522,4.538,4.5467,4.5391,4.4919,4.4331,4.5122,4.4817,4.3946,4.432,4.3279,4.183,4.2911,4.2871,4.2501,4.3491,4.4002,4.4294,4.4657,4.5114,4.5486,4.5356,4.5064,4.4764,4.4549,4.4045,4.3498,4.3138,4.3038,4.2961,4.2761,4.2799,4.2853,4.2757,4.2752,4.2729,4.2729,4.2402,4.2131,4.2129,4.2239,4.2561,4.3207,4.2942,4.2417,4.1624,4.1662,4.1575,4.1163,4.1324,4.1459,4.1459,4.1622,4.1754,4.1852,4.1852,4.2002,4.2297,4.2699,4.2895,4.2877,4.2807,4.2786,4.2759,4.2086,4.2333,0.0,0.0,3.4675,3.4622,3.5074,3.5728,3.6427,3.6723,3.7251,3.8636,3.9151,3.9928,4.1797,4.2376,4.3057,4.4533,4.4892,4.4664,4.366,4.3621,4.2991,4.1068,4.1169,4.0913,0.0,3.9362,3.957,4.0425,4.0495,4.0834,4.1579,4.2432,4.276,4.2413,4.2093,4.1964,4.2093,4.2418,4.2698,4.2945,4.3984,4.4456,4.444,4.5049,4.5098,4.4771,4.5147,4.526,4.5227,4.5418,4.5932,4.6562,4.6211,4.5412,4.4598,4.5501,4.5135,4.4104,4.3431,4.3189,4.3326,4.4332,4.4162,4.371,4.4628,4.4373,4.3743,4.3617,4.3576,4.3558,4.3529,4.3431,4.3415,4.3864,4.3121,4.2588,4.3554,4.3004,4.2474,4.2997,4.2678,4.2321,4.2321,4.1122,4.0543,4.1566,4.0965,4.0707,4.1641,4.1577,4.1315,4.0973,4.1058,4.1157,4.1186,4.1442,4.1593,4.1593,4.1848,4.1994,4.1994,4.1994,4.2094,4.2297,4.2699,4.2613,4.2039,4.3197,4.3401,4.2693,4.2674,4.324,3.5075,0.0,3.5977,3.5429,3.6391,3.7409,3.7261,3.8015,3.8969,3.9714,4.0012,4.0594,4.2125,4.2358,4.2856,4.4413,4.4588,4.433,4.3791,4.3245,4.2398,4.1032,4.0593,0.0,0.0,0.0,0.0,3.9953,3.9859,4.0287,4.1469,4.1513,4.1614,4.1851,4.198,4.1883,4.1572,4.2024,4.2652,4.3443,4.461,4.5033,4.4788,4.5017,4.5146,4.521,4.4863,4.4867,4.5108,4.4821,4.4973,4.5422,4.5908,4.6045,4.6009,4.641,4.6314,4.5862,4.5053,4.4212,4.3607,4.4428,4.4223,4.3703,4.4113,4.4109,4.3851,4.3358,4.2826,4.2354,4.2263,4.2079,4.1897,4.1881,4.2159,4.2366,4.2139,4.2155,4.2189,4.2054,4.2064,4.2016,4.1747,4.1364,4.1352,4.2112,4.1809,4.153,4.1627,4.1644,4.1525,4.1134,4.1301,4.1437,4.1464,4.171,4.1884,4.1924,4.1959,4.2083,4.2259,4.2279,4.2292,4.2374,4.2985,4.3131,4.2804,4.3027,4.3335,4.3679,4.3103,4.3364,3.6136,3.6605,3.6687,3.6536,3.7402,3.8274,3.8229,3.8947,3.9729,4.0138,4.0579,4.128,4.2548,4.265,4.3007,4.4525,4.4384,4.3814,4.3129,4.2627,4.1841,4.0523,4.0072,3.9474,0.0,0.0,0.0,3.9025,3.9239,3.9841,4.0854,4.0831,4.1087,4.1687,4.1769,4.1753,4.1588,4.1883,4.2575,4.3677,4.4448,4.474,4.4567,4.4474,4.4568,4.4799,4.4445,4.4545,4.4933,4.4592,4.4461,4.4534,4.4977,4.535,4.5678,4.5814,4.6048,4.6255,4.5879,4.5114,4.4409,4.4983,4.471,4.4184,4.4361,4.3885,4.3228,4.2829,4.2104,4.1453,4.1335,4.1383,4.1467,4.1464,4.1736,4.1954,4.1924,4.1959,4.2019,4.2018,4.2012,4.1895,4.1638,4.1432,4.136,4.1544,4.1737,4.1885,4.1955,4.1908,4.1823,4.1679,4.1892,4.2019,4.2019,4.2244,4.2404,4.2416,4.2422,4.252,4.2673,4.2682,4.2702,4.2722,4.3276,4.3384,4.2996,4.3227,4.351,4.3833,4.3553,4.3772,3.669,3.6867,3.6933,3.7855,3.8116,3.8371,3.9305,3.9538,3.9683,4.0062,4.0908,4.1909,0.0,0.0,4.3432,4.4799,4.4192,4.3129,4.1941,4.1898,4.1352,0.0,0.0,0.0,0.0,0.0,0.0,3.7759,0.0,3.9467,3.975,4.0388,4.1071,4.1818,4.1506,4.1572,4.2077,4.198,4.2492,4.3563,4.3593,4.3652,4.3743,4.3489,4.3443,4.3638,4.3946,4.4299,4.4698,4.4667,4.4435,4.4009,4.3572,4.3538,4.3818,4.3979,4.4604,4.5429,4.5844,4.5829,4.5654,4.5922,4.5555,4.5039,4.5252,4.3745,4.1977,4.2016,4.1487,4.09,4.0835,4.1336,4.1994,4.255,4.1835,4.1417,4.2848,4.2388,4.1943,4.2765,4.2405,4.1964,4.1895,4.1332,4.0677,4.0093,4.0845,4.173,4.2477,4.2256,4.2162,4.2483,4.2705,4.2819,4.2819,4.2996,4.3096,4.3014,4.3142,4.3205,4.3223,4.3223,4.3268,4.3329,4.3587,4.3364,4.2667,4.377,4.3958,4.3287,4.4055,4.4482,3.7546,3.791,3.8126,3.798,3.8215,3.87,3.9607,4.0152,4.0528,4.0725,4.1043,4.1444,0.0,0.0,0.0,4.3737,4.335,0.0,4.2685,4.2153,0.0,3.9929,0.0,3.8788,3.8118,3.8469,0.0,0.0,3.8091,3.8739,3.9464,3.9717,4.0167,4.091,4.145,4.1752,4.1736,4.219,4.2649,4.3083,4.3432,4.3432,4.3113,4.2856,4.3155,4.3881,4.3673,4.3949,4.4553,4.434,4.4023,4.3635,4.3364,4.3398,4.3729,4.4421,4.4752,4.4987,4.5745,4.5955,4.5922,4.6085,4.5736,4.5247,4.5346,4.4234,4.2857,4.2491,4.1724,4.1079,4.1149,4.1234,4.1513,4.2286,4.1987,4.1712,4.2387,4.213,4.1797,4.1875,4.1773,4.1727,4.1818,4.1841,4.1761,4.1495,4.2063,4.244,4.2179,4.2233,4.241,4.2687,4.2904,4.3023,4.3023,4.3212,4.3328,4.3301,4.3319,4.3415,4.356,4.3569,4.3621,4.374,4.3916,4.3883,4.3632,4.4184,4.4353,4.4186,4.4484,4.4646,3.7762,3.7968,3.8012,3.7924,3.806,3.8292,3.8599,3.9399,4.0011,3.9668,4.0445,0.0,4.1312,4.0947,0.0,0.0,0.0,0.0,4.1786,4.1294,4.0529,0.0,3.8914,0.0,3.8078,3.8373,3.8373,0.0,3.7972,3.8364,3.897,3.9039,3.9534,4.0577,4.1085,4.1292,4.1244,4.196,4.2305,4.2237,4.3223,4.3461,4.301,4.2657,4.3088,4.4097,0.0,4.3978,4.4494,4.4464,4.3851,4.2905,4.2745,4.2807,4.3087,4.3998,4.4529,4.4918,4.5775,4.6092,4.608,4.611,4.5947,4.5735,4.5441,4.4409,4.3223,4.2614,4.1906,4.1336,4.1403,4.1636,4.1946,4.2384,4.2221,4.2044,4.2325,4.2225,4.2057,4.2113,4.2142,4.2216,4.2402,4.2503,4.2591,4.261,4.2912,4.3051,4.2859,4.2977,4.3132,4.3353,4.3549,4.3667,4.3625,4.3767,4.3823,4.3801,4.3783,4.3841,4.3963,4.3952,4.401,4.4124,4.4196,4.4233,4.4211,4.444,4.4551,4.4585,4.4699,4.4562,3.7613,3.7584,3.7454,3.7801,3.7786,3.7642,3.7315,3.8259,3.8951,3.8056,0.0,4.0997,4.0965,4.0872,4.1094,4.2014,0.0,4.0558,4.0403,4.0207,3.971,3.8714,3.849,3.8379,3.8223,3.846,3.8469,3.8101,3.8114,3.8245,3.8439,3.8536,3.9185,4.0515,4.0547,4.0626,4.0769,4.1461,4.167,4.135,4.2771,4.3285,4.2975,4.2582,4.3084,4.4221,0.0,0.0,4.4376,4.4473,4.3554,4.2088,4.2037,4.2125,4.2373,4.3367,4.4255,4.5058,4.5874,4.6116,4.6051,4.602,4.6146,4.6176,4.5552,4.446,4.3318,4.2764,4.2208,4.1784,4.1803,4.2364,4.2871,4.2756,4.258,4.245,4.2566,4.2542,4.2604,4.2939,4.3013,4.3096,4.3259,4.3249,4.3283,4.3457,4.3491,4.3599,4.3935,4.3947,4.3966,4.4124,4.4292,4.4368,4.4322,4.4361,4.4401,4.4329,4.4322,4.4322,4.4322,4.4322,4.4358,4.4411,4.4418,4.4466,4.4515,4.4585,4.4659,4.4706,4.4777,4.4423,3.7499,3.7784,3.8191,3.7829,3.7786,3.7883,3.7985,3.8628,0.0,0.0,3.9228,4.0167,4.0591,4.0742,4.1167,4.2251,4.2352,4.1932,4.0855,4.0859,4.0379,0.0,0.0,0.0,0.0,0.0,0.0,0.0,0.0,3.8359,3.8178,3.8742,3.9448,4.0249,4.0281,4.0358,4.0541,4.0794,4.0981,4.1074,4.1463,4.1726,4.1874,4.1972,4.2688,4.385,4.3214,0.0,4.3602,4.2831,4.2118,4.1585,4.1996,4.2316,4.2678,4.4019,4.4752,4.5173,4.5812,4.5714,4.5396,4.5968,4.5982,4.5737,4.5714,4.4707,4.3578,4.363,4.3213,4.2786,4.2896,4.3194,4.3443,4.3366,4.3187,4.305,4.3077,4.3068,4.3142,4.3416,4.3605,4.3742,4.3775,4.3804,4.3868,4.3892,4.3936,4.4083,4.436,4.4147,4.4074,4.4314,4.4376,4.439,4.4376,4.4433,4.4487,4.4473,4.4473,4.4473,4.4473,4.4473,4.4473,4.4487,4.453,4.4572,4.4578,4.4712,4.4764,4.4777,4.4846,4.4496,3.817,3.788,3.7664,3.7499,3.7164,3.6939,3.7112,0.0,0.0,0.0,3.8511,3.9432,3.963,3.9971,0.0,4.0942,4.1047,4.0783,4.0067,3.9902,0.0,3.8792,0.0,0.0,0.0,0.0,0.0,0.0,0.0,3.8645,3.8144,3.8866,3.9414,3.9663,3.9679,3.9725,3.9831,4.0048,4.0128,4.0064,4.101,4.1441,4.1413,4.189,4.2489,4.3113,4.3048,0.0,4.271,4.2425,4.1911,4.133,4.1592,4.2062,4.2731,4.3795,4.4568,4.5133,4.5355,4.5335,4.5181,4.5051,4.4976,4.4846,4.442,4.4032,4.3645,4.3314,4.3094,4.2957,4.3031,4.3223,4.3357,4.3178,4.3078,4.3087,4.3214,4.3223,4.3277,4.3555,4.3765,4.3905,4.3953,4.409,4.4225,4.4299,4.4342,4.4423,4.4627,4.4491,4.4414,4.4551,4.4524,4.4503,4.4503,4.4489,4.4501,4.4501,4.4501,4.4501,4.4501,4.4524,4.4544,4.4544,4.4217,4.4238,4.4652,4.4323,4.4392,4.4796,4.4448,4.4097,3.8868,3.7941,3.7045,3.7209,3.6588,3.597,3.6115,3.6404,0.0,0.0,3.7647,3.8727,3.8946,3.9403,3.9794,0.0,3.9904,3.9714,3.9269,3.9046,3.8888,0.0,3.8843,0.0,3.8955,0.0,0.0,0.0,0.0,0.0,3.8244,3.8865,3.9172,3.9074,3.9074,3.9074,3.9074,3.9361,3.939,3.9169,4.0544,4.108,4.0893,4.1659,4.2132,4.2329,4.2754,0.0,0.0,4.2207,4.198,4.1516,4.1661,4.2323,4.3267,4.3973,4.4686,4.5296,4.5066,4.498,4.4818,4.398,4.386,4.3912,4.3224,4.3248,4.3388,4.2809,4.2796,4.2957,4.2957,4.3096,4.316,4.2928,4.2965,4.3087,4.3303,4.3339,4.3392,4.3639,4.3846,4.4008,4.4074,4.4277,4.4482,4.4605,4.4632,4.4692,4.4815,4.4783,4.4732,4.4732,4.4672,4.4619,4.4619,4.4565,4.453,4.453,4.453,4.453,4.453,4.4592,4.4619,4.4619,4.39,4.3838,4.4461,4.3718,4.3755,4.455,4.398,4.3642,3.906,3.8016,3.706,3.7329,3.6557,3.576,3.5893,0.0,0.0,3.579,3.6737,3.7976,3.9359,3.9759,4.0053,4.0602,0.0,4.062,3.9374,3.9649,3.9679,3.8884,0.0,0.0,3.8846,3.9345,0.0,0.0,0.0,0.0,3.8588,3.8625,3.8672,3.866,3.866,3.866,3.866,3.8809,3.8925,3.9023,3.9364,3.9638,3.9876,4.0729,4.134,4.1681,4.1731,0.0,0.0,4.1498,4.1737,4.2544,4.3214,4.4108,4.5135,4.5742,4.6021,4.6017,4.5463,4.4647,4.3769,4.3252,4.3134,4.3253,4.3398,4.3027,4.2562,4.2734,4.2965,4.3169,4.3169,4.3223,4.3277,4.3178,4.3304,4.3444,4.347,4.3609,4.3786,4.3934,4.4131,4.4285,4.4347,4.4482,4.4605,4.4685,4.4732,4.4821,4.4877,4.4896,4.4877,4.4877,4.4776,4.4692,4.4692,4.4692,4.4685,4.4685,4.4685,4.4685,4.4685,4.4692,4.4692,4.4692,4.397,4.3624,4.3705,4.2896,4.2969,4.3803,4.3733,4.3319,3.981,3.8601,3.7269,3.7372,3.645,3.5723,3.6493,0.0,3.5285,3.5876,3.6437,3.6995,3.7653,3.7885,3.8057,3.8295,3.8357,3.8327,3.8201,3.8308,3.8542,3.8884,3.9118,0.0,0.0,0.0,0.0,0.0,0.0,0.0,3.8862,3.8961,3.8975,3.8849,3.8766,3.8766,3.8835,3.8805,3.8969,3.9312,3.9379,3.9524,3.972,4.0693,4.0972,4.0717,4.134,0.0,0.0,4.1238,4.1714,4.2689,4.2853,4.3755,4.4911,4.4658,4.4885,4.5119,4.3961,4.3272,4.2829,4.2222,4.2049,4.215,4.2501,4.2482,4.2379,4.2566,4.2725,4.2805,4.2689,4.2689,4.2777,4.3114,4.3169,4.3214,4.3444,4.3582,4.374,4.3958,4.4162,4.4336,4.4451,4.453,4.4639,4.4732,4.4777,4.4833,4.4943,4.4955,4.4955,4.4955,4.4833,4.4751,4.4751,4.4712,4.4705,4.4705,4.4705,4.4705,4.4705,4.4751,4.4524,4.4052,4.3263,4.2877,4.2877,4.2073,4.2369,4.3682,4.3165,4.3337,4.0684,3.9601,3.8269,3.8063,3.698,3.6147,0.0,3.5973,3.5135,3.5966,3.609,3.6112,3.6371,3.6318,3.6299,3.6417,3.6354,3.6588,3.7405,3.7064,3.7321,3.8905,0.0,3.8599,0.0,0.0,0.0,0.0,0.0,0.0,3.9212,3.9175,3.9067,3.889,3.8832,3.8832,3.889,3.8832,3.8983,3.9352,3.9445,3.9563,3.9733,4.0522,4.0675,4.0337,4.094,0.0,0.0,4.0961,4.1638,4.2723,4.266,4.348,4.4637,4.4014,4.4014,4.4125,4.2809,4.2345,4.2235,4.162,4.1403,4.1471,4.1819,4.2076,4.2277,4.2463,4.2586,4.2609,4.244,4.2419,4.255,4.2929,4.2966,4.2995,4.3347,4.3478,4.3587,4.386,4.4062,4.4222,4.4378,4.4524,4.4652,4.4821,4.484,4.4895,4.5009,4.502,4.502,4.502,4.4919,4.4846,4.4827,4.4796,4.4751,4.4751,4.4751,4.4751,4.4751,4.4569,4.4215,4.3648,4.2592,4.2047,4.2047,4.1213,4.1554,4.2962,4.2331,4.3018,4.1599,4.1046,4.0314,3.9637,3.8373,3.721,3.6951,3.612,3.5508,3.5916,3.5583,3.5415,3.6085,3.5664,3.5347,3.573,3.5815,3.6221,3.7416,3.6339,3.6393,0.0,0.0,3.6941,3.9272,0.0,0.0,0.0,0.0,0.0,3.9703,3.9131,3.8752,3.8602,3.8738,3.8738,3.8618,3.8722,3.8873,3.901,3.9339,3.9563,3.9716,3.9986,4.0353,0.0,0.0,0.0,0.0,4.0561,4.141,4.2826,4.3095,4.3813,4.4684,4.453,4.4041,4.3296,4.2481,4.2197,4.2105,4.1568,4.1403,4.1448,4.1714,4.1952,4.2163,4.2415,4.2635,4.2764,4.2629,4.2706,4.2764,4.2639,4.2757,4.2976,4.3241,4.3303,4.3382,4.3646,4.3814,4.3966,4.4173,4.4416,4.4672,4.4864,4.4968,4.5014,4.5097,4.5103,4.5103,4.5103,4.5045,4.4961,4.4901,4.4889,4.4889,4.4889,4.4889,4.4889,4.4889,4.4137,4.372,4.3701,4.2066,4.1213,4.1213,4.0336,4.0374,4.1232,4.1213,4.2191,4.0488,3.9689,3.8652,3.856,3.7329,3.607,3.5798,3.5064,3.4471,3.462,3.4105,3.3919,3.4864,3.434,3.4033,3.4786,3.503,3.538,3.6126,0.0,0.0,3.8176,3.8266,3.8611,0.0,0.0,0.0,0.0,0.0,0.0,3.9432,3.9023,3.8777,3.8752,3.8683,3.8725,3.8876,3.8819,3.8944,3.9202,3.9422,3.9528,3.9577,3.9935,4.0184,0.0,0.0,0.0,0.0,4.0502,4.1069,4.1928,4.2063,4.2636,4.3331,4.2743,4.237,4.206,4.1305,4.1101,4.115,4.1087,4.1146,4.13,4.1593,4.1841,4.2083,4.2295,4.2323,4.2282,4.2369,4.2369,4.2379,4.256,4.2717,4.2871,4.2995,4.3133,4.3268,4.3399,4.3672,4.3958,4.4173,4.4374,4.4612,4.4858,4.4913,4.4985,4.5148,4.5203,4.5213,4.517,4.5186,4.5159,4.5057,4.4943,4.4913,4.4974,4.4938,4.4895,4.4895,4.4668,4.427,4.3701,4.3211,4.2661,4.2028,4.1789,4.2115,4.2988,4.3584,4.4211,3.9169,3.9296,3.8874,3.8273,3.7084,3.5874,3.5171,3.4303,3.3545,3.3305,3.2914,3.2837,3.3514,3.2865,3.2598,3.3705,3.3634,3.4008,0.0,0.0,0.0,3.646,0.0,0.0,0.0,0.0,0.0,0.0,0.0,0.0,3.9107,3.8821,3.8655,3.8655,3.8669,3.8725,3.8849,3.886,3.8969,3.9188,3.9352,3.9471,3.959,3.9833,4.0045,0.0,0.0,0.0,0.0,4.018,4.058,4.1278,4.1291,4.1695,4.2202,4.1648,4.1345,4.1113,4.0602,4.0551,4.0721,4.0864,4.1065,4.1329,4.1593,4.1852,4.2076,4.2287,4.2277,4.2253,4.2379,4.2399,4.2391,4.256,4.2706,4.2841,4.2985,4.3105,4.3232,4.3347,4.3632,4.3905,4.4019,4.4273,4.453,4.4745,4.4846,4.4955,4.5142,4.5235,4.5286,4.5235,4.5302,4.5297,4.5181,4.5043,4.4985,4.5045,4.501,4.4955,4.4931,4.4647,4.4237,4.3701,4.342,4.2978,4.2407,4.2447,4.2746,4.3325,4.4224,4.4729,0.0,3.9289,4.0197,3.8441,3.729,3.6229,3.488,3.3722,0.0,3.2165,3.2078,3.2139,3.2278,3.1478,3.1273,3.2753,3.2041,3.2444,0.0,3.487,0.0,0.0,0.0,0.0,0.0,0.0,0.0,0.0,0.0,0.0,3.8777,3.8546,3.8408,3.8394,3.8655,3.8738,3.8616,3.8876,3.901,3.9037,3.9215,3.9428,3.969,3.9703,3.9952,0.0,0.0,0.0,0.0,3.9644,4.0011,4.0802,4.0755,4.0972,4.127,4.1137,4.0828,4.0436,4.03,4.0424,4.0673,4.084,4.1117,4.1437,4.1692,4.192,4.2135,4.2351,4.2482,4.258,4.2589,4.2696,4.2754,4.2629,4.2715,4.2879,4.3114,4.3178,4.3223,4.3401,4.3627,4.3767,4.3791,4.4113,4.4433,4.4585,4.4764,4.4937,4.508,4.5208,4.5302,4.5302,4.5359,4.5369,4.5317,4.5192,4.5114,4.5114,4.5114,4.5047,4.4921,4.4193,4.3766,4.3701,4.2962,4.2583,4.2583,4.2532,4.2528,4.2609,4.3488,4.3973,3.4443,0.0,3.6805,3.6212,3.5302,3.4348,0.0,3.2841,3.2451,3.2393,0.0,3.1692,3.3037,3.1824,3.1384,3.3619,3.3062,3.2885,3.4399,0.0,0.0,0.0,0.0,0.0,0.0,0.0,0.0,0.0,0.0,3.8602,3.8504,3.8434,3.8349,3.8235,3.8504,3.8669,3.8736,3.8914,3.9134,3.9379,3.9418,3.9501,3.955,3.9759,3.9858,0.0,0.0,0.0,3.9629,3.9433,3.9537,3.9856,4.0054,4.0166,4.0243,4.0098,3.998,3.9897,3.9977,4.0041,4.0167,4.06,4.096,4.1283,4.1431,4.1743,4.2083,4.2394,4.2427,4.2389,4.2496,4.2578,4.2639,4.2609,4.2738,4.2853,4.2747,4.2862,4.2966,4.2974,4.3214,4.3512,4.3822,4.4033,4.4288,4.4632,4.4751,4.4864,4.5016,4.5181,4.5302,4.5302,4.5351,4.5381,4.539,4.5309,4.5224,4.5181,4.5175,4.484,4.4104,4.3889,4.3766,4.3701,4.4147,4.4379,4.4379,4.3766,4.3471,4.3507,4.3765,4.4001,3.2562,3.4028,3.558,3.4881,3.4054,3.323,3.2587,0.0,0.0,0.0,0.0,3.148,3.2419,3.1711,3.1394,3.2664,3.2286,0.0,0.0,0.0,0.0,0.0,0.0,0.0,0.0,0.0,0.0,0.0,0.0,3.8478,3.8391,3.8391,3.8379,3.8278,3.849,3.8616,3.8614,3.8805,3.8972,3.9083,3.9083,3.9124,3.9175,3.9269,3.9295,0.0,0.0,0.0,3.9378,3.9065,3.9189,3.9595,3.9681,3.9785,3.9901,3.9807,3.9755,3.9729,3.9922,4.0024,4.0138,4.0485,4.0859,4.1186,4.1346,4.1677,4.2058,4.2333,4.2387,4.2409,4.2619,4.2717,4.2738,4.2738,4.288,4.2984,4.2929,4.305,4.3205,4.3286,4.3462,4.3647,4.3894,4.4082,4.4262,4.4489,4.464,4.4783,4.4889,4.5072,4.5203,4.5203,4.5304,4.533,4.526,4.5288,4.5302,4.5297,4.4867,4.4383,4.3874,4.3452,4.3234,4.3208,4.3637,4.3863,4.3905,4.383,4.3626,4.3313,4.4145,4.4435,3.1634,3.3409,3.4959,3.3818,3.2995,3.236,3.202,0.0,0.0,0.0,0.0,0.0,0.0,0.0,0.0,0.0,0.0,0.0,0.0,0.0,0.0,0.0,0.0,0.0,0.0,0.0,0.0,0.0,0.0,3.8377,3.8363,3.8394,3.8377,3.8363,3.8518,3.8504,3.8335,3.8625,3.8736,3.863,3.863,3.8683,3.8805,3.8669,3.8697,3.8769,0.0,0.0,3.9262,3.8742,3.9,3.9716,3.955,3.9642,3.9858,3.9824,3.9759,3.9703,4.0011,4.0188,4.033,4.0485,4.0764,4.1105,4.1312,4.1622,4.1955,4.2194,4.2341,4.2512,4.2815,4.2882,4.2892,4.2892,4.2975,4.3095,4.3232,4.3339,4.3505,4.3783,4.3849,4.3897,4.4005,4.4162,4.4292,4.4336,4.4551,4.4712,4.4783,4.4961,4.5091,4.5103,4.5208,4.5235,4.5142,4.5104,4.5116,4.5157,4.4357,4.3749,4.3474,4.2775,4.2392,4.2382,4.2463,4.2525,4.2583,4.3161,4.3111,4.256,4.4046,4.4442,3.1816,3.2293,3.2596,3.1949,3.1352,3.1062,3.1552,0.0,0.0,0.0,0.0,0.0,0.0,0.0,0.0,0.0,0.0,0.0,0.0,0.0,0.0,0.0,0.0,0.0,0.0,0.0,0.0,0.0,0.0,3.8349,3.8252,3.8351,3.8351,3.8221,3.8462,3.8389,3.7972,3.8525,3.8791,3.8764,3.8764,3.8777,3.8805,3.8777,3.8777,3.8769,0.0,3.8681,3.9276,3.8844,3.9143,3.9849,3.9606,3.959,3.9703,3.9484,3.9445,3.9577,3.9973,4.0188,4.0342,4.0588,4.0793,4.0971,4.118,4.1352,4.1582,4.2009,4.2341,4.2609,4.2774,4.2861,4.2892,4.2892,4.2871,4.2871,4.3022,4.305,4.3178,4.3496,4.3615,4.3747,4.4022,4.4117,4.4222,4.451,4.4639,4.4712,4.4783,4.4938,4.5045,4.5084,4.517,4.5224,4.5275,4.4562,4.411,4.4048,4.3855,4.3073,4.1594,4.1452,4.1411,4.1411,4.212,4.2509,4.2514,4.2003,4.1731,4.169,4.203,4.2133,3.0797,3.0941,3.1083,3.0952,3.0855,3.0752,3.0521,0.0,0.0,0.0,0.0,0.0,0.0,0.0,0.0,0.0,0.0,0.0,0.0,0.0,0.0,0.0,0.0,0.0,0.0,0.0,0.0,0.0,0.0,0.0,3.7711,3.8139,3.8363,3.8307,3.8365,3.8278,3.8062,3.8162,3.8246,3.8315,3.8246,3.8347,3.8586,3.8502,3.8516,3.8567,0.0,3.8404,3.8912,3.86,3.885,3.9428,3.9471,3.9537,3.9563,3.9365,3.9471,3.9707,3.9677,3.9897,4.0226,4.0429,4.0673,4.0942,4.114,4.1089,4.1027,4.1315,4.1897,4.251,4.2785,4.2928,4.2984,4.2929,4.2957,4.3003,4.2957,4.3114,4.3321,4.3512,4.3674,4.3862,4.4151,4.4203,4.4277,4.451,4.4544,4.4558,4.4585,4.4581,4.4447,4.4152,4.4139,4.4059,4.3754,4.3291,4.2845,4.2414,4.2372,4.1755,4.0393,4.042,4.0448,4.0448,4.0864,4.1103,4.1155,4.1322,4.1203,4.0878,4.1852,4.2112,2.9931,2.981,2.9793,3.0041,0.0,3.0514,3.0369,0.0,0.0,0.0,0.0,0.0,0.0,0.0,0.0,0.0,0.0,0.0,0.0,0.0,0.0,0.0,0.0,0.0,0.0,0.0,0.0,0.0,0.0,0.0,3.7441,3.7971,3.825,3.8162,3.8078,3.7963,3.7861,3.7642,3.7611,3.7784,3.7728,3.789,3.8235,3.8235,3.8308,3.8389,3.8164,3.8273,3.8597,3.843,3.8622,3.9007,3.9076,3.9017,3.8893,3.8837,3.9163,3.9555,3.9349,3.963,4.015,4.0362,4.0607,4.0824,4.0909,4.0849,4.0749,4.0785,4.1486,4.2274,4.2532,4.282,4.303,4.2929,4.3003,4.3077,4.2938,4.3133,4.3401,4.3521,4.3682,4.3889,4.4165,4.4226,4.4274,4.4411,4.444,4.4426,4.4357,4.4309,4.4008,4.3296,4.3267,4.2944,4.214,4.201,4.1645,4.0903,4.0816,4.0456,3.9654,3.9688,3.9722,3.9722,3.9792,3.9854,3.9919,4.071,4.0802,4.0314,4.1669,4.2055,3.0033,2.9226,2.8446,2.8826,0.0,0.0,3.2208,3.112,0.0,0.0,0.0,0.0,0.0,0.0,0.0,0.0,0.0,0.0,0.0,0.0,0.0,0.0,0.0,0.0,0.0,0.0,0.0,0.0,0.0,0.0,3.7863,3.7897,3.7799,3.7491,3.7461,3.7254,3.6816,3.6968,3.718,3.7447,3.7611,3.7715,3.7759,3.8193,3.8377,3.8422,3.8511,3.8567,3.8602,3.8581,3.8731,3.893,3.8195,3.7577,3.7111,3.7348,3.797,3.8736,3.9092,3.9595,4.0184,4.0692,4.0704,4.0482,4.025,4.0635,4.1119,4.0863,4.1361,4.1894,4.1731,4.2301,4.2901,4.2892,4.2871,4.2851,4.2891,4.292,4.3022,4.3267,4.3426,4.3599,4.3881,4.3984,4.4064,4.4203,4.4423,4.4491,4.4254,4.4374,4.4109,4.3121,4.3132,4.264,4.1222,4.1047,4.0659,3.9868,3.9682,3.9558,3.9439,3.9489,3.9526,3.9526,3.9587,3.9647,3.9722,3.9989,4.0144,4.021,4.0465,4.0594,2.8871,2.8869,2.9106,2.9512,0.0,0.0,0.0,0.0,0.0,0.0,0.0,0.0,0.0,0.0,0.0,0.0,0.0,0.0,0.0,0.0,0.0,0.0,0.0,0.0,0.0,0.0,0.0,0.0,0.0,0.0,3.6975,3.7356,3.7535,3.7386,3.7313,3.7178,3.7013,3.68,3.677,3.6968,3.7028,3.7224,3.7522,3.7698,3.7961,3.8264,3.8193,3.8278,3.8478,3.8394,3.8462,3.8576,3.7965,3.7459,3.7039,3.714,3.7782,3.8631,3.8778,3.9387,4.0159,4.0534,4.0631,4.0645,4.0701,4.0682,4.0634,4.0576,4.0817,4.1293,4.2134,4.2617,4.29,4.2852,4.2918,4.2899,4.2591,4.2758,4.2967,4.2939,4.3241,4.3522,4.3579,4.3679,4.361,4.3192,4.3152,4.2954,4.2361,4.2229,4.1915,4.1152,4.0896,4.0524,3.9925,3.9933,3.984,3.9539,3.9508,3.947,3.94,3.9426,3.94,3.933,3.9464,3.9557,3.9587,3.9787,3.9949,4.0082,4.0167,4.0284,2.8118,2.8215,2.8634,0.0,0.0,0.0,0.0,0.0,0.0,0.0,0.0,0.0,0.0,0.0,0.0,0.0,0.0,0.0,0.0,0.0,0.0,0.0,0.0,0.0,0.0,0.0,0.0,0.0,0.0,0.0,0.0,3.6847,3.7054,3.6805,3.6858,3.6876,3.6876,3.6631,3.6507,3.6538,3.6708,3.6938,3.7178,3.7328,3.7581,3.7874,3.7861,3.7934,3.8091,3.8091,3.8076,3.8015,3.7541,3.7058,3.6608,3.6452,3.702,3.7849,3.7903,3.8685,3.9732,3.9992,4.0334,4.0633,4.0659,4.0625,4.0553,4.0433,4.0686,4.123,4.2386,4.2739,4.2825,4.2812,4.2918,4.2836,4.2077,4.2402,4.2724,4.2358,4.2785,4.3159,4.2955,4.2978,4.2799,4.2073,4.1985,4.1769,4.1089,4.0983,4.0685,3.9955,3.9375,3.9082,3.9163,3.9225,3.9316,3.9386,3.9399,3.9374,3.9346,3.9327,3.9268,3.917,3.9318,3.9408,3.9408,3.9623,3.9798,3.9903,4.0041,4.0196,2.7999,2.7206,2.6554,0.0,0.0,0.0,0.0,0.0,0.0,0.0,0.0,0.0,0.0,0.0,0.0,0.0,0.0,0.0,0.0,0.0,0.0,0.0,0.0,0.0,0.0,0.0,0.0,0.0,0.0,0.0,0.0,3.6412,3.6337,3.5537,3.5952,3.6196,3.6196,3.6398,3.6414,3.6226,3.6754,3.6892,3.6723,3.7178,3.7328,3.7224,3.7537,3.7582,3.7432,3.777,3.7657,3.7242,3.6783,3.6195,3.5534,3.5084,3.5459,3.6231,3.6351,3.7443,3.8835,3.9115,3.979,4.0392,3.9869,4.0401,4.108,4.0556,4.1059,4.1881,4.2295,4.2555,4.2702,4.2783,4.2852,4.2561,4.137,4.1832,4.2273,4.1538,4.2042,4.2419,4.1951,4.1841,4.1559,4.0881,4.112,4.1226,4.0829,4.1076,4.0898,3.989,3.9014,3.8654,3.9066,3.9038,3.9113,3.9385,3.9263,3.9197,3.9197,3.9135,3.9101,3.9101,3.917,3.9197,3.9197,3.9464,3.9629,3.9711,3.997,4.0137,2.662,2.6606,0.0,0.0,0.0,0.0,0.0,0.0,0.0,0.0,0.0,0.0,0.0,0.0,0.0,0.0,0.0,0.0,0.0,0.0,0.0,0.0,0.0,0.0,0.0,0.0,0.0,0.0,0.0,0.0,0.0,3.6461,3.623,3.5522,3.6091,3.6414,3.6414,3.6796,3.7271,3.7811,3.7367,3.7001,3.6708,3.7089,3.7238,3.7209,3.721,3.727,3.7417,3.767,3.7444,3.6958,3.7053,3.6384,3.5381,3.5399,3.5745,3.6219,3.6255,3.7095,3.8275,3.8855,3.9304,3.9557,3.944,4.0139,4.0874,4.0331,4.0891,4.1769,4.2218,4.2292,4.2323,4.2484,4.2526,4.2422,4.1915,4.1761,4.1642,4.1378,4.1171,4.0969,4.067,4.0689,4.0483,3.9716,3.9746,3.963,3.9045,3.9144,3.9065,3.8583,3.8423,3.8411,3.852,3.8736,3.8855,3.8844,3.8899,3.8989,3.919,3.9135,3.9101,3.9101,3.917,3.9197,3.9197,3.942,3.9563,3.9629,3.9809,3.997,2.6724,0.0,0.0,0.0,0.0,0.0,0.0,0.0,0.0,0.0,0.0,0.0,0.0,0.0,0.0,0.0,0.0,0.0,0.0,0.0,0.0,0.0,0.0,0.0,0.0,0.0,0.0,0.0,0.0,0.0,0.0,3.6276,3.623,3.5907,3.6199,3.6552,3.6892,3.6968,3.7276,3.7772,3.7309,3.6924,3.6631,3.6831,3.6922,3.6922,3.6831,3.6998,3.7328,3.7463,3.7402,3.7233,3.7142,3.6677,3.6039,3.5574,3.5641,3.5926,3.5753,3.6353,3.736,3.8215,3.8817,3.9251,3.9591,4.0218,4.0773,4.0568,4.0946,4.1472,4.1594,4.1558,4.166,4.2264,4.2358,4.2195,4.1761,4.1701,4.1673,4.1357,4.0959,4.0548,4.0168,3.9901,3.9489,3.8735,3.8733,3.8716,3.8476,3.837,3.8279,3.817,3.8171,3.8256,3.8401,3.8583,3.866,3.858,3.8713,3.8811,3.88,3.8818,3.8818,3.8818,3.8967,3.9045,3.9073,3.9349,3.9508,3.9599,3.9712,3.9832,2.7556,0.0,0.0,0.0,0.0,0.0,0.0,0.0,0.0,0.0,0.0,0.0,0.0,0.0,0.0,0.0,0.0,0.0,0.0,0.0,0.0,0.0,0.0,0.0,0.0,0.0,0.0,0.0,0.0,0.0,0.0,3.5968,3.629,3.6415,3.6259,3.658,3.74,3.6971,3.6786,3.6894,3.6924,3.6832,3.66,3.6538,3.6492,3.6476,3.6476,3.6677,3.7055,3.7087,3.7296,3.7569,3.6968,3.6867,3.6909,3.558,3.5282,3.5467,3.5039,3.5459,3.6372,3.7268,3.826,3.9205,3.9767,4.0246,4.0638,4.0827,4.1024,4.1109,4.0781,4.069,4.0965,4.2073,4.2193,4.1887,4.1212,4.1607,4.1899,4.1274,4.0965,4.0586,3.9967,3.9243,3.8581,3.7989,3.8081,3.8312,3.8598,3.8399,3.8229,3.8251,3.8036,3.8044,3.8397,3.8397,3.8374,3.8368,3.8597,3.8572,3.8191,3.83,3.8382,3.8382,3.8629,3.8807,3.891,3.9225,3.9451,3.9587,3.9671,3.973,0.0,2.6544,0.0,0.0,0.0,0.0,0.0,0.0,0.0,0.0,0.0,0.0,0.0,0.0,0.0,0.0,0.0,0.0,0.0,0.0,0.0,0.0,0.0,0.0,0.0,0.0,0.0,0.0,0.0,0.0,3.5667,3.615,3.6214,3.5737,3.592,3.6271,3.6707,3.6981,3.7522,0.0,3.7682,3.734,3.7261,3.6738,3.6414,3.6258,3.6258,3.6107,3.5904,3.6152,3.5983,3.5584,3.5953,3.5784,3.5305,3.5095,3.5002,3.4943,3.4804,3.5452,3.6358,3.6363,3.7265,3.8194,3.7404,3.8416,3.9733,3.9267,4.0066,4.1094,4.1327,4.1391,4.1448,4.1716,4.1425,4.1176,4.1423,4.0917,4.0358,4.0159,3.9154,3.8281,3.8028,3.7841,3.7764,3.7873,3.8164,3.8126,3.7467,3.7954,3.8051,3.7227,3.7088,3.7063,3.7115,3.7387,3.7489,3.7328,3.7956,3.8242,3.806,3.8176,3.8232,3.8232,3.8308,3.8515,3.891,3.9078,3.929,3.9526,3.9629,3.9706,0.0,0.0,0.0,0.0,0.0,0.0,0.0,0.0,0.0,0.0,0.0,0.0,0.0,0.0,0.0,0.0,0.0,0.0,0.0,0.0,0.0,0.0,0.0,0.0,0.0,0.0,0.0,0.0,0.0,3.5382,3.556,3.5672,3.5768,3.5833,3.532,3.5273,3.5781,3.5601,3.5861,3.65,3.5944,3.5747,3.5875,3.6205,3.6352,3.6352,3.6352,3.6199,3.5968,3.6058,3.5809,3.5411,3.5696,3.5669,3.5461,3.5403,3.5438,3.5527,3.5516,3.5938,3.653,3.6739,3.7063,3.7332,3.714,3.7609,3.8215,3.8189,3.8742,3.9391,3.9693,3.9758,3.9758,3.9847,4.0595,4.1234,4.1058,4.0616,4.0121,3.9734,3.8679,3.7818,3.776,3.7547,3.7541,3.7984,3.7787,3.7487,3.7239,3.7081,3.6872,3.6495,3.629,3.621,3.6269,3.6469,3.6484,3.6255,3.6686,3.6854,3.6609,3.7046,3.7493,3.7905,3.7983,3.8251,3.8721,3.8921,3.9163,3.9458,3.9156,3.9051,0.0,0.0,0.0,0.0,0.0,0.0,0.0,0.0,0.0,0.0,0.0,0.0,0.0,0.0,0.0,0.0,0.0,0.0,0.0,0.0,0.0,0.0,0.0,0.0,0.0,0.0,0.0,0.0,0.0,3.4826,3.5219,3.4925,3.5126,3.5956,3.4571,3.4152,3.4808,3.3922,3.3648,3.3996,3.3762,3.3742,3.3936,3.514,3.588,3.621,3.6163,3.6118,3.6089,3.596,3.574,3.5522,3.5667,3.5853,3.6017,3.606,3.6201,3.6347,3.6467,3.6626,3.6862,3.727,3.7064,3.6731,3.7223,3.7013,3.6684,3.7251,3.7448,3.7566,3.7799,3.7859,3.7853,3.8035,3.9686,4.1007,4.0276,4.0116,3.9937,3.9338,3.8493,3.7887,3.7918,3.7503,3.7326,3.78,3.7067,3.6596,3.7002,3.6112,3.5594,3.5953,3.5579,3.5363,3.5519,3.559,3.5511,3.5237,3.5441,3.5526,3.5392,3.5981,3.6729,3.7631,3.773,3.8008,3.8486,3.8736,3.9038,3.9376,3.8651,3.8395,0.0,0.0,2.8083,0.0,0.0,0.0,0.0,0.0,0.0,0.0,0.0,0.0,0.0,0.0,0.0,0.0,0.0,0.0,0.0,0.0,0.0,0.0,0.0,0.0,0.0,0.0,0.0,0.0,3.3297,3.3934,3.4501,3.4274,3.4423,3.5058,3.3765,3.3405,3.4125,3.3041,3.3002,3.4001,3.3614,3.3317,3.3066,3.3449,3.4146,3.5101,3.4806,3.4614,3.451,3.4602,3.4348,3.4037,3.5355,3.5612,3.539,3.6704,3.6893,3.652,3.6829,3.7199,3.7411,3.6519,3.652,3.6658,3.5626,3.5666,3.61,3.6199,3.6839,3.7612,3.8031,3.8225,3.8303,3.8338,3.8606,3.8886,3.8989,3.8564,3.8136,3.8049,3.7462,3.7009,3.7128,3.6653,3.6335,3.6542,3.5934,3.5537,3.5645,3.5463,3.5383,3.5565,3.4967,3.4503,3.4425,3.4727,3.4795,3.4471,3.5118,3.5827,3.6536,3.6398,3.6783,3.7837,3.7712,3.7889,3.8415,3.8572,3.8894,3.9376,3.8688,3.8459,2.7966,2.8691,2.9145,0.0,2.9171,0.0,0.0,0.0,0.0,0.0,0.0,0.0,0.0,0.0,0.0,0.0,0.0,0.0,0.0,0.0,0.0,0.0,0.0,0.0,0.0,0.0,0.0,0.0,3.2755,3.328,3.4182,3.3341,3.3128,3.3752,3.2659,3.2111,3.2202,3.164,3.1809,3.2717,3.2531,3.25,3.2627,3.2474,3.308,3.423,3.4177,3.4201,3.4266,3.4355,3.4177,3.3938,3.4624,3.4942,3.5095,3.5948,3.6346,3.6492,3.6831,3.7205,3.7335,3.6209,3.5812,3.5616,3.4727,3.4473,3.4542,3.485,3.5259,3.57,3.618,3.634,3.6369,3.6346,3.6404,3.6389,3.5966,3.6296,3.6457,3.5694,3.5345,3.5372,3.5996,3.5574,3.5357,3.5938,3.5102,3.4452,3.4611,3.4251,3.4072,3.4243,3.3882,3.3581,3.3536,3.3557,3.3492,3.3358,3.3746,3.4168,3.4598,3.494,3.5368,3.5877,3.7014,3.7845,3.8336,3.8293,3.8343,3.8504,3.8196,3.7732,2.7861,2.8744,2.9305,2.9164,2.9714,3.0474,0.0,0.0,0.0,0.0,0.0,0.0,0.0,0.0,0.0,0.0,0.0,0.0,0.0,0.0,0.0,0.0,0.0,0.0,0.0,0.0,0.0,0.0,3.2239,3.2545,3.3388,3.2255,3.1858,3.2504,3.1561,3.0958,3.0756,3.0628,3.0763,3.1124,3.1461,3.1807,3.2135,3.2015,3.2392,3.314,3.3254,3.3556,3.3946,3.3818,3.3756,3.3717,3.3965,3.414,3.4339,3.4967,3.5362,3.564,3.603,3.6349,3.6446,3.5606,3.5058,3.4662,3.4229,3.3752,3.3437,3.3873,3.4025,3.4147,3.4601,3.4716,3.4716,3.4643,3.4719,3.4606,3.3824,3.4387,3.4785,3.3842,3.3714,3.4021,3.4864,3.4414,3.4218,3.5015,3.4258,3.367,3.395,3.3541,3.3334,3.3584,3.327,3.3032,3.299,3.2808,3.2696,3.2647,3.2755,3.2951,3.3218,3.3846,3.4323,3.4601,3.6182,3.72,3.7599,3.7437,3.7494,3.769,3.7313,3.6814,2.6874,2.7388,2.7862,2.8035,0.0,0.0,0.0,0.0,0.0,0.0,0.0,0.0,0.0,0.0,0.0,0.0,0.0,0.0,0.0,0.0,0.0,0.0,0.0,0.0,0.0,0.0,0.0,0.0,3.144,3.1571,3.1636,3.102,3.0908,3.1469,3.0559,3.0254,3.0607,3.0552,3.0181,2.9536,3.0818,3.143,3.1471,3.209,3.2102,3.1621,3.149,3.2031,3.2928,3.236,3.231,3.2688,3.3631,3.3398,3.2701,3.4116,3.4107,3.3436,3.397,3.4256,3.4356,3.4297,3.4299,3.4295,3.4146,3.3806,3.3516,3.3684,3.3809,3.4,3.4411,3.4521,3.4505,3.4431,3.4391,3.4252,3.3869,3.34,3.3115,3.3285,3.3328,3.3476,3.3907,3.3252,3.284,3.328,3.3266,3.3396,3.3841,3.3865,3.4005,3.44,3.3625,3.307,3.3016,3.3,3.2922,3.2797,3.2862,3.3279,3.4101,3.4181,3.4598,3.5416,3.5438,3.55,3.5647,3.57,3.6313,3.739,3.5994,3.5876,2.7865,2.7884,0.0,2.9016,2.9434,2.9704,0.0,0.0,0.0,0.0,0.0,0.0,0.0,0.0,0.0,0.0,0.0,0.0,0.0,0.0,0.0,0.0,0.0,0.0,0.0,0.0,0.0,0.0,0.0,3.0849,3.1594,3.0779,3.0557,3.1192,3.0711,3.0416,3.0331,3.0144,3.0067,3.0102,3.0111,3.0317,3.0687,3.0445,3.0304,3.0183,2.98,3.0388,3.1601,3.1377,3.1393,3.1556,3.1645,3.1665,3.1676,3.2131,3.2442,3.2666,3.2936,3.3294,3.3562,3.3111,3.3252,3.3506,3.3033,3.3055,3.3282,3.3398,3.3477,3.3568,3.3797,3.3784,3.362,3.3168,3.267,3.2191,3.1766,3.1681,3.1666,3.1631,3.1803,3.2198,3.294,3.2624,3.2501,3.3115,3.294,3.2809,3.2921,3.3246,3.3512,3.3718,3.3344,3.3132,3.3187,3.2842,3.2623,3.2673,3.2688,3.2902,3.3359,3.3417,3.3574,3.39,3.3721,3.4237,3.544,3.5211,3.5316,3.5729,3.5662,3.5506,2.7649,2.765,0.0,0.0,0.0,2.9453,2.9896,0.0,0.0,0.0,0.0,0.0,0.0,0.0,0.0,0.0,0.0,0.0,0.0,0.0,0.0,0.0,0.0,0.0,0.0,0.0,0.0,0.0,0.0,0.0,3.1167,3.0584,3.0401,3.0741,3.0477,3.0224,2.9999,2.9816,2.9895,3.0208,2.9981,3.0022,3.0292,2.9899,2.956,2.9309,2.8887,2.9383,3.0479,3.0206,3.0127,3.0127,2.9827,2.9766,2.9829,2.9642,2.9955,3.0499,3.0614,3.0963,3.1361,3.1381,3.1795,3.2266,3.2195,3.2564,3.304,3.324,3.3309,3.3322,3.3398,3.3375,3.3222,3.2902,3.2237,3.1575,3.1215,3.081,3.0526,3.0594,3.0794,3.1227,3.2086,3.2054,3.2216,3.3126,3.2886,3.2687,3.2912,3.3102,3.3218,3.3227,3.3065,3.3006,3.3086,3.2745,3.2541,3.2574,3.2589,3.2631,3.2696,3.282,3.2868,3.2868,3.2703,3.3202,3.4351,3.4137,3.4258,3.467,3.4906,3.4747,0.0,0.0,0.0,0.0,0.0,0.0,2.9255,0.0,2.8695,0.0,0.0,0.0,0.0,0.0,0.0,0.0,0.0,0.0,0.0,0.0,0.0,0.0,0.0,0.0,0.0,0.0,0.0,0.0,3.1328,3.1038,3.0188,3.0359,3.0364,3.011,2.9788,2.9618,2.9602,2.9587,2.9571,2.9585,3.0335,3.0538,3.0229,3.0427,2.9937,2.8889,2.8663,2.895,2.9501,2.8768,2.8446,2.84,2.8276,2.7796,2.7131,2.6788,2.677,2.6903,2.6971,2.7219,2.773,2.9131,2.9997,3.069,3.1748,3.2391,3.2844,3.3187,3.3282,3.328,3.3264,3.3277,3.3366,3.3704,3.3158,3.2505,3.2373,3.0857,2.9692,3.0301,3.0464,3.0736,3.1389,3.1513,3.1949,3.3192,3.3056,3.3078,3.3865,3.3574,3.3256,3.3124,3.287,3.271,3.2718,3.2771,3.2707,3.2524,3.2556,3.2514,3.2309,3.2488,3.2606,3.2606,3.2532,3.2439,3.2309,3.2439,3.3136,3.4326,3.3631,3.3599,2.7239,0.0,0.0,0.0,0.0,0.0,0.0,0.0,0.0,0.0,0.0,0.0,0.0,0.0,0.0,0.0,0.0,0.0,0.0,0.0,0.0,0.0,0.0,0.0,0.0,0.0,0.0,0.0,2.9031,2.9014,2.8966,2.9845,3.0315,3.0249,3.0159,2.9991,2.9745,2.9401,2.9162,2.902,2.8616,2.8291,2.8025,2.7186,2.6697,2.6513,2.5873,2.5794,2.6228,2.7067,2.7103,2.6621,2.6587,2.653,2.642,2.6063,2.6176,2.6572,2.6774,2.7144,2.7645,2.8527,2.9446,3.0311,3.0844,3.1641,3.2411,3.259,3.2715,3.2716,3.2379,3.2576,3.2598,3.1549,3.1329,3.1272,3.0887,3.0489,3.0274,3.0443,3.0808,3.1208,3.1573,3.2003,3.2406,3.2694,3.2824,3.2899,3.2983,3.3088,3.316,3.317,3.3021,3.3008,3.3196,3.2866,3.2655,3.2646,3.2564,3.2455,3.2309,3.2488,3.2606,3.2606,3.2446,3.2387,3.2447,3.2429,3.2677,3.3176,3.3418,3.3601,2.71,0.0,0.0,0.0,0.0,0.0,0.0,2.7524,0.0,0.0,0.0,0.0,0.0,0.0,0.0,0.0,0.0,0.0,0.0,0.0,0.0,0.0,0.0,0.0,0.0,2.9084,2.8761,2.8885,2.905,2.9346,2.9812,3.0208,3.0502,3.0714,3.038,3.0022,2.9607,2.9182,2.8846,2.8576,2.7629,2.6953,2.6541,2.5255,2.4579,2.4393,2.3907,2.3623,2.3596,2.4737,2.5225,2.5263,2.5543,2.5676,2.5653,2.5282,2.5521,2.6021,2.6037,2.627,2.6703,2.7683,2.8423,2.9125,3.0162,3.0988,3.1698,3.2307,3.2252,3.1985,3.188,3.1876,3.1761,3.1142,3.1064,3.1073,3.0939,3.0798,3.0702,3.0671,3.1058,3.1439,3.1637,3.2065,3.2536,3.2939,3.27,3.267,3.3208,3.2899,3.2734,3.2965,3.2918,3.2935,3.3093,3.293,3.2792,3.2784,3.2705,3.2589,3.2429,3.2563,3.2629,3.2606,3.2479,3.2489,3.2581,3.2403,3.2488,3.2792,3.3227,3.3437,2.6461,2.6582,0.0,0.0,0.0,0.0,2.7152,2.6755,2.6599,0.0,0.0,0.0,0.0,0.0,0.0,0.0,0.0,0.0,0.0,0.0,0.0,0.0,0.0,0.0,2.9388,2.9336,2.9339,2.9479,2.9964,3.0576,3.1346,3.0848,3.0725,3.1111,3.0413,2.9747,2.9186,2.8805,2.8452,2.8127,2.7042,2.6183,2.5511,2.4236,2.3292,2.265,2.2548,2.2138,2.1608,2.2246,2.3141,2.4131,2.4842,2.5022,2.4885,2.4589,2.4897,2.5394,2.5103,2.5142,2.5506,2.6735,2.7254,2.7708,2.9454,3.0243,3.0771,3.205,3.1797,3.1219,3.1565,3.1207,3.091,3.1593,3.1518,3.1379,3.1708,3.1382,3.1005,3.0952,3.1261,3.1542,3.1617,3.1929,3.2476,3.3415,3.2651,3.2477,3.3864,3.2886,3.2222,3.2661,3.2694,3.2694,3.2718,3.2961,3.3032,3.2924,3.2908,3.2802,3.2613,3.2669,3.2695,3.2605,3.2555,3.2571,3.2628,3.2344,3.2439,3.2876,3.3045,3.3088,2.7439,2.7365,2.7364,2.7194,0.0,0.0,2.7296,2.6926,2.6845,0.0,0.0,0.0,0.0,0.0,0.0,0.0,0.0,0.0,0.0,0.0,0.0,0.0,0.0,0.0,2.6691,2.6358,2.6199,2.6219,2.7392,2.8465,2.9321,2.9897,3.0128,2.9942,2.9629,2.9139,2.8498,2.7832,2.7401,2.7157,2.5912,2.5085,2.4609,2.3328,2.2395,2.1719,2.1344,2.0938,2.0625,2.1179,2.19,2.2683,2.3525,2.4079,2.4438,2.448,2.4719,2.502,2.5063,2.5491,2.6015,2.6133,2.7017,2.804,2.8046,2.8682,2.9671,3.0828,3.0932,3.0724,3.0745,3.0538,3.0295,3.0237,3.0381,3.0608,3.1011,3.1169,3.1225,3.1161,3.1481,3.1764,3.1839,3.2161,3.2483,3.2701,3.2578,3.2609,3.3027,3.267,3.2506,3.2747,3.268,3.2696,3.2842,3.2963,3.3011,3.2985,3.2922,3.2834,3.2685,3.2802,3.2792,3.2677,3.2309,3.2144,3.2232,3.2214,3.237,3.2664,3.2705,3.2462,2.8359,2.8258,2.8144,2.7548,0.0,0.0,0.0,2.6483,2.6229,2.7741,2.7598,0.0,0.0,0.0,0.0,0.0,0.0,0.0,0.0,0.0,0.0,0.0,0.0,0.0,2.6155,2.5799,2.5777,2.6341,2.7332,2.8235,2.9012,2.9157,2.9056,2.8755,2.8271,2.7616,2.68,2.6269,2.5901,2.5636,2.4456,2.3648,2.3123,2.2049,2.1335,2.0938,2.0698,2.0423,2.0177,2.0507,2.0953,2.152,2.265,2.3531,2.4127,2.3996,2.4479,2.5182,2.5014,2.5351,2.5881,2.6047,2.6617,2.7309,2.7652,2.8554,2.9541,3.0049,3.0249,3.024,2.9961,2.9921,2.9935,2.9827,3.0081,3.0468,3.0865,3.1065,3.1166,3.1242,3.1387,3.1521,3.159,3.1912,3.2161,3.2197,3.231,3.248,3.2721,3.2631,3.2632,3.2838,3.2796,3.2786,3.2892,3.2995,3.3081,3.316,3.3057,3.2993,3.2993,3.2971,3.2844,3.2596,3.2144,3.1894,3.1894,3.1803,3.1868,3.2083,3.1664,3.1209,0.0,0.0,0.0,0.0,0.0,2.7343,0.0,0.0,0.0,2.6953,0.0,0.0,0.0,0.0,0.0,0.0,0.0,0.0,0.0,0.0,0.0,0.0,0.0,0.0,0.0,2.5783,2.5844,2.6895,2.724,2.7667,2.83,2.7897,2.7501,2.718,2.6502,2.5737,2.4824,2.453,2.4237,2.3929,2.3032,2.2324,2.1804,2.1091,2.062,2.0375,2.0447,2.0255,1.9923,2.016,2.0377,2.0725,2.2001,2.3049,2.3795,2.362,2.4286,2.5249,2.4998,2.5223,2.5688,2.6031,2.6177,2.6396,2.7386,2.8422,2.9312,2.9313,2.9492,2.9676,2.9615,2.9611,2.9706,3.0001,3.0255,3.0495,3.0865,3.0935,3.0995,3.1149,3.1107,3.1105,3.1264,3.1559,3.1792,3.1875,3.2055,3.2301,3.2629,3.2563,3.2589,3.2804,3.2779,3.2763,3.2796,3.2922,3.3065,3.3175,3.3104,3.3093,3.3198,3.2971,3.268,3.2309,3.1884,3.1609,3.1528,3.1211,3.1104,3.1208,3.0443,2.9903,0.0,0.0,0.0,0.0,2.8653,0.0,0.0,0.0,2.7273,2.6505,0.0,0.0,0.0,0.0,0.0,0.0,0.0,0.0,0.0,0.0,0.0,0.0,0.0,0.0,0.0,2.4858,2.425,2.5049,2.4497,2.435,2.4842,2.5138,2.505,2.4546,2.4333,2.3849,2.3082,2.2929,2.2655,2.2272,2.2033,2.1778,2.1532,2.1435,2.0974,2.0245,2.0589,2.0303,1.9613,2.0211,2.0511,2.0675,2.1499,2.2355,2.3195,2.3863,2.4291,2.46,2.5152,2.5687,2.6069,2.5716,2.5743,2.6002,2.6383,2.6947,2.7624,2.8201,2.8469,2.8913,3.0273,2.998,2.9662,3.0858,3.075,3.047,3.0681,3.0733,3.0743,3.0763,3.0671,3.0722,3.1151,3.1445,3.1671,3.1783,3.2028,3.2275,3.2489,3.231,3.2258,3.2515,3.2336,3.2249,3.244,3.2582,3.2687,3.275,3.2866,3.2888,3.286,3.2495,3.2074,3.1625,3.1338,3.1093,3.0898,3.0387,3.0042,2.9817,2.9543,2.8977,0.0,0.0,0.0,0.0,0.0,0.0,2.7868,0.0,2.6516,0.0,0.0,0.0,0.0,0.0,0.0,0.0,0.0,0.0,0.0,0.0,0.0,0.0,0.0,0.0,0.0,0.0,0.0,0.0,2.3077,2.2966,2.2847,2.3221,2.3109,2.2321,2.2355,2.2067,2.141,2.1118,2.0997,2.1001,2.0953,2.0886,2.0809,2.0915,2.0777,2.0446,2.0567,2.036,2.0005,2.0478,2.0759,2.0951,2.1488,2.2281,2.3163,2.357,2.4141,2.4732,2.5058,2.537,2.5643,2.5703,2.5866,2.6084,2.6473,2.6883,2.7292,2.7739,2.8402,2.9169,3.0008,3.0041,3.01,3.097,3.0664,3.0242,3.0526,3.0432,3.0316,3.039,3.0306,3.0274,3.0474,3.0978,3.1395,3.1452,3.1775,3.2082,3.2249,3.2091,3.2064,3.2301,3.2188,3.2144,3.2275,3.237,3.2437,3.2479,3.2334,3.2205,3.2048,3.1141,3.0521,3.029,2.9932,2.965,2.9411,2.9419,2.8944,2.8029,2.815,2.7868,3.1826,0.0,0.0,0.0,0.0,0.0,0.0,0.0,0.0,0.0,0.0,0.0,0.0,0.0,0.0,0.0,0.0,0.0,0.0,0.0,0.0,0.0,0.0,0.0,0.0,0.0,0.0,0.0,0.0,2.1038,2.0952,2.1185,2.1074,2.0509,2.07,2.0594,2.01,1.9849,1.986,2.0108,2.0167,2.0225,2.0303,2.045,2.0527,2.0508,2.0587,2.0533,2.0476,2.0842,2.1091,2.1266,2.1616,2.228,2.3053,2.3256,2.387,2.4663,2.4825,2.5142,2.5547,2.5967,2.6201,2.6434,2.6853,2.7094,2.7258,2.7524,2.8338,2.9243,2.9681,2.9911,3.0182,3.0839,3.0443,2.9984,3.0247,3.0097,2.9957,3.0044,2.9973,2.9919,2.9935,3.0603,3.1124,3.1095,3.1543,3.193,3.2001,3.1921,3.1939,3.2108,3.2011,3.2001,3.2082,3.2126,3.2126,3.2065,3.176,3.1439,3.1118,2.9915,2.9123,2.8863,2.8429,2.8014,2.7655,2.7923,2.7526,2.6524,2.6917,2.6825,0.0,0.0,0.0,2.9622,0.0,0.0,0.0,0.0,2.6445,0.0,0.0,0.0,0.0,0.0,0.0,0.0,0.0,0.0,0.0,0.0,0.0,0.0,0.0,0.0,0.0,0.0,0.0,0.0,0.0,0.0,1.8749,1.8689,1.8785,1.9141,1.9482,1.9554,1.9336,1.9519,1.9607,1.9626,1.9813,2.0049,2.0303,2.0303,2.0303,2.0323,2.0721,2.0846,2.0823,2.1293,2.1528,2.16,2.1799,2.2189,2.265,2.2987,2.3463,2.4005,2.4461,2.5311,2.6206,2.6494,2.675,2.7017,2.7364,2.7352,2.7258,2.7524,2.8005,2.8642,2.9557,2.9564,2.9564,3.0489,3.0192,2.9726,2.981,2.9749,2.972,2.972,2.972,2.9737,2.9799,3.0472,3.0958,3.0835,3.1441,3.1884,3.1827,3.1809,3.1829,3.1894,3.1738,3.1681,3.1809,3.1818,3.171,3.1462,3.1191,3.0767,3.017,2.9171,2.8258,2.7472,2.6941,2.6377,2.5787,2.5666,2.5591,2.5568,2.6095,2.5971,0.0,0.0,3.106,3.0283,0.0,0.0,0.0,0.0,0.0,0.0,0.0,0.0,0.0,0.0,0.0,0.0,0.0,0.0,0.0,0.0,0.0,0.0,0.0,0.0,0.0,0.0,0.0,0.0,1.7183,0.0,0.0,1.7449,1.7905,1.8038,1.8704,1.9199,1.949,1.9157,1.9141,1.941,1.933,1.9429,1.9647,1.9902,1.9971,1.9863,2.0254,2.0474,2.0553,2.0762,2.1015,2.128,2.1241,2.1463,2.1936,2.302,2.3808,2.4445,2.5553,2.6156,2.6592,2.7399,2.7442,2.7354,2.8174,2.8155,2.7933,2.8297,2.8642,2.9042,2.954,2.9339,2.9256,3.0156,2.9814,2.9328,2.9448,2.9385,2.9309,2.9309,2.9462,2.9592,2.971,3.0247,3.0726,3.0908,3.1322,3.1688,3.1791,3.1679,3.1632,3.1691,3.1515,3.1456,3.1585,3.1404,3.1147,3.0828,3.0345,2.9794,2.9198,2.752,2.6359,2.5812,2.489,2.4395,2.4377,2.4693,2.4842,2.4833,2.4929,2.5066,3.108,3.0697,0.0,3.0036,2.8979,0.0,2.7846,0.0,0.0,0.0,0.0,0.0,0.0,0.0,0.0,0.0,0.0,0.0,0.0,0.0,0.0,0.0,0.0,0.0,0.0,0.0,1.6552,1.6312,0.0,0.0,0.0,0.0,1.7525,1.7664,1.8525,1.9132,1.9489,1.9051,1.8962,1.9301,1.9172,1.9212,1.9429,1.9666,1.9715,1.9627,2.0062,2.022,2.0227,2.0473,2.0702,2.0929,2.0918,2.1178,2.1718,2.2902,2.4103,2.5244,2.6198,2.6776,2.7271,2.8239,2.8211,2.7992,2.9023,2.9009,2.8708,2.9106,2.9173,2.9195,2.9468,2.913,2.8881,2.9493,2.9281,2.8963,2.9103,2.9064,2.904,2.904,2.9287,2.9552,2.9699,3.0103,3.0495,3.0784,3.1121,3.1356,3.1437,3.1322,3.1264,3.1315,3.1237,3.1094,3.085,3.0522,3.0137,2.9709,2.8946,2.8408,2.8209,2.6297,2.4977,2.4404,2.3598,2.3037,2.273,2.3311,2.3577,2.3576,2.3359,2.3548]},{"header":{"parameterUnit":"m.s-1","parameterCategory":1,"la1":30.6,"la2":29.2853,"lo1":-89.7004,"lo2":-87.6739,"dy":0.0162,"dx":0.0183,"nx":112,"ny":82,"refTime":"2026-05-11T12:00:00:Z","depth":0,"parameterNumber":3,"parameterNumberName":"V-component_of_WINDS"},"data":[0.0,0.0,0.0,0.0,0.0,0.0,0.0,0.0,0.0,0.0,0.0,0.0,0.0,0.0,0.0,0.0,0.0,0.0,0.0,0.0,0.0,0.0,0.0,0.0,0.0,0.0,0.0,0.0,0.0,0.0,0.0,0.0,0.0,0.0,0.0,0.0,0.0,0.0,0.0,0.0,0.0,0.0,0.0,0.0,0.0,0.0,0.0,0.0,0.0,0.0,0.0,0.0,0.0,0.0,0.0,0.0,0.0,0.0,0.0,0.0,0.0,0.0,0.0,0.0,0.0,0.0,0.0,0.0,0.0,0.0,0.0,0.0,0.0,0.0,0.0,0.0,0.0,0.0,0.0,0.0,0.0,0.0,0.0,0.0,0.0,0.0,0.0,0.0,0.0,0.0,0.0,1.0634,1.2689,1.3812,1.3468,1.3122,1.2208,1.0556,0.0,0.0,0.0,0.0,0.0,0.0,0.0,0.0,0.0,0.0,0.0,0.0,0.0,0.0,0.0,0.0,0.0,0.0,0.0,0.0,0.0,0.0,0.0,0.0,0.0,0.0,0.0,0.0,0.0,0.0,0.0,0.0,0.0,0.0,0.0,0.0,0.0,0.0,0.0,0.0,0.0,0.0,0.0,0.0,0.0,0.0,0.0,0.0,0.0,0.0,0.0,0.0,0.0,0.0,0.0,0.0,0.0,0.0,0.0,0.0,0.0,0.0,0.0,0.0,0.0,0.0,0.0,0.0,0.0,0.0,0.0,0.0,0.0,0.0,0.0,0.0,0.0,0.0,0.0,0.0,0.0,0.0,0.0,0.0,0.0,0.0,0.0,0.0,0.0,0.0,0.0,0.0,0.0,0.0,0.0,0.0,0.0,0.0,0.0,0.0,0.0,0.0,0.0,0.0,0.9966,1.2512,1.3364,1.3967,1.4513,1.3829,1.2604,1.0774,0.0,0.0,0.0,0.0,0.0,0.0,0.0,0.0,0.0,0.0,0.0,0.0,0.0,0.0,0.0,0.0,0.0,0.0,0.0,0.0,0.0,0.0,0.0,0.0,0.0,0.0,0.0,0.0,0.0,0.0,0.0,0.0,0.0,0.0,0.0,0.0,0.0,0.0,0.0,0.0,0.0,0.0,0.0,0.0,0.0,0.0,0.0,0.0,0.0,0.0,0.0,0.0,0.0,0.0,0.0,0.0,0.0,0.0,0.0,0.0,0.0,0.0,0.0,0.0,0.0,0.0,0.0,0.0,0.0,0.0,0.0,0.0,0.0,0.0,0.0,0.0,0.0,0.0,0.0,0.0,0.0,0.0,0.0,0.0,0.0,0.0,0.0,0.0,0.0,0.0,0.0,0.0,0.0,0.0,0.0,0.0,0.0,0.0,0.0,0.0,0.0,0.0,0.0,0.9656,1.1446,1.3465,1.4144,1.4597,1.4941,1.4695,1.3667,1.1647,1.0313,0.0,0.0,0.0,0.0,0.0,0.0,0.0,0.0,0.0,0.0,0.0,0.0,0.0,0.0,0.0,0.0,0.0,0.0,0.0,0.0,0.0,0.0,0.0,0.0,0.0,0.0,0.0,0.0,0.0,0.0,0.0,0.0,0.0,0.0,0.0,0.0,0.0,0.0,0.0,0.0,0.0,0.0,0.0,0.0,0.0,0.0,0.0,0.0,0.0,0.0,0.0,0.0,0.0,0.0,0.0,0.0,0.0,0.0,0.0,0.0,0.0,0.0,0.0,0.0,0.0,0.0,0.0,0.0,0.0,0.0,0.0,0.0,0.0,0.0,0.0,0.0,0.0,0.0,0.0,0.0,0.0,0.0,0.0,0.0,0.0,0.0,0.0,0.0,0.0,0.0,0.0,0.0,0.0,0.0,0.0,0.0,0.0,0.0,0.0,0.0,0.0,0.0,1.0531,1.2207,1.37,1.4515,1.5044,1.5257,1.508,1.413,1.2251,1.0764,0.0,0.0,0.0,0.0,0.0,0.0,0.0,0.0,0.0,0.0,0.0,0.0,0.0,0.0,0.0,0.0,0.0,0.0,0.0,0.0,0.0,0.0,0.0,0.0,0.0,0.0,0.0,0.0,0.0,0.0,0.0,0.0,0.0,0.0,0.0,0.0,0.0,0.0,0.0,0.0,0.0,0.0,0.0,0.0,0.0,0.0,0.0,0.0,0.0,0.0,0.0,0.0,0.0,0.0,0.0,0.0,0.0,0.0,0.0,0.0,0.0,0.0,0.0,0.0,0.0,0.0,0.0,0.0,0.0,0.0,0.0,0.0,0.0,0.0,0.0,0.0,0.0,0.0,0.0,0.0,0.0,0.0,0.0,0.0,0.0,0.0,0.0,0.0,0.0,0.0,0.0,0.0,0.0,0.0,0.0,0.0,0.0,0.0,0.0,0.0,0.0,0.0,1.0064,1.1467,1.3004,1.399,1.4893,1.5778,1.448,1.3136,1.1991,0.9851,0.0,0.0,0.0,0.0,0.0,0.0,0.0,0.0,0.0,0.0,0.0,0.0,0.0,0.0,0.0,0.0,0.0,0.0,0.0,0.0,0.0,0.0,0.0,0.0,0.0,0.0,0.0,0.0,0.0,0.0,0.0,0.0,0.0,0.0,0.0,0.0,0.0,0.0,0.0,0.0,0.0,0.0,0.0,0.0,0.0,0.0,0.0,0.0,0.0,0.0,0.0,0.0,0.0,0.0,0.0,0.0,0.0,0.0,0.0,0.0,0.0,0.0,0.0,0.0,0.0,0.0,0.0,0.0,0.0,0.0,0.0,0.0,0.0,0.0,0.0,0.0,0.0,0.0,0.0,0.0,0.0,0.0,0.0,0.0,0.0,0.0,0.0,0.0,0.0,0.0,0.0,0.0,0.0,0.0,0.0,0.0,0.0,0.0,0.0,0.0,0.0,0.0,1.1307,1.253,0.0,1.4376,1.4986,1.5425,1.5174,1.4133,1.2094,0.0,0.0,0.0,0.0,0.0,0.0,0.0,0.0,0.0,0.0,0.0,0.0,0.0,0.0,0.0,0.0,0.0,0.0,0.0,0.0,0.0,0.0,0.0,0.0,0.0,0.0,0.0,0.0,0.0,0.0,0.0,0.0,0.0,0.0,0.0,0.0,0.0,0.0,0.0,0.0,0.0,0.0,0.0,0.0,0.0,0.0,0.0,0.0,0.0,0.0,0.0,0.0,0.0,0.0,0.0,0.0,0.0,0.0,0.0,0.0,0.0,0.0,0.0,0.0,0.0,0.0,0.0,0.0,0.0,0.0,0.0,0.0,0.0,0.0,0.0,0.0,0.0,0.0,0.0,0.0,0.0,0.0,0.0,0.0,0.0,0.0,0.0,0.0,0.0,0.0,0.0,0.0,0.0,0.0,0.0,0.0,0.0,0.0,0.0,0.0,0.0,0.0,1.1076,1.2228,1.326,0.0,1.4394,1.4777,1.4979,1.5058,1.4174,1.1988,0.0,0.0,0.0,0.0,0.0,0.0,0.0,0.0,0.0,0.0,0.0,0.0,0.0,0.0,0.0,0.0,0.0,0.0,0.0,0.0,0.0,0.0,0.0,0.0,0.0,0.0,0.0,0.0,0.0,0.0,0.0,0.0,0.0,0.0,0.0,0.0,0.0,0.0,0.0,0.0,0.0,0.0,0.0,0.0,0.0,0.0,0.0,0.0,0.0,0.0,0.0,0.0,0.0,0.0,0.0,0.0,0.0,0.0,0.0,0.0,0.0,0.0,0.0,0.0,0.0,0.0,0.0,0.0,0.0,0.0,0.0,0.0,0.0,0.0,0.0,0.0,0.0,0.0,0.0,0.0,0.0,0.0,0.0,0.0,0.0,0.0,0.0,0.0,0.0,0.0,0.0,0.0,0.0,0.0,0.0,0.0,0.0,0.0,0.0,0.0,0.0,0.0,1.154,1.2588,1.3408,1.3599,1.3852,1.4171,1.4563,1.388,1.2877,0.0,0.0,0.0,0.0,0.0,0.0,0.0,0.0,0.0,0.0,0.0,0.0,0.0,0.0,0.0,0.0,0.0,0.0,0.0,0.0,0.0,0.0,0.0,0.0,0.0,0.0,0.0,0.0,0.0,0.0,0.0,0.0,0.0,0.0,0.0,0.0,0.0,0.0,0.0,0.0,0.0,0.0,0.0,0.0,0.0,0.0,0.0,0.0,0.0,0.0,0.0,0.0,0.0,0.0,0.0,0.0,0.0,0.0,0.0,0.0,0.0,0.0,0.0,0.0,0.0,0.0,0.0,0.0,0.0,0.0,0.0,0.0,0.0,0.0,0.0,0.0,0.0,0.0,0.0,0.0,0.0,0.0,0.0,0.0,0.0,0.0,0.0,0.0,0.0,0.0,0.0,0.0,0.0,0.0,0.0,0.0,0.0,0.0,0.0,0.0,0.0,0.0,0.0,1.2693,1.3909,1.4744,1.4598,1.4787,1.4901,1.4823,1.4636,1.391,1.244,0.0,0.0,0.0,0.0,0.0,0.0,0.0,0.0,0.0,0.0,0.0,0.0,0.0,0.0,0.0,0.0,0.0,0.0,0.0,0.0,0.0,0.0,0.0,0.0,0.0,0.0,0.0,0.0,0.0,0.0,0.0,0.0,0.0,0.0,0.0,0.0,0.0,0.0,0.0,0.0,0.0,0.0,0.0,0.0,0.0,0.0,0.0,0.0,0.0,0.0,0.0,0.0,0.0,0.0,0.0,0.0,0.0,0.0,0.0,0.0,0.0,0.0,0.0,0.0,0.0,0.0,0.0,0.0,0.0,0.0,0.0,0.0,0.0,0.0,0.0,0.0,0.0,0.0,0.0,0.0,0.0,0.0,0.0,0.0,0.0,0.0,0.0,0.0,0.0,0.0,0.0,0.0,0.0,0.0,0.0,0.0,0.0,0.0,0.0,0.0,0.0,0.0,1.3561,1.4691,1.5461,1.5434,1.5188,1.4932,1.4752,1.4785,1.407,1.237,0.0,0.0,0.0,0.0,0.0,0.0,0.0,0.0,0.0,0.0,0.0,0.0,0.0,0.0,0.0,0.0,0.0,0.0,0.0,0.0,0.0,0.0,0.0,0.0,0.0,0.0,0.0,0.0,0.0,0.0,0.0,0.0,0.0,0.0,0.0,0.0,0.0,0.0,0.0,0.0,0.0,0.0,0.0,0.0,0.0,0.0,0.0,0.0,0.0,0.0,0.0,0.0,0.0,0.0,0.0,0.0,0.0,0.0,0.0,0.0,0.0,0.0,0.0,0.0,0.0,0.0,0.0,0.0,0.0,0.0,0.0,0.0,0.0,0.0,0.0,0.0,0.0,0.0,0.0,0.0,0.0,0.0,0.0,0.0,0.0,0.0,0.0,0.0,0.0,0.0,0.0,0.0,0.0,0.0,0.0,0.0,0.0,0.0,0.0,0.0,0.0,0.0,1.4225,1.524,1.5972,1.6156,1.537,1.4742,1.4564,1.451,1.3695,1.1848,0.0,0.0,0.0,0.0,0.0,0.0,0.0,0.0,0.0,0.0,0.0,0.0,0.0,0.0,0.0,0.0,0.0,0.0,0.0,0.0,0.0,0.0,0.0,0.0,0.0,0.0,0.0,0.0,0.0,0.0,0.0,0.0,0.0,0.0,0.0,0.0,0.0,0.0,0.0,0.0,0.0,0.0,0.0,0.0,0.0,0.0,0.0,0.0,0.0,0.0,0.0,0.0,0.0,0.0,0.0,0.0,0.0,0.0,0.0,0.0,1.4326,0.0,0.0,0.0,0.0,0.0,0.0,0.0,0.0,0.0,0.0,0.0,0.0,0.0,0.0,0.0,0.0,0.0,0.0,0.0,0.0,0.0,0.0,0.0,0.0,0.0,0.0,0.0,0.0,0.0,0.0,0.0,0.0,0.0,0.0,0.0,0.0,0.0,0.0,0.0,0.0,0.0,1.474,1.681,1.7897,1.6911,1.6661,1.6102,1.4992,1.4556,1.3871,1.2766,1.097,0.0,0.0,0.0,0.0,0.0,0.0,0.0,0.0,0.0,0.0,0.0,0.0,0.0,0.0,0.0,0.0,0.0,0.0,0.0,0.0,0.0,0.0,0.0,0.0,0.0,0.0,0.0,0.0,0.0,0.0,0.0,0.0,0.0,0.0,0.0,0.0,0.0,0.0,0.0,0.0,0.0,0.0,0.0,0.0,0.0,0.0,0.0,0.0,0.0,0.0,0.0,0.0,0.0,0.0,0.0,0.0,0.0,0.0,0.0,0.0,1.6628,0.0,0.0,0.0,0.0,0.0,0.0,0.0,0.0,0.0,0.0,0.0,0.0,0.0,0.0,0.0,0.0,0.0,0.0,0.0,0.0,0.0,0.0,0.0,0.0,0.0,0.0,0.0,0.0,0.0,0.0,0.0,0.0,0.0,0.0,0.0,0.0,0.0,0.0,0.0,0.0,1.5029,1.722,1.8466,1.7662,1.7059,1.6307,1.5276,1.454,1.372,1.276,1.1391,0.0,0.0,0.0,0.0,0.0,0.0,0.0,0.0,0.0,0.0,0.0,0.0,0.0,0.0,0.0,0.0,0.0,0.0,0.0,0.0,0.0,0.0,0.0,0.0,0.0,0.0,0.0,0.0,0.0,0.0,0.0,0.0,0.0,0.0,0.0,0.0,0.0,0.0,0.0,0.0,0.0,0.0,0.0,0.0,0.0,0.0,0.0,0.0,0.0,0.0,0.0,0.0,0.0,2.0779,2.1682,2.2953,2.2875,2.2894,2.2856,2.0998,1.9714,1.894,0.0,0.0,0.0,0.0,0.0,0.0,0.0,0.0,0.0,0.0,0.0,0.0,0.0,0.0,0.0,0.0,0.0,0.0,0.0,0.0,0.0,0.0,0.0,0.0,0.0,1.7176,1.747,0.0,0.0,0.0,0.0,0.0,0.0,0.0,0.0,0.0,0.0,0.0,0.0,1.529,1.7513,1.8897,1.8503,1.75,1.6519,1.5611,1.4583,1.3534,1.2518,1.1888,1.0757,0.0,0.0,0.0,0.0,0.0,0.0,0.0,0.0,0.0,0.0,0.0,0.0,0.0,0.0,0.0,0.0,0.0,0.0,0.0,0.0,0.0,0.0,0.0,0.0,0.0,0.0,0.0,0.0,0.0,0.0,0.0,0.0,1.6632,1.6012,0.0,0.0,0.0,0.0,0.0,0.0,0.0,0.0,0.0,0.0,0.0,0.0,0.0,1.9123,2.0254,2.2009,2.3188,2.3742,2.4053,2.4382,2.4756,2.4394,2.4431,2.4759,2.4625,0.0,2.1414,2.0297,0.0,0.0,0.0,0.0,0.0,0.0,0.0,0.0,0.0,0.0,0.0,0.0,0.0,0.0,0.0,0.0,0.0,0.0,0.0,0.0,0.0,0.0,1.6803,1.8593,1.9005,1.8905,0.0,1.7147,1.5748,1.5399,1.4836,0.0,0.0,0.0,0.0,0.0,0.0,0.0,1.5832,1.8994,2.076,1.9621,1.9302,1.8334,1.6278,1.4958,1.3811,1.2815,1.187,1.112,1.061,1.037,0.0,0.0,0.0,0.0,0.0,0.0,0.0,0.0,0.0,0.0,0.0,0.0,0.0,0.0,0.0,0.0,0.0,0.0,0.0,0.0,0.0,0.0,0.0,0.0,0.0,0.0,0.0,0.0,0.0,1.7271,1.7767,1.7736,1.6776,1.6106,0.0,0.0,0.0,0.0,0.0,0.0,0.0,0.0,0.0,1.932,2.0918,2.2373,2.3638,2.4618,2.519,2.5427,2.576,2.6209,2.6721,2.6235,2.6419,2.7071,2.6177,2.5172,2.4048,2.2882,2.2319,2.1948,0.0,0.0,0.0,0.0,1.7095,1.785,1.7965,1.8562,0.0,1.8652,0.0,0.0,0.0,0.0,0.0,0.0,0.0,0.0,0.0,0.0,0.0,1.9181,1.9226,1.9041,1.926,1.8428,1.7468,0.0,1.6785,1.6078,1.4178,0.0,0.0,0.0,0.0,0.0,1.7145,1.9806,2.1362,2.0622,1.9941,1.8966,1.7567,1.561,1.4081,1.3142,1.1812,1.0981,1.0739,1.0058,0.917,0.0,0.0,0.0,0.0,0.0,0.0,0.0,0.0,0.0,0.0,0.0,0.0,0.0,0.0,0.0,0.0,0.0,0.0,0.0,0.0,0.0,0.0,0.0,0.0,0.0,0.0,0.0,0.0,1.7753,1.8563,1.8915,1.8041,1.7564,0.0,0.0,0.0,0.0,0.0,0.0,1.7166,1.8661,2.0299,2.1977,2.3541,2.503,2.6424,2.672,2.6877,2.6934,2.7189,2.7664,2.8274,2.7872,2.8197,2.8982,2.7682,2.694,2.6513,2.4977,2.3877,2.3034,2.1425,2.0737,2.0471,1.9111,1.9265,2.0198,2.0449,2.1124,2.18,2.1213,0.0,1.9478,1.7853,0.0,0.0,0.0,0.0,1.6428,1.7263,1.8096,1.8918,1.9706,1.9625,1.9434,1.9735,1.9402,1.8847,0.0,1.8283,1.7841,1.6099,0.0,0.0,0.0,0.0,1.8426,1.8295,2.0581,2.2038,2.1569,2.0614,1.9627,1.8739,1.6495,1.465,1.3521,1.2148,1.1162,1.0664,0.9876,0.9196,0.864,0.0,0.0,0.0,0.0,0.0,0.0,0.0,0.0,0.0,0.0,0.0,0.0,0.0,0.0,0.0,0.0,0.0,0.0,0.0,0.0,0.0,0.0,0.0,0.0,0.0,0.0,0.0,0.0,0.0,1.856,1.8758,0.0,0.0,0.0,0.0,1.8348,1.8813,1.9574,2.085,2.1807,2.2916,2.4292,2.5355,2.6621,2.8161,2.8691,2.8959,2.8953,2.877,2.8826,2.9044,2.9029,2.9369,3.0017,2.9947,2.9533,2.8702,2.5652,2.4025,2.3445,2.308,2.2706,2.2301,2.1782,2.1504,2.1406,2.1427,2.1766,2.2097,2.155,2.0533,1.9596,2.0071,1.824,0.0,0.0,1.6929,1.6493,1.8546,1.9312,1.9762,2.0696,2.092,2.0848,2.0673,2.0106,1.948,0.0,1.8564,1.8025,1.6843,0.0,1.6591,1.5164,1.7555,1.9329,1.8834,2.16,2.3286,2.2423,2.1781,2.0853,1.947,1.7604,1.5742,1.3982,1.3087,1.2052,1.0834,1.038,1.0031,0.9826,0.9418,0.0,0.0,0.0,0.0,0.0,0.0,0.0,0.0,0.0,0.0,0.0,0.0,0.0,0.0,0.0,0.0,0.0,0.0,0.0,0.0,0.0,0.0,0.0,0.0,0.0,0.0,0.0,0.0,1.9663,1.9419,0.0,2.0042,1.9078,1.8913,2.0178,2.0537,2.1026,2.181,2.2544,2.3834,2.5796,2.6672,2.7929,2.9636,2.9705,2.9737,2.9739,2.9536,2.9808,3.0505,3.0157,3.0456,3.1215,3.0314,2.9395,2.8458,2.6904,2.5711,2.4818,2.4559,2.4074,2.3495,2.3155,2.2888,2.268,2.2381,2.2498,2.2704,2.2242,2.1165,2.0051,2.0214,1.9647,1.8982,1.9227,1.9404,1.9718,2.0485,2.0619,2.0796,2.1797,2.1796,2.1637,2.1867,2.1358,2.0845,2.0795,1.9847,1.8995,1.8864,1.9304,1.9542,1.9118,2.0539,2.1529,2.1154,2.2514,2.3393,2.3086,2.2243,2.1319,2.0378,1.8143,1.6103,1.4511,1.3045,1.1891,1.1081,1.0338,0.9725,0.927,0.8681,0.8088,0.0,0.0,0.0,0.0,0.0,0.0,0.0,0.0,0.0,0.0,0.0,0.0,0.0,0.0,0.0,0.0,0.0,0.0,0.0,0.0,0.0,0.0,0.0,0.0,0.0,0.0,2.0268,2.0186,2.0063,2.0297,2.1,2.0414,2.039,2.1368,2.1819,2.2241,2.2621,2.3359,2.4669,2.667,2.7122,2.8405,3.0651,3.0158,3.016,3.0648,3.0496,3.0795,3.1435,3.1147,3.1384,3.2015,3.0909,2.9968,2.9117,2.8444,2.7434,2.6215,2.5178,2.4276,2.3514,2.2881,2.2503,2.2344,2.2472,2.2634,2.279,2.29,2.1901,2.0728,2.1041,2.0803,2.0459,2.0563,2.081,2.107,2.1325,2.1393,2.1588,2.2386,2.2252,2.2011,2.2164,2.1852,2.1514,2.1452,2.0419,1.9826,2.0639,2.0965,2.1311,2.1922,2.2846,2.3279,2.2757,2.3456,2.3754,2.3153,2.2454,2.1724,2.0958,1.8774,1.6743,1.5113,1.3567,1.2142,1.0915,1.0347,0.9696,0.8905,0.8546,0.7923,0.7023,0.0,0.0,0.0,0.0,0.0,0.0,0.0,0.0,0.0,0.0,0.0,0.0,0.0,0.0,0.0,0.0,0.0,0.0,0.0,0.0,0.0,0.0,0.0,1.7174,1.9003,2.0217,2.0001,2.0693,2.1114,2.0888,2.1085,2.1406,2.1865,2.2696,2.3299,2.3523,2.4406,2.5548,2.6974,2.6789,2.814,3.1153,3.0117,3.0283,3.1705,3.1671,3.1659,3.1681,3.1865,3.2084,3.2329,3.1881,3.1373,3.0814,3.0194,2.9045,2.7451,2.4954,2.3467,2.2521,2.1217,2.0543,2.0477,2.1769,2.2156,2.2274,2.3406,2.2696,2.1603,2.2653,2.1699,2.048,2.1472,2.0899,2.0183,2.0908,2.1533,2.2037,2.2364,2.2299,2.2028,2.1587,2.1617,2.1483,2.0804,2.032,2.0543,2.207,2.1717,2.1736,2.3238,2.4241,0.0,2.35,2.4401,2.4473,2.2751,2.2532,2.2161,2.1231,1.9546,1.7705,1.5796,1.4719,1.2985,1.0437,1.0556,1.0136,0.898,0.9174,0.8513,0.693,0.0,0.0,0.0,0.0,0.0,0.0,0.0,0.0,0.0,0.0,0.0,0.0,0.0,0.0,0.0,0.0,0.0,0.0,0.0,0.0,0.0,0.0,1.744,1.8051,1.9462,2.0708,2.142,2.1461,2.1593,2.1996,2.1838,2.1813,2.2103,2.2785,2.3491,2.4196,2.4798,2.5759,2.7169,2.7996,2.9168,3.0735,3.0987,3.1306,3.1683,3.0958,3.0866,3.1322,3.0846,3.0846,3.1248,3.1511,3.1061,3.0137,3.0528,2.9503,2.7577,2.6495,2.5517,2.462,2.3862,2.2993,2.2276,2.2547,2.2391,2.2207,2.286,2.2342,2.1595,2.2288,2.1154,1.9738,2.0209,1.9426,1.8483,1.8685,1.9939,2.1156,2.1244,2.2465,2.3631,2.3639,2.3819,2.3996,2.3971,2.3575,2.3228,2.3248,2.358,2.4131,2.4958,2.5294,0.0,2.5078,2.517,2.499,2.43,2.3499,2.2747,2.2108,2.026,1.859,1.7274,1.5807,1.4392,1.3074,1.2738,1.1876,1.0448,0.9311,0.8361,0.0,0.0,0.0,0.0,0.0,0.0,0.0,0.0,0.0,0.0,0.0,0.0,0.0,0.0,0.0,0.0,0.0,0.0,0.0,0.0,0.0,0.0,1.7147,1.7777,1.8816,1.9828,2.0754,2.1579,2.1651,2.1857,2.244,2.2285,2.2214,2.2308,2.3218,2.41,2.4919,2.5668,2.6594,2.773,2.8561,2.9609,3.0918,3.1163,3.1621,3.2322,3.1514,3.12,3.1368,3.1051,3.1034,0.0,3.1415,3.1213,3.0754,3.0896,2.9967,0.0,0.0,0.0,0.0,0.0,2.2668,2.2076,2.213,2.2036,2.2008,2.2485,2.2105,2.1568,2.2135,2.1293,2.0264,2.0757,2.0251,1.9597,1.9769,2.0762,2.1758,2.1854,2.2792,2.37,2.3843,2.4341,2.4742,2.483,2.5284,0.0,2.5058,2.4879,2.5024,2.5787,2.5844,2.5748,2.5674,2.5423,2.509,2.4603,2.3922,2.316,2.2369,2.0723,0.0,0.0,0.0,1.5273,1.398,1.3096,0.0,0.0,0.0,0.0,0.0,0.0,0.0,0.0,0.6901,0.683,0.0,0.0,0.0,0.0,0.0,0.0,0.0,0.0,0.0,0.0,0.0,0.0,0.0,0.0,0.0,0.0,1.7442,1.7919,1.9242,1.9897,2.0439,2.1072,2.1494,2.1957,2.2514,2.2609,2.2609,2.2609,2.3835,2.4871,2.5522,0.0,0.0,0.0,0.0,2.959,3.1171,3.094,3.1559,3.3073,3.2453,3.195,3.154,3.1657,3.1765,3.1801,3.1479,3.1599,3.1957,3.1257,3.0361,2.9228,2.7407,2.5595,2.3817,2.1969,2.1228,2.1144,2.1304,0.0,0.0,2.2182,2.1902,2.1527,2.2066,2.1634,2.1101,2.1886,2.1789,2.1528,2.19,2.2352,2.2746,2.2978,2.3041,2.3086,2.3191,2.4037,2.4755,2.4571,2.611,2.7323,2.7027,2.5847,2.5259,2.6166,2.6172,2.5995,2.5798,2.5569,2.5102,2.4373,0.0,0.0,2.2417,2.1101,1.9972,1.9211,1.7686,1.6009,1.4206,1.2936,1.1845,1.0968,1.1498,1.1206,1.0048,1.0765,1.0768,1.0121,0.8959,0.8805,0.0,0.0,0.0,0.0,0.0,0.0,0.0,0.0,0.0,0.0,0.0,0.0,0.0,0.0,0.0,1.7053,1.7773,1.8359,1.8386,1.8816,1.9666,2.115,2.1416,2.1868,2.2887,2.3179,2.331,2.331,2.439,2.5126,2.5269,2.6371,2.6939,2.6873,2.8277,2.9306,2.9863,3.0973,3.1785,3.2312,0.0,0.0,3.1004,3.0304,3.0238,3.0745,3.1356,3.1568,3.1465,3.1454,3.0443,2.8726,2.7194,2.5893,2.478,2.402,2.344,2.3004,2.2572,2.2387,2.2254,2.1758,2.1577,2.1611,2.1828,2.0651,0.0,2.0232,1.927,1.8033,1.8335,1.9658,2.0848,2.0706,2.2468,2.4258,2.447,2.5666,2.6672,2.6698,2.75,2.8043,2.7536,2.7223,2.7038,2.7083,2.7055,2.7016,2.6979,2.673,2.628,2.5555,2.4726,2.3903,2.3139,2.1813,2.0928,2.0758,1.9104,1.7755,1.6889,1.6121,1.5519,1.507,1.4407,1.3622,1.2733,1.2102,1.1559,1.1031,1.008,0.9816,0.0,0.0,0.0,0.0,0.0,0.0,0.0,0.0,0.0,0.0,0.0,1.7476,1.7752,0.0,1.7812,1.7638,1.8059,1.8388,1.8363,1.8636,1.9304,2.051,2.11,2.1837,2.2984,2.3331,2.3547,2.3646,2.4609,2.5298,2.5533,2.6629,2.72,2.7091,2.8889,2.9737,2.9542,3.139,3.2429,3.2698,3.1669,3.124,3.1268,3.0796,3.0769,3.1085,3.1783,3.2077,3.1997,3.1171,3.0013,2.8596,2.7139,2.5822,2.4703,2.4006,2.3374,2.2779,2.2243,2.2208,2.2311,2.1807,2.185,2.2107,2.2129,2.1328,2.0503,2.104,2.0387,1.9635,1.9918,2.0601,2.1288,2.162,2.2899,2.4268,2.5124,2.6215,2.717,2.7584,2.8066,2.8301,2.8043,2.7996,2.7817,2.7243,2.7165,2.7038,2.6779,2.653,2.6235,2.5988,2.4957,2.4079,2.3547,2.2152,2.1114,2.068,1.9717,1.8767,1.7932,1.7504,1.6879,1.5973,1.559,1.4908,1.3905,1.3395,1.2725,1.1886,1.1448,1.1102,0.0,0.0,0.0,0.0,0.0,0.0,0.0,0.0,1.9501,1.9609,1.9308,1.9135,1.9485,1.8921,1.8402,1.8444,1.8474,1.8502,1.8526,1.8797,1.9201,1.9762,2.0718,2.183,2.3113,2.3489,2.3812,2.4169,2.4946,2.5574,2.6009,2.6983,2.7581,2.7685,2.934,3.0084,2.9734,3.1685,3.287,3.3204,3.2496,3.2065,3.1856,3.1809,3.1763,3.1716,3.2211,3.2445,3.237,3.0871,2.9639,2.8614,2.7295,2.5855,2.4432,2.3547,2.2823,2.2186,2.173,2.1912,2.2267,2.1941,2.2161,2.2517,2.2494,2.2296,2.216,2.25,2.2437,2.2325,2.2669,2.2495,2.2472,2.3276,2.3705,2.4264,2.5504,2.649,2.7302,2.7951,2.8243,2.8395,2.8395,2.8395,2.8102,2.7241,2.7119,2.6956,2.6467,2.6094,2.5876,2.5871,2.4827,2.3909,2.3358,2.2139,2.1078,2.0329,2.0012,1.945,1.8537,1.8311,1.7548,1.6151,1.6286,1.5768,1.4585,1.4392,1.3768,1.2777,1.2636,1.2154,2.0243,2.0295,2.0809,2.0403,2.0556,2.0767,0.0,0.0,2.0247,1.9857,2.0009,2.0187,2.0114,2.0129,1.9881,1.9141,1.9292,1.9233,1.8359,1.8837,1.9358,1.9587,2.047,2.1738,2.356,2.3963,2.4544,2.5578,2.5936,2.622,2.6521,2.7053,2.7421,2.7605,2.8454,2.9301,3.0123,3.1311,3.228,3.2939,3.2614,3.2447,3.2389,3.2171,3.1927,3.1703,3.1957,3.1804,3.1347,3.0893,2.9843,2.8476,2.7955,2.6497,2.4577,2.3898,2.3285,2.2744,2.2346,2.2321,2.2376,2.1808,2.1904,2.2262,2.2384,2.2378,2.2483,2.3113,2.3061,2.2878,2.3222,2.3295,2.3318,2.3603,2.4408,2.5285,2.5911,2.7017,2.7974,2.8301,2.8371,2.8395,2.8395,2.8395,2.8186,2.7615,2.7534,2.7439,2.7213,2.6582,2.5868,2.5116,2.4163,2.3138,2.2018,2.1594,2.1253,2.0913,2.0381,1.9916,1.9543,1.9406,1.8796,1.7679,1.7386,1.6721,1.5633,1.4744,1.4122,1.3734,1.3073,1.2375,2.1663,2.1733,2.2064,0.0,2.1883,2.2181,2.1918,2.1919,2.1766,2.105,2.0849,2.0602,1.9963,1.9895,1.9779,0.0,1.9917,2.0168,1.9509,1.991,2.0328,2.0466,2.0926,2.179,2.3259,2.3648,2.4322,2.564,2.6311,2.6716,2.6836,2.753,2.8032,2.8222,2.8689,2.9286,3.003,3.0913,3.1641,3.2197,3.1932,3.196,3.2244,3.1827,3.1711,3.1867,3.1851,3.1617,3.1178,3.0342,2.9213,2.7988,2.7635,2.6315,2.4598,2.4212,2.3364,2.2451,2.2459,2.243,2.2347,2.2027,2.2289,2.2718,2.2596,2.2528,2.2563,2.3028,2.2664,2.2243,2.2656,2.2621,2.2664,2.3443,2.4426,2.5446,2.6367,2.7314,2.8139,2.8547,2.8511,2.8395,2.8395,2.8395,2.8145,2.7378,2.7581,2.7655,2.7129,2.6317,2.5225,2.3788,2.3157,2.2499,2.1598,2.1203,2.0947,2.0826,2.043,2.0105,1.9836,1.9773,1.9331,1.8445,1.772,1.6989,1.626,1.5213,1.442,1.3886,1.3588,1.3124,2.2768,0.0,0.0,2.2791,2.3186,2.3551,2.3084,2.3055,2.2896,2.207,2.156,2.1079,2.0381,2.0096,2.0052,2.0187,2.0744,2.1081,2.0822,2.1045,2.1225,2.1269,2.1242,2.1771,2.3161,2.3584,2.4412,2.5942,2.6701,2.7143,2.7273,2.7997,2.8524,2.8805,2.914,2.9485,2.9794,3.0582,3.1133,3.1417,3.122,3.13,3.1662,3.107,3.1058,3.1494,3.1213,3.0971,3.0704,2.9689,2.8582,2.75,2.7482,2.6432,2.4895,2.4789,2.3805,2.2505,2.2636,2.2586,2.245,2.2369,2.2571,2.2813,2.2662,2.2493,2.2401,2.2707,2.2284,2.1833,2.2181,2.214,2.2313,2.3453,2.4319,2.5274,2.6623,2.7331,2.7896,2.8468,2.8263,2.8014,2.8014,2.78,2.7393,2.671,2.6974,2.7049,2.6607,2.5611,2.4305,2.26,2.224,2.1903,2.1343,2.0857,2.0586,2.0586,2.03,2.0027,1.9822,1.9822,1.9502,1.8804,1.7823,1.7032,1.6486,1.5501,1.468,1.4022,1.4005,1.3755,0.0,0.0,2.4336,2.4243,2.4788,2.5046,2.3911,2.3564,2.3277,2.2532,2.2066,2.1792,2.1816,2.1417,2.1321,2.2082,2.2016,2.1905,2.2036,2.1897,2.1758,2.1693,2.1118,2.1526,0.0,2.421,2.5239,2.7107,2.7282,2.7478,2.7946,2.8252,2.8605,2.9082,2.9611,2.976,2.9508,3.0502,3.0915,3.0739,3.0655,3.0626,3.0614,2.9888,2.9814,3.0234,2.9776,2.9533,2.9441,2.9144,2.8216,2.7086,2.787,2.7152,2.5684,2.5875,2.489,2.3389,2.3032,2.2904,2.2855,2.2741,2.2471,2.2241,2.2372,2.2184,2.1959,2.2164,2.2203,2.2194,2.2209,2.2399,2.2811,2.3754,2.4211,2.4867,2.6527,2.697,2.7222,2.7889,2.7484,2.7027,2.7027,2.6292,2.5674,2.5659,2.5442,2.5375,2.5611,2.4429,2.3079,2.1872,2.1544,2.1311,2.1042,2.0578,2.0314,2.0314,1.9876,1.961,1.961,1.961,1.935,1.8804,1.7823,1.6947,1.6216,1.5456,1.4812,1.4285,1.4279,1.3997,2.3826,0.0,2.5338,2.5097,2.5393,2.55,2.4634,2.4044,2.3502,2.2814,2.2408,2.2041,2.1522,2.1582,2.1895,2.2538,2.2841,2.3169,2.356,2.3419,2.326,2.3303,2.285,0.0,0.0,0.0,0.0,2.6476,2.6759,2.7206,2.8004,2.8564,2.9172,2.9818,2.9703,2.984,3.0238,3.0079,2.997,2.9893,2.9702,2.9771,3.0068,2.9867,2.9635,2.9395,2.8961,2.8446,2.7914,2.7299,2.659,2.5895,2.6305,2.5786,2.4754,2.4709,2.4432,2.4033,2.3641,2.3015,2.2399,2.2637,2.2351,2.1908,2.1784,2.1573,2.1299,2.0972,2.0772,2.0715,2.0899,2.1267,2.1752,2.2327,2.3369,2.4275,2.4513,2.4986,2.5538,2.6279,2.5967,2.5747,2.6181,2.591,2.5372,2.4713,2.4843,2.4738,2.4033,2.3411,2.2576,2.1356,2.0902,2.0631,2.0532,2.0119,1.9754,1.9577,1.9594,1.9373,1.8843,1.8796,1.8719,1.8535,1.7068,1.6368,1.6458,1.4999,1.4211,1.4034,1.3849,1.3673,2.4489,2.5394,2.5958,2.5731,2.5856,2.5755,2.4796,2.4248,2.3754,2.3057,2.2754,2.2413,2.1767,2.1996,2.2537,2.3302,2.3693,2.4131,2.4712,2.4487,2.4248,2.4139,2.3751,2.4101,0.0,0.0,0.0,2.6354,2.656,2.7063,2.8144,2.8757,2.9409,3.008,2.9966,2.9988,3.0216,2.984,2.9329,2.867,2.8487,2.8537,2.877,2.8985,2.8805,2.8335,2.7907,2.7264,2.6467,2.6005,2.5412,2.4845,2.5253,2.4944,2.4256,2.404,2.4099,2.4207,2.3661,2.3142,2.2719,2.2796,2.2383,2.1819,2.1546,2.105,2.0474,2.0085,1.9745,1.9523,1.9771,2.0212,2.0703,2.127,2.2308,2.3136,2.3149,2.3528,2.4016,2.4565,2.4225,2.4036,2.4557,2.4405,2.3909,2.3028,2.3165,2.3098,2.2396,2.1816,2.1081,2.0048,1.9507,1.9232,1.9232,1.8781,1.8465,1.8388,1.8473,1.8295,1.7785,1.7761,1.7715,1.7614,1.6261,1.563,1.5782,1.4411,1.3666,1.348,1.3394,1.3278,2.5305,2.5905,2.6253,2.623,2.6196,2.5821,2.456,2.4259,2.4021,2.3305,2.3086,2.2933,0.0,0.0,2.3154,2.4324,2.4496,2.4712,2.5419,2.5113,2.4694,0.0,0.0,0.0,0.0,0.0,0.0,2.6809,0.0,2.7093,2.8256,2.8808,2.933,2.9863,3.0329,3.0238,2.9531,2.9737,2.8966,2.7255,2.7207,2.7112,2.7003,2.7373,2.741,2.7136,2.6634,2.5964,2.5192,2.5207,2.4662,2.3895,2.4683,2.4664,2.4164,2.391,2.3904,2.3933,2.317,2.3288,2.3671,2.3147,2.2527,2.1937,2.1675,2.0661,1.9602,1.9564,1.9126,1.872,1.8906,1.922,1.975,2.0581,2.1058,2.1532,2.2335,2.2538,2.2625,2.2828,2.234,2.1961,2.2217,2.1861,2.1345,2.0733,2.0504,2.0523,2.0775,1.9789,1.8772,1.8033,1.7553,1.7273,1.7273,1.6774,1.657,1.6835,1.6669,1.6558,1.6511,1.6511,1.6393,1.6119,1.5408,1.4799,1.4302,1.3748,1.3204,1.272,1.2945,1.2807,2.6229,2.673,2.7101,2.6563,2.6051,2.5645,2.5507,2.4938,2.4321,2.3989,2.3756,2.3448,0.0,0.0,0.0,2.4431,2.4402,0.0,2.5585,2.5485,0.0,2.5438,0.0,2.5189,2.6228,2.5674,0.0,0.0,2.661,2.6531,2.7028,2.8167,2.9049,2.9587,2.9908,3.0057,3.0011,2.9336,2.8699,2.8079,2.7536,2.7536,2.7998,2.7204,2.6803,2.6628,2.5758,2.477,2.3751,2.4106,2.3623,2.2685,2.324,2.3136,2.2673,2.2695,2.2864,2.3046,2.2933,2.3038,2.3147,2.282,2.2245,2.1642,2.1387,2.0538,1.9559,1.8946,1.8604,1.837,1.8213,1.8359,1.8646,1.9021,1.9718,2.0204,1.9878,2.0236,2.0697,2.0935,2.0657,2.0352,2.0255,1.9845,1.9557,1.957,1.8755,1.8481,1.9445,1.8997,1.8303,1.7545,1.7008,1.6704,1.6704,1.6264,1.6011,1.6082,1.6035,1.5829,1.5425,1.5402,1.5313,1.5088,1.4508,1.4232,1.4308,1.3403,1.2901,1.2775,1.2441,1.2224,2.6534,2.702,2.7396,2.6678,2.6311,2.6042,2.5761,2.507,2.4459,2.4308,2.4003,0.0,2.3522,2.3373,0.0,0.0,0.0,0.0,2.545,2.5616,2.5696,0.0,2.5604,0.0,2.6354,2.5853,2.5853,0.0,2.6404,2.649,2.7192,2.7975,2.8723,2.9481,2.9645,2.9726,2.9726,2.8603,2.777,2.7266,2.7173,2.7124,2.7071,2.6752,2.6502,2.6268,0.0,2.4034,2.3193,2.3208,2.2736,2.2098,2.2489,2.2373,2.2043,2.2147,2.2353,2.2579,2.2698,2.2761,2.2787,2.277,2.2348,2.1753,2.1461,2.0532,1.9414,1.8667,1.814,1.7786,1.7628,1.7781,1.8048,1.8265,1.8881,1.9271,1.8789,1.8966,1.9194,1.9026,1.8818,1.8603,1.8272,1.7987,1.7778,1.7731,1.7093,1.6741,1.6964,1.6875,1.653,1.5886,1.5341,1.5062,1.5181,1.483,1.4663,1.4789,1.4782,1.4669,1.4364,1.4334,1.422,1.3992,1.3697,1.3576,1.3648,1.2953,1.2565,1.2443,1.2029,1.1706,2.6644,2.7088,2.74,2.6715,2.6704,2.6603,2.5706,2.5143,2.4755,2.4596,0.0,2.4029,2.416,2.4316,2.4479,2.4687,0.0,2.5282,2.5124,2.5584,2.585,2.5624,2.5749,2.5948,2.6178,2.5759,2.5674,2.6217,2.6164,2.6593,2.7704,2.7838,2.8307,2.9234,2.9257,2.9146,2.8879,2.7736,2.6739,2.5932,2.6532,2.633,2.5441,2.6094,2.6209,2.5789,0.0,0.0,2.3039,2.2507,2.2072,2.1764,2.2117,2.2075,2.1853,2.2097,2.2246,2.2342,2.2498,2.2492,2.2492,2.282,2.2476,2.1871,2.1545,2.0467,1.9201,1.8567,1.7781,1.7174,1.7129,1.7251,1.7457,1.7737,1.8156,1.8458,1.8288,1.8195,1.7948,1.7185,1.6998,1.684,1.6416,1.6278,1.6075,1.5656,1.5561,1.5199,1.4196,1.4412,1.4418,1.3859,1.3383,1.3195,1.3418,1.3219,1.3152,1.3394,1.3418,1.3418,1.3418,1.3418,1.3298,1.305,1.3026,1.2934,1.2764,1.2443,1.2175,1.1927,1.1658,1.1308,2.7338,2.761,2.7748,2.7014,2.6704,2.6464,2.6076,2.6208,0.0,0.0,2.5445,2.5282,2.4783,2.4571,2.4431,2.424,2.5228,2.5696,2.4761,2.5501,2.6004,0.0,0.0,0.0,0.0,0.0,0.0,0.0,0.0,2.5874,2.6485,2.6939,2.743,2.7987,2.8009,2.7899,2.7701,2.7258,2.6868,2.6547,2.6447,2.6105,2.5567,2.5406,2.5082,2.4589,2.3923,0.0,2.2366,2.2326,2.175,2.0989,2.1687,2.1707,2.1424,2.2278,2.2343,2.2063,2.2623,2.2513,2.2141,2.2482,2.1871,2.0964,2.0683,1.9875,1.8948,1.838,1.7652,1.6989,1.6762,1.6257,1.5866,1.6133,1.6605,1.6958,1.6941,1.6911,1.6669,1.5883,1.5415,1.5142,1.5046,1.4843,1.4651,1.458,1.4382,1.3926,1.3087,1.3787,1.4082,1.3311,1.3171,1.3123,1.3171,1.2977,1.2861,1.291,1.291,1.291,1.291,1.291,1.291,1.2861,1.2638,1.2492,1.2467,1.198,1.1707,1.1658,1.1389,1.1017,2.751,2.7711,2.7838,2.7338,2.7001,2.6746,2.6472,0.0,0.0,0.0,2.5611,2.5273,2.5035,2.4524,0.0,2.3967,2.4633,2.4992,2.4553,2.5298,0.0,2.5433,0.0,0.0,0.0,0.0,0.0,0.0,0.0,2.5337,2.6155,2.6587,2.6962,2.7324,2.7335,2.7302,2.7183,2.6791,2.6246,2.5554,2.5813,2.5489,2.4668,2.4706,2.4531,2.4145,2.3373,0.0,2.2263,2.1879,2.1383,2.0888,2.1278,2.1345,2.1276,2.1985,2.2099,2.2013,2.249,2.2265,2.1823,2.1912,2.1392,2.0704,2.0507,1.9662,1.8695,1.8274,1.7685,1.7138,1.7005,1.6511,1.6157,1.6683,1.6887,1.6864,1.648,1.6511,1.6369,1.5557,1.5016,1.4664,1.452,1.4034,1.36,1.3359,1.3214,1.2869,1.2219,1.2705,1.2972,1.2565,1.2662,1.2735,1.2735,1.2783,1.2813,1.2813,1.2813,1.2813,1.2813,1.2662,1.2589,1.2589,1.2236,1.2087,1.22,1.1695,1.1506,1.1585,1.1211,1.0841,2.7406,2.766,2.782,2.7502,2.729,2.7105,2.6846,2.6419,0.0,0.0,2.5844,2.5391,2.5413,2.4772,2.4177,0.0,2.4334,2.4606,2.4508,2.5115,2.5466,0.0,2.5105,0.0,2.4967,0.0,0.0,0.0,0.0,0.0,2.6009,2.6276,2.6484,2.6698,2.6698,2.6698,2.6698,2.6238,2.5519,2.4594,2.512,2.4805,2.3818,2.4173,2.4172,2.3827,2.2973,0.0,0.0,2.1534,2.116,2.1039,2.1142,2.1217,2.1337,2.1804,2.2037,2.2123,2.2193,2.1969,2.1587,2.1302,2.092,2.0535,2.03,1.9453,1.8501,1.8116,1.759,1.7138,1.7138,1.684,1.6676,1.7317,1.7223,1.681,1.6244,1.6204,1.6062,1.532,1.4777,1.4352,1.4082,1.3431,1.2807,1.237,1.2273,1.2054,1.159,1.1712,1.1829,1.1829,1.2127,1.2322,1.2322,1.2516,1.2638,1.2638,1.2638,1.2638,1.2638,1.2419,1.2322,1.2322,1.184,1.1695,1.1861,1.1383,1.124,1.1444,1.1067,1.073,2.7097,2.7557,2.78,2.7339,2.7298,2.7316,2.7109,0.0,0.0,2.7277,2.7122,2.6807,2.6206,2.5882,2.5425,2.4577,0.0,2.5661,2.4634,2.5077,2.5431,2.5221,0.0,0.0,2.5137,2.4348,0.0,0.0,0.0,0.0,2.5601,2.5687,2.5687,2.574,2.574,2.574,2.574,2.5444,2.5158,2.4861,2.4687,2.432,2.3812,2.4021,2.3748,2.3104,2.3013,0.0,0.0,2.1545,2.1295,2.1212,2.1575,2.1662,2.1649,2.2279,2.2508,2.2382,2.1868,2.1716,2.1644,2.0833,2.0401,2.0054,1.9549,1.8989,1.8396,1.7892,1.7223,1.6652,1.6652,1.6457,1.6315,1.6629,1.6298,1.592,1.5849,1.5523,1.5077,1.4514,1.3968,1.3539,1.3268,1.2807,1.237,1.2078,1.1829,1.1565,1.1267,1.1272,1.1267,1.1267,1.1736,1.2054,1.2054,1.2054,1.2078,1.2078,1.2078,1.2078,1.2078,1.2054,1.2054,1.2054,1.1576,1.1358,1.1354,1.0894,1.0763,1.0972,1.0929,1.065,2.7074,2.7344,2.7421,2.7246,2.6787,2.6555,2.7189,0.0,2.7167,2.8061,2.7426,2.6602,2.6212,2.5284,2.445,2.4075,2.4525,2.486,2.466,2.4997,2.5209,2.5041,2.4711,0.0,0.0,0.0,0.0,0.0,0.0,0.0,2.5147,2.503,2.5009,2.5168,2.5295,2.5295,2.519,2.52,2.4946,2.4475,2.4368,2.4131,2.3807,2.3851,2.3566,2.3066,2.3033,0.0,0.0,2.141,2.1254,2.1052,2.1512,2.1935,2.2331,2.2357,2.247,2.2526,2.1828,2.1634,2.1558,2.085,2.0537,2.0331,1.9678,1.9109,1.862,1.8288,1.7861,1.7567,1.7846,1.7846,1.7582,1.6793,1.6652,1.6534,1.592,1.554,1.5088,1.4442,1.3871,1.337,1.2983,1.2638,1.2248,1.1829,1.1658,1.1438,1.0998,1.0949,1.0949,1.0949,1.1438,1.1756,1.1756,1.1902,1.2005,1.2005,1.2005,1.2005,1.2005,1.1834,1.1696,1.1572,1.1113,1.0889,1.0889,1.0563,1.0588,1.0891,1.0787,1.0579,2.661,2.6931,2.7171,2.7056,2.6622,2.6474,0.0,2.7231,2.7296,2.8609,2.7818,2.6752,2.6365,2.5224,2.4283,2.4104,2.4234,2.4447,2.4699,2.4649,2.4614,2.4755,0.0,2.4032,0.0,0.0,0.0,0.0,0.0,0.0,2.4562,2.4658,2.4828,2.5105,2.5158,2.5158,2.5105,2.5158,2.4924,2.4411,2.4261,2.4067,2.3786,2.3602,2.3219,2.2706,2.2869,0.0,0.0,2.1351,2.1359,2.0895,2.1678,2.2304,2.2744,2.2547,2.2547,2.2544,2.1901,2.1692,2.1607,2.0921,2.0699,2.0564,1.9891,1.9342,1.885,1.8574,1.8241,1.8087,1.8481,1.8527,1.8226,1.7263,1.7169,1.7044,1.6126,1.5771,1.5408,1.4675,1.4184,1.3678,1.3093,1.2662,1.22,1.1565,1.1414,1.1194,1.0728,1.0679,1.0679,1.0679,1.1096,1.1389,1.1463,1.1663,1.1756,1.1756,1.1756,1.1756,1.1756,1.1526,1.1332,1.1187,1.0743,1.0508,1.0508,1.0299,1.0385,1.0712,1.0579,1.0402,2.5492,2.6338,2.7096,2.6704,2.7057,2.7534,2.775,2.7747,2.7961,2.889,2.8494,2.7731,2.6854,2.624,2.5681,2.5077,2.4991,2.4952,2.4824,2.3939,2.3606,0.0,0.0,2.2888,2.4095,0.0,0.0,0.0,0.0,0.0,2.3797,2.469,2.5317,2.558,2.5338,2.5338,2.5591,2.5327,2.5094,2.4882,2.4433,2.4067,2.3776,2.3319,2.2599,0.0,0.0,0.0,0.0,2.1482,2.1672,2.0772,2.2285,2.2808,2.2737,2.2996,2.2835,2.2448,2.2026,2.1937,2.186,2.098,2.0699,2.0609,2.0065,1.9563,1.9104,1.8635,1.8125,1.7768,1.804,1.7908,1.7768,1.8017,1.7683,1.7091,1.6355,1.619,1.5977,1.5242,1.4873,1.4418,1.3637,1.2894,1.2127,1.1316,1.0978,1.0703,1.0437,1.0413,1.0413,1.0413,1.0659,1.0924,1.1169,1.1218,1.1218,1.1218,1.1218,1.1218,1.1218,1.1005,1.0901,1.0896,1.0513,1.0299,1.0299,1.0104,1.0113,1.0304,1.0299,1.0081,2.5024,2.599,2.6658,2.6378,2.6873,2.7522,2.7812,2.7704,2.7914,2.9114,2.8176,2.7041,2.6752,2.573,2.4897,2.4755,2.4614,2.4658,2.5091,0.0,0.0,2.4409,2.4086,2.3864,0.0,0.0,0.0,0.0,0.0,0.0,2.4282,2.4861,2.5242,2.5317,2.5422,2.5359,2.5126,2.5179,2.502,2.4615,2.4335,2.4163,2.4045,2.3406,2.2938,0.0,0.0,0.0,0.0,2.1592,2.1607,2.0563,2.2277,2.315,2.3343,2.3117,2.2945,2.2778,2.2368,2.2171,2.1995,2.1531,2.1163,2.0817,2.0314,1.9845,1.9373,1.8858,1.8843,1.8936,1.8643,1.8643,1.862,1.8203,1.7831,1.7457,1.7044,1.6692,1.6339,1.593,1.5224,1.4442,1.3637,1.3039,1.2346,1.134,1.112,1.0826,1.0216,0.9969,0.992,1.0117,1.0043,1.0167,1.0609,1.0998,1.112,1.0953,1.11,1.1194,1.1194,1.1137,1.1038,1.0896,1.0599,1.0464,1.0503,1.025,1.0232,1.0444,1.0388,1.0105,2.415,2.5519,2.6437,2.6243,2.6912,2.7714,2.8008,2.7996,2.8085,2.8729,2.7895,2.6889,2.642,2.5475,2.4732,2.4685,2.4549,2.4567,0.0,0.0,0.0,2.379,0.0,0.0,0.0,0.0,0.0,0.0,0.0,0.0,2.4764,2.5211,2.5464,2.5464,2.5443,2.5359,2.5168,2.5115,2.4946,2.4636,2.4411,2.4218,2.4024,2.358,2.3178,0.0,0.0,0.0,0.0,2.2186,2.2148,2.0947,2.28,2.356,2.3574,2.3324,2.3065,2.276,2.2593,2.2362,2.2052,2.1785,2.132,2.0803,2.0314,1.9822,1.9342,1.8827,1.885,1.8951,1.862,1.8573,1.8542,1.8203,1.7908,1.7581,1.7122,1.6817,1.6487,1.6126,1.5397,1.4664,1.4064,1.3377,1.2638,1.178,1.1389,1.0949,1.024,0.9821,0.9677,0.9821,0.9603,0.9628,1.0068,1.058,1.0826,1.0659,1.0806,1.0949,1.1047,1.0977,1.0927,1.0896,1.065,1.0566,1.0598,1.0436,1.0361,1.0377,1.0312,0.9942,0.0,2.4879,2.6354,2.6205,2.7061,2.802,2.8246,2.8422,0.0,2.7868,2.764,2.7178,2.5935,2.5433,2.5127,2.485,2.4753,2.4643,0.0,2.4022,0.0,0.0,0.0,0.0,0.0,0.0,0.0,0.0,0.0,0.0,2.5242,2.5665,2.5906,2.5927,2.5464,2.5338,2.5559,2.5126,2.4882,2.4839,2.4594,2.425,2.3819,2.3797,2.3299,0.0,0.0,0.0,0.0,2.2975,2.3042,2.1695,2.3589,2.3954,2.3438,2.3631,2.3188,2.253,2.2772,2.2552,2.2141,2.183,2.1262,2.0631,2.011,1.9631,1.9119,1.8635,1.8334,1.8156,1.8133,1.7931,1.7791,1.804,1.7885,1.7488,1.6847,1.6683,1.6511,1.6038,1.5529,1.507,1.4758,1.383,1.2977,1.2443,1.1707,1.1022,1.0511,0.9945,0.9603,0.9603,0.9331,0.9282,0.9529,1.0019,1.0364,1.0364,1.0364,1.0478,1.0759,1.061,1.0634,1.0896,1.0712,1.0617,1.0617,1.058,1.0431,1.018,1.0115,0.9648,2.2341,0.0,2.5414,2.5681,2.6693,2.7567,0.0,2.7557,2.7685,2.7453,0.0,2.6889,2.6015,2.5627,2.5301,2.4933,2.483,2.4837,2.4992,0.0,0.0,0.0,0.0,0.0,0.0,0.0,0.0,0.0,0.0,2.558,2.5728,2.5833,2.5958,2.6125,2.5728,2.5443,2.5306,2.5031,2.4722,2.4368,2.4304,2.4206,2.4088,2.3742,2.3537,0.0,0.0,0.0,2.1238,2.2083,2.2057,2.164,2.3125,2.363,2.3499,2.3708,2.3638,2.3472,2.3373,2.3264,2.3045,2.2274,2.1521,2.0893,2.06,2.005,1.9373,1.8682,1.8558,1.8596,1.845,1.821,1.8017,1.8087,1.773,1.745,1.7707,1.7426,1.7169,1.7254,1.6534,1.5676,1.4849,1.4148,1.3329,1.2273,1.1756,1.1316,1.0781,1.0068,0.9603,0.9603,0.9175,0.8924,0.8977,0.9476,0.9871,1.0068,1.0093,1.0249,1.0563,1.0537,1.0634,1.0896,1.0803,1.0757,1.0757,1.0381,1.0186,1.0119,0.9953,0.9428,2.186,2.3523,2.5087,2.5459,2.6427,2.7271,2.7313,0.0,0.0,0.0,0.0,2.6414,2.5443,2.5111,2.4944,2.4838,2.4914,0.0,0.0,0.0,0.0,0.0,0.0,0.0,0.0,0.0,0.0,0.0,0.0,2.5801,2.5895,2.5895,2.5948,2.6063,2.5749,2.5559,2.5528,2.52,2.4977,2.4839,2.4839,2.4775,2.4658,2.4508,2.4465,0.0,0.0,0.0,2.285,2.2611,2.2512,2.263,2.3491,2.3699,2.3503,2.3624,2.3711,2.3754,2.3428,2.3254,2.3057,2.2441,2.1754,2.1127,2.0812,2.0187,1.9473,1.882,1.8651,1.855,1.8063,1.7831,1.773,1.773,1.7434,1.7176,1.7209,1.6904,1.6558,1.6346,1.5872,1.5296,1.4634,1.4058,1.348,1.2783,1.217,1.1634,1.1218,1.0458,0.9969,0.9969,0.9501,0.9274,0.9517,0.9575,0.9603,0.9628,0.9767,0.9967,1.0179,1.0182,1.0255,1.0448,1.0501,1.048,1.0389,1.0195,0.9947,0.9652,0.9686,0.9167,2.1488,2.3285,2.4849,2.5253,2.6069,2.6854,2.7107,0.0,0.0,0.0,0.0,0.0,0.0,0.0,0.0,0.0,0.0,0.0,0.0,0.0,0.0,0.0,0.0,0.0,0.0,0.0,0.0,0.0,0.0,2.5916,2.5937,2.5927,2.5916,2.5937,2.5707,2.5728,2.5979,2.5475,2.5306,2.5538,2.5538,2.5422,2.52,2.5443,2.5401,2.5147,0.0,0.0,2.4445,2.3538,2.3376,2.3776,2.4088,2.3937,2.3537,2.3634,2.3742,2.3797,2.3276,2.2969,2.2759,2.2441,2.1932,2.1369,2.088,2.03,1.9648,1.9035,1.8658,1.8265,1.7543,1.7326,1.7302,1.7302,1.72,1.6949,1.6433,1.615,1.5754,1.5022,1.4831,1.4688,1.4298,1.3871,1.3515,1.337,1.2565,1.1902,1.1634,1.0924,1.0462,1.0413,0.9945,0.9821,1.024,0.987,0.9538,0.9341,0.9631,0.9849,0.9912,0.99,0.9909,0.9955,1.0121,1.0111,0.9953,0.9965,0.9656,0.9071,0.9312,0.884,2.1359,2.2665,2.3818,2.4488,2.5247,2.5634,2.4902,0.0,0.0,0.0,0.0,0.0,0.0,0.0,0.0,0.0,0.0,0.0,0.0,0.0,0.0,0.0,0.0,0.0,0.0,0.0,0.0,0.0,0.0,2.5958,2.6136,2.599,2.599,2.6146,2.5791,2.5864,2.6404,2.559,2.5221,2.5264,2.5264,2.5242,2.52,2.5242,2.5242,2.5147,0.0,2.3937,2.4423,2.3369,2.3172,2.359,2.4034,2.4024,2.3797,2.4196,2.4261,2.4045,2.3341,2.2969,2.2737,2.2296,2.1919,2.1584,2.1096,2.0758,2.0337,1.9394,1.8658,1.8087,1.7745,1.7481,1.7302,1.7302,1.7457,1.7457,1.6974,1.685,1.6574,1.5778,1.5445,1.501,1.4118,1.3884,1.3546,1.271,1.2248,1.1902,1.1634,1.11,1.0659,1.0408,1.0117,0.9871,0.9727,0.9701,0.9754,0.9942,1.0175,1.0341,1.0467,1.0311,1.0229,1.0229,1.0209,1.0181,1.0158,0.9601,0.9204,0.8933,0.8742,0.8333,2.1464,2.2739,2.3851,2.4841,2.5209,2.5181,2.466,0.0,0.0,0.0,0.0,0.0,0.0,0.0,0.0,0.0,0.0,0.0,0.0,0.0,0.0,0.0,0.0,0.0,0.0,0.0,0.0,0.0,0.0,0.0,2.5646,2.5816,2.5937,2.6021,2.5969,2.6063,2.6343,2.6198,2.6041,2.5904,2.6041,2.5926,2.557,2.5696,2.5675,2.5527,0.0,2.4378,2.4999,2.377,2.3662,2.425,2.4218,2.411,2.4067,2.439,2.4218,2.3829,2.3841,2.3472,2.2904,2.2583,2.2141,2.1597,2.1132,2.0542,1.9872,1.9265,1.8791,1.8319,1.7667,1.7317,1.7176,1.7263,1.7192,1.7129,1.7138,1.6739,1.6197,1.5676,1.5278,1.4729,1.3841,1.3673,1.3431,1.271,1.2589,1.254,1.2443,1.2311,1.1987,1.1342,1.1159,1.0832,1.0177,1.0268,1.0286,1.0158,1.0246,1.0386,1.0588,1.0406,1.0296,1.0296,1.0165,1.001,0.988,0.9421,0.897,0.8526,0.8444,0.7924,2.1572,2.2719,2.3725,2.4846,0.0,2.507,2.4785,0.0,0.0,0.0,0.0,0.0,0.0,0.0,0.0,0.0,0.0,0.0,0.0,0.0,0.0,0.0,0.0,0.0,0.0,0.0,0.0,0.0,0.0,0.0,2.5522,2.5854,2.6104,2.6198,2.6354,2.652,2.6665,2.6974,2.6983,2.6672,2.6818,2.6623,2.6125,2.6125,2.6053,2.5864,2.4932,2.4944,2.5517,2.4483,2.4398,2.485,2.4447,2.4174,2.4039,2.4092,2.3823,2.3474,2.3819,2.3577,2.3035,2.2662,2.222,2.1735,2.1069,2.0366,1.9683,1.9154,1.8988,1.8711,1.7563,1.7165,1.7113,1.7263,1.7075,1.6941,1.7239,1.6692,1.6038,1.5652,1.5255,1.4712,1.3925,1.3732,1.3509,1.305,1.2953,1.3001,1.3165,1.3257,1.3036,1.2338,1.2152,1.1708,1.0776,1.0889,1.0819,1.0412,1.0437,1.058,1.0857,1.0657,1.0528,1.0528,1.0337,1.0098,0.9837,0.9469,0.8976,0.8362,0.8265,0.77,2.1497,2.2099,2.2627,2.3525,0.0,0.0,2.4631,2.361,0.0,0.0,0.0,0.0,0.0,0.0,0.0,0.0,0.0,0.0,0.0,0.0,0.0,0.0,0.0,0.0,0.0,0.0,0.0,0.0,0.0,0.0,2.6389,2.6443,2.6652,2.7083,2.7124,2.7441,2.8059,2.7889,2.7606,2.7144,2.6983,2.6871,2.6809,2.6188,2.5916,2.5885,2.5611,2.5527,2.558,2.5506,2.5242,2.4861,2.4597,2.4113,2.35,2.3084,2.3041,2.3131,2.2485,2.263,2.2938,2.2065,2.2043,2.2123,2.0897,2.0704,2.0613,1.9354,1.9259,1.9175,1.7606,1.7252,1.7279,1.7302,1.7457,1.7558,1.7356,1.7232,1.6974,1.6285,1.5913,1.5493,1.4736,1.4424,1.4052,1.3541,1.2869,1.2705,1.3372,1.3039,1.2831,1.3004,1.2623,1.2001,1.1045,1.1167,1.118,1.0963,1.1121,1.1343,1.1612,1.137,1.1241,1.1241,1.1025,1.0809,1.0528,0.9878,0.9314,0.8845,0.821,0.7753,2.1954,2.3067,2.4046,2.4901,0.0,0.0,0.0,0.0,0.0,0.0,0.0,0.0,0.0,0.0,0.0,0.0,0.0,0.0,0.0,0.0,0.0,0.0,0.0,0.0,0.0,0.0,0.0,0.0,0.0,0.0,2.6496,2.6769,2.7021,2.7194,2.7328,2.751,2.7765,2.8111,2.8119,2.7825,2.7745,2.7482,2.7074,2.6828,2.6488,2.6084,2.6188,2.6063,2.5801,2.5927,2.5791,2.5442,2.4772,2.4008,2.3285,2.3123,2.3124,2.3155,2.287,2.2912,2.2982,2.2353,2.2176,2.2069,2.13,2.0784,2.0315,1.9681,1.9496,1.9173,1.7858,1.7408,1.7333,1.7504,1.7394,1.7441,1.8079,1.7629,1.7115,1.7131,1.641,1.5706,1.5432,1.5146,1.4804,1.4269,1.4203,1.4242,1.4354,1.4438,1.433,1.3844,1.2796,1.2076,1.1897,1.1663,1.1565,1.1618,1.1586,1.1645,1.1881,1.1795,1.1811,1.1977,1.1456,1.1133,1.1025,1.0359,0.9798,0.9323,0.8951,0.831,2.2191,2.3284,2.4214,0.0,0.0,0.0,0.0,0.0,0.0,0.0,0.0,0.0,0.0,0.0,0.0,0.0,0.0,0.0,0.0,0.0,0.0,0.0,0.0,0.0,0.0,0.0,0.0,0.0,0.0,0.0,0.0,2.7203,2.7481,2.7358,2.7711,2.7914,2.7914,2.8299,2.8459,2.8387,2.8199,2.7898,2.751,2.7307,2.6992,2.6612,2.6665,2.6561,2.6302,2.6302,2.6047,2.5581,2.4671,2.3837,2.3126,2.2861,2.2797,2.2826,2.2774,2.2873,2.2939,2.2483,2.2271,2.2091,2.1505,2.0895,2.0302,1.9885,1.9679,1.9308,1.8211,1.7676,1.7466,1.7651,1.7394,1.7388,1.8432,1.8026,1.7506,1.7626,1.7043,1.6405,1.606,1.5829,1.5525,1.5002,1.4842,1.4868,1.5082,1.5145,1.4934,1.437,1.3366,1.2699,1.2513,1.225,1.209,1.1995,1.1952,1.1967,1.2123,1.2188,1.231,1.2491,1.195,1.165,1.165,1.0895,1.0316,0.9903,0.9498,0.8819,2.2122,2.2451,2.253,0.0,0.0,0.0,0.0,0.0,0.0,0.0,0.0,0.0,0.0,0.0,0.0,0.0,0.0,0.0,0.0,0.0,0.0,0.0,0.0,0.0,0.0,0.0,0.0,0.0,0.0,0.0,0.0,2.7814,2.804,2.7702,2.8406,2.8791,2.8791,2.8598,2.861,2.8816,2.8203,2.8022,2.8179,2.751,2.7307,2.7482,2.7085,2.7024,2.7165,2.6693,2.6002,2.512,2.426,2.3589,2.2993,2.2137,2.1943,2.2067,2.1869,2.2249,2.2733,2.2328,2.2284,2.2246,2.1451,2.1115,2.0819,1.9945,1.9805,1.9669,1.8665,1.8064,1.7715,1.7721,1.7504,1.7493,1.8149,1.8407,1.8326,1.7712,1.7873,1.7733,1.6604,1.6403,1.6213,1.5693,1.4536,1.417,1.5443,1.4773,1.4282,1.4494,1.4442,1.3949,1.2811,1.2896,1.2732,1.2065,1.2262,1.2406,1.2406,1.2598,1.2705,1.2705,1.2491,1.2406,1.2406,1.1456,1.0874,1.0571,0.9711,0.9174,2.1532,2.2499,0.0,0.0,0.0,0.0,0.0,0.0,0.0,0.0,0.0,0.0,0.0,0.0,0.0,0.0,0.0,0.0,0.0,0.0,0.0,0.0,0.0,0.0,0.0,0.0,0.0,0.0,0.0,0.0,0.0,2.8295,2.8179,2.7721,2.8293,2.8578,2.8578,2.904,2.9415,2.9708,2.9293,2.8778,2.8167,2.7664,2.7429,2.7502,2.7566,2.7452,2.7185,2.6901,2.6341,2.5639,2.5051,2.4225,2.3335,2.2878,2.2444,2.2086,2.2027,2.2069,2.2182,2.2349,2.2351,2.2181,2.1749,2.1567,2.1306,2.0439,2.0193,1.9951,1.8935,1.8719,1.865,1.828,1.8133,1.8226,1.8799,1.8375,1.7864,1.7885,1.7476,1.7101,1.7106,1.6958,1.6691,1.6349,1.5807,1.5461,1.5454,1.4928,1.4752,1.5295,1.5062,1.4769,1.4426,1.3836,1.3498,1.347,1.337,1.3045,1.2427,1.2598,1.2705,1.2705,1.2491,1.2406,1.2406,1.1607,1.1111,1.0874,1.0272,0.9711,2.1496,0.0,0.0,0.0,0.0,0.0,0.0,0.0,0.0,0.0,0.0,0.0,0.0,0.0,0.0,0.0,0.0,0.0,0.0,0.0,0.0,0.0,0.0,0.0,0.0,0.0,0.0,0.0,0.0,0.0,0.0,2.8469,2.8433,2.8022,2.8409,2.8686,2.8823,2.898,2.9156,2.9345,2.9018,2.8686,2.8299,2.8039,2.7886,2.7918,2.807,2.7817,2.7307,2.7188,2.6771,2.6132,2.5647,2.4943,2.4109,2.3574,2.3007,2.2449,2.2098,2.1978,2.2006,2.2286,2.2298,2.2207,2.22,2.2036,2.1708,2.1006,2.0695,2.0339,1.9313,1.9159,1.9123,1.8542,1.8473,1.8649,1.8949,1.8512,1.8039,1.7983,1.7624,1.7342,1.7387,1.7168,1.6839,1.6467,1.6118,1.5593,1.4818,1.4873,1.5054,1.5276,1.5325,1.5166,1.4741,1.4258,1.4047,1.4209,1.3899,1.3625,1.3478,1.3485,1.3485,1.3485,1.3109,1.2875,1.279,1.1983,1.1375,1.0982,1.0641,1.0185,2.1674,0.0,0.0,0.0,0.0,0.0,0.0,0.0,0.0,0.0,0.0,0.0,0.0,0.0,0.0,0.0,0.0,0.0,0.0,0.0,0.0,0.0,0.0,0.0,0.0,0.0,0.0,0.0,0.0,0.0,0.0,2.845,2.8673,2.8418,2.868,2.8967,2.922,2.8626,2.8322,2.8342,2.8078,2.8166,2.8563,2.8514,2.851,2.853,2.853,2.8143,2.7513,2.76,2.7284,2.6705,2.6338,2.5905,2.5367,2.4368,2.3659,2.306,2.2135,2.1943,2.2098,2.22,2.2285,2.2407,2.2643,2.251,2.2122,2.148,2.1186,2.0805,1.9753,1.949,1.9321,1.8732,1.8703,1.8814,1.8836,1.877,1.8545,1.8027,1.8052,1.799,1.7456,1.7114,1.6726,1.6174,1.5652,1.4971,1.393,1.4692,1.518,1.4803,1.5295,1.5274,1.4308,1.4308,1.4371,1.4441,1.4048,1.423,1.5116,1.4894,1.4734,1.4734,1.4131,1.3695,1.3398,1.2509,1.1709,1.1025,1.0792,1.0576,0.0,2.1687,0.0,0.0,0.0,0.0,0.0,0.0,0.0,0.0,0.0,0.0,0.0,0.0,0.0,0.0,0.0,0.0,0.0,0.0,0.0,0.0,0.0,0.0,0.0,0.0,0.0,0.0,0.0,0.0,2.9044,2.8755,2.8357,2.789,2.8636,2.8916,2.8679,2.9088,2.9348,0.0,2.9143,2.9042,2.9112,2.8703,2.8578,2.8744,2.8744,2.8337,2.7706,2.8436,2.843,2.7958,2.8279,2.8083,2.7459,2.6058,2.4823,2.3708,2.2467,2.1992,2.2008,2.2338,2.292,2.3348,2.2391,2.2714,2.3055,2.1209,2.0996,2.1136,2.0324,2.0104,2.0076,1.9925,1.9399,1.9146,1.9813,1.8917,1.8021,1.8037,1.7509,1.7069,1.7155,1.7096,1.6838,1.6198,1.5395,1.4802,1.4664,1.4759,1.4941,1.5159,1.5291,1.5352,1.5279,1.4492,1.4227,1.4751,1.4808,1.504,1.5547,1.5207,1.5012,1.5012,1.4873,1.4328,1.3398,1.2839,1.2106,1.1241,1.0874,1.0663,0.0,0.0,0.0,0.0,0.0,0.0,0.0,0.0,0.0,0.0,0.0,0.0,0.0,0.0,0.0,0.0,0.0,0.0,0.0,0.0,0.0,0.0,0.0,0.0,0.0,0.0,0.0,0.0,0.0,2.9755,2.9542,2.9438,2.9321,2.9179,2.9768,3.0126,3.0191,3.0373,3.0459,3.0458,3.0361,3.0262,3.017,2.9123,2.8657,2.8657,2.8657,2.8441,2.8133,2.8714,2.8836,2.8707,2.91,2.8948,2.8365,2.7012,2.5954,2.4992,2.3591,2.2978,2.2882,2.3321,2.3612,2.3698,2.3123,2.333,2.3389,2.1744,2.1558,2.1555,2.0143,1.9796,1.9796,1.9705,1.9553,1.953,1.9942,1.9237,1.8496,1.8449,1.7985,1.766,1.7784,1.7409,1.6763,1.5782,1.5339,1.4932,1.4388,1.463,1.4734,1.4468,1.487,1.5115,1.5023,1.448,1.4441,1.511,1.4985,1.5195,1.5823,1.5797,1.5794,1.5871,1.5684,1.5019,1.3878,1.3307,1.2513,1.1478,1.1043,1.0692,0.0,0.0,0.0,0.0,0.0,0.0,0.0,0.0,0.0,0.0,0.0,0.0,0.0,0.0,0.0,0.0,0.0,0.0,0.0,0.0,0.0,0.0,0.0,0.0,0.0,0.0,0.0,0.0,0.0,3.0374,2.9947,3.026,3.0535,3.0709,3.1162,3.1535,3.186,3.1495,3.1274,3.1185,3.1381,3.1431,3.1336,2.998,2.9152,2.8835,2.8895,2.8794,2.8642,2.9023,2.9201,2.9282,2.9566,2.9555,2.9231,2.7952,2.7156,2.6498,2.4975,2.4213,2.3996,2.4407,2.4329,2.4053,2.4086,2.3979,2.3624,2.2493,2.2279,2.1963,2.0019,1.9525,1.9495,1.9354,1.9679,2.0001,1.9807,1.9512,1.9209,1.8922,1.8696,1.8556,1.8494,1.7688,1.6668,1.5513,1.5496,1.5205,1.4134,1.4636,1.4766,1.3869,1.4443,1.4761,1.4486,1.4311,1.4505,1.5207,1.493,1.508,1.5827,1.6279,1.6521,1.6607,1.6332,1.5622,1.4461,1.3836,1.2896,1.1687,1.1174,1.0648,0.0,0.0,2.6302,0.0,0.0,0.0,0.0,0.0,0.0,0.0,0.0,0.0,0.0,0.0,0.0,0.0,0.0,0.0,0.0,0.0,0.0,0.0,0.0,0.0,0.0,0.0,0.0,0.0,3.2015,3.1368,3.0861,3.0996,3.0859,3.0375,3.1521,3.1874,3.1304,3.115,3.1079,3.1122,3.1483,3.1825,3.2141,3.1742,3.105,3.0145,3.0457,3.0023,2.9183,3.0245,3.0356,2.9882,3.0599,3.1196,3.1448,2.9656,2.8598,2.7802,2.6028,2.4973,2.4441,2.469,2.507,2.5283,2.4371,2.4312,2.4264,2.2785,2.2382,2.2155,2.1108,2.0673,2.0527,2.0546,2.0581,2.0513,2.0189,1.9649,1.9196,1.9152,1.8755,1.8351,1.8108,1.7384,1.6727,1.6365,1.5905,1.5498,1.5199,1.5374,1.5362,1.4936,1.4595,1.449,1.4723,1.3943,1.3772,1.4565,1.4839,1.5069,1.5297,1.6063,1.6401,1.6183,1.6471,1.5961,1.465,1.423,1.3203,1.1687,1.1048,1.0485,2.3002,2.4749,2.6707,0.0,3.0908,0.0,0.0,0.0,0.0,0.0,0.0,0.0,0.0,0.0,0.0,0.0,0.0,0.0,0.0,0.0,0.0,0.0,0.0,0.0,0.0,0.0,0.0,0.0,3.2013,3.141,3.1185,3.0685,3.0456,3.0524,3.1607,3.1832,3.1097,3.1778,3.1913,3.1491,3.1655,3.2077,3.2698,3.2794,3.2155,3.0957,3.1044,3.0727,3.0183,3.073,3.0841,3.0726,3.1074,3.1187,3.1015,2.9931,2.9041,2.8255,2.7192,2.6477,2.6021,2.6156,2.6138,2.5876,2.4971,2.4589,2.4186,2.3039,2.2734,2.2552,2.1659,2.1352,2.1263,2.1303,2.1204,2.1035,2.0869,2.0249,1.9589,1.9029,1.8645,1.834,1.8193,1.764,1.7149,1.7022,1.6322,1.5678,1.5274,1.5026,1.4704,1.425,1.4252,1.4362,1.4517,1.4417,1.4519,1.4874,1.4914,1.4923,1.4865,1.5351,1.5493,1.5252,1.6214,1.6113,1.4908,1.4964,1.4003,1.2071,1.1746,1.0909,2.4246,2.5431,2.6444,2.9228,3.0469,3.1146,0.0,0.0,0.0,0.0,0.0,0.0,0.0,0.0,0.0,0.0,0.0,0.0,0.0,0.0,0.0,0.0,0.0,0.0,0.0,0.0,0.0,0.0,3.1924,3.136,3.1066,3.0475,3.0298,3.061,3.1526,3.171,3.106,3.2029,3.217,3.1465,3.1736,3.2191,3.2772,3.3189,3.2711,3.1586,3.1522,3.1258,3.0834,3.0684,3.0695,3.0795,3.0784,3.0706,3.0514,3.0063,2.9475,2.8828,2.834,2.7703,2.7154,2.7229,2.6659,2.5854,2.5357,2.472,2.3989,2.3335,2.3113,2.2897,2.2096,2.1878,2.1878,2.1885,2.18,2.165,2.1316,2.0662,1.9906,1.9074,1.8784,1.8592,1.8343,1.7939,1.7552,1.7315,1.6686,1.597,1.5271,1.4846,1.4343,1.3697,1.3994,1.4256,1.4302,1.4715,1.5008,1.5115,1.4927,1.4778,1.4659,1.4783,1.4813,1.4709,1.5826,1.5982,1.5072,1.5316,1.4487,1.2679,1.2327,1.1321,2.3207,2.4311,2.5419,2.7731,0.0,0.0,0.0,0.0,0.0,0.0,0.0,0.0,0.0,0.0,0.0,0.0,0.0,0.0,0.0,0.0,0.0,0.0,0.0,0.0,0.0,0.0,0.0,0.0,3.2168,3.1571,3.0417,3.0851,3.0908,3.0422,3.1335,3.1603,3.118,3.126,3.1049,3.0586,3.1601,3.2123,3.2165,3.2762,3.2667,3.2072,3.2255,3.1718,3.0672,3.0077,2.9671,2.94,2.9397,3.0072,3.0998,3.0617,3.0275,2.9941,2.9335,2.8207,2.7024,2.7099,2.6141,2.5003,2.5238,2.4646,2.3879,2.3641,2.3427,2.315,2.2534,2.2365,2.2354,2.236,2.2494,2.235,2.1318,2.0518,1.9897,1.9533,1.9461,1.9206,1.8434,1.8125,1.7738,1.7026,1.6882,1.6492,1.5511,1.5411,1.5051,1.4074,1.4057,1.4165,1.4292,1.4328,1.4507,1.4882,1.4739,1.4665,1.4783,1.4796,1.4865,1.4988,1.5432,1.5436,1.4994,1.4765,1.4236,1.3424,1.2328,1.1506,2.3278,2.371,0.0,2.6414,2.8085,2.9349,0.0,0.0,0.0,0.0,0.0,0.0,0.0,0.0,0.0,0.0,0.0,0.0,0.0,0.0,0.0,0.0,0.0,0.0,0.0,0.0,0.0,0.0,0.0,3.0581,3.0179,2.9561,2.9284,2.9439,2.9885,3.0185,3.0298,2.9654,2.9482,2.9808,3.0708,3.1326,3.1674,3.2364,3.2497,3.2155,3.1817,3.1365,3.0818,3.06,3.0416,3.0275,3.0492,3.0612,3.0656,3.0691,3.0219,2.9542,2.9299,2.8593,2.779,2.7508,2.6718,2.5827,2.5577,2.4937,2.4236,2.4043,2.3934,2.3806,2.3446,2.3464,2.3459,2.3117,2.2876,2.2436,2.1502,2.082,2.0125,1.9218,1.878,1.8449,1.8165,1.7438,1.6919,1.6964,1.6401,1.5914,1.5681,1.4932,1.4225,1.373,1.3918,1.4021,1.3789,1.4687,1.5213,1.5106,1.5026,1.4886,1.4678,1.4595,1.4576,1.4609,1.497,1.5154,1.5181,1.5608,1.4923,1.3247,1.309,1.2247,2.234,2.2742,0.0,0.0,0.0,2.798,2.9572,0.0,0.0,0.0,0.0,0.0,0.0,0.0,0.0,0.0,0.0,0.0,0.0,0.0,0.0,0.0,0.0,0.0,0.0,0.0,0.0,0.0,0.0,0.0,3.0032,2.9087,2.8598,2.8635,2.8859,2.9124,2.9384,2.8731,2.8649,2.914,2.9818,3.0385,3.0859,3.1645,3.1908,3.1741,3.1386,3.103,3.0646,3.0504,3.0391,3.0391,3.0685,3.069,3.052,3.0429,2.9955,2.926,2.8799,2.8279,2.7807,2.743,2.6738,2.6012,2.5695,2.5129,2.4532,2.4261,2.42,2.4182,2.4043,2.4109,2.4054,2.3496,2.3048,2.2496,2.1478,2.0929,2.0301,1.9187,1.864,1.8256,1.7854,1.7178,1.6704,1.6856,1.6508,1.6075,1.5654,1.5107,1.4465,1.3742,1.4078,1.4266,1.398,1.4901,1.5434,1.5319,1.524,1.5151,1.5008,1.4784,1.4677,1.4677,1.4947,1.5218,1.5474,1.5941,1.5253,1.3504,1.3596,1.269,0.0,0.0,0.0,0.0,0.0,0.0,2.977,0.0,3.004,0.0,0.0,0.0,0.0,0.0,0.0,0.0,0.0,0.0,0.0,0.0,0.0,0.0,0.0,0.0,0.0,0.0,0.0,0.0,3.2195,3.1413,2.986,2.9574,2.9035,2.8109,2.8422,2.8571,2.8587,2.8603,2.8619,2.8633,2.9008,2.9361,2.9706,3.056,3.0933,3.0878,3.1008,3.0741,3.0185,2.9726,2.9521,2.9538,2.9765,3.0267,3.0734,2.9915,2.9537,2.9231,2.7959,2.7278,2.6955,2.6752,2.6105,2.544,2.5566,2.5193,2.4665,2.4334,2.4236,2.4207,2.4195,2.4177,2.402,2.3408,2.3029,2.2497,2.1225,2.0789,2.0383,1.9467,1.9175,1.8697,1.7579,1.7356,1.7167,1.6639,1.7162,1.7036,1.5411,1.5991,1.5885,1.4188,1.4527,1.4885,1.4867,1.4892,1.5078,1.547,1.5311,1.54,1.578,1.5409,1.5204,1.5204,1.5408,1.5603,1.578,1.5603,1.5079,1.4306,1.3737,1.2751,2.2009,0.0,0.0,0.0,0.0,0.0,0.0,0.0,0.0,0.0,0.0,0.0,0.0,0.0,0.0,0.0,0.0,0.0,0.0,0.0,0.0,0.0,0.0,0.0,0.0,0.0,0.0,0.0,3.189,3.1216,2.967,2.8758,2.8146,2.7901,2.797,2.8151,2.8382,2.8766,2.9035,2.9178,2.9056,2.9073,2.9275,2.9474,2.9944,3.06,3.0326,3.047,3.0845,3.0661,3.0367,3.009,3.1026,3.1408,3.1347,3.0549,3.0013,2.9479,2.8121,2.7352,2.6902,2.637,2.6052,2.586,2.5652,2.548,2.5294,2.5064,2.4933,2.4737,2.4178,2.3614,2.3012,2.2297,2.1759,2.1118,2.0178,1.9752,1.9473,1.9208,1.858,1.7859,1.7165,1.635,1.5805,1.5792,1.5612,1.5407,1.5227,1.4949,1.4548,1.3931,1.423,1.431,1.392,1.4633,1.5098,1.5072,1.5293,1.5524,1.578,1.5409,1.5204,1.5204,1.5541,1.5665,1.5585,1.5533,1.5237,1.4706,1.3587,1.2856,2.2639,0.0,0.0,0.0,0.0,0.0,0.0,2.7137,0.0,0.0,0.0,0.0,0.0,0.0,0.0,0.0,0.0,0.0,0.0,0.0,0.0,0.0,0.0,0.0,0.0,3.2657,3.276,3.3119,3.3052,3.2237,3.0536,2.914,2.8319,2.8175,2.7991,2.8088,2.8498,2.896,2.9322,2.9559,2.9275,2.9317,2.9639,2.957,2.9983,3.0735,3.0496,3.0544,3.0786,3.096,3.0943,3.0886,3.1791,3.2135,3.1928,3.0669,2.9882,2.9186,2.7527,2.6733,2.6384,2.59,2.5789,2.5796,2.5704,2.5601,2.544,2.5269,2.5085,2.4793,2.416,2.3479,2.2707,2.1857,2.1076,2.0324,1.9592,1.9082,1.8791,1.8841,1.8158,1.7449,1.7088,1.6272,1.5671,1.5689,1.5554,1.5343,1.5112,1.5036,1.4832,1.4312,1.442,1.4428,1.4111,1.4489,1.475,1.4768,1.4991,1.524,1.5533,1.5249,1.5107,1.5204,1.5427,1.5453,1.5258,1.5586,1.5409,1.475,1.3742,1.3277,2.27,2.2528,0.0,0.0,0.0,0.0,2.6624,2.6609,2.6628,0.0,0.0,0.0,0.0,0.0,0.0,0.0,0.0,0.0,0.0,0.0,0.0,0.0,0.0,0.0,3.3327,3.3451,3.3863,3.4822,3.4432,3.3441,3.1794,3.0051,2.8966,2.8696,2.8299,2.8352,2.8901,2.928,2.9624,2.9933,2.9738,2.9955,3.0504,3.0435,3.0699,3.1176,3.1105,3.0823,3.0433,3.0866,3.1203,3.1484,3.212,3.2425,3.2284,3.0603,2.954,2.8672,2.6744,2.5951,2.5758,2.5454,2.5415,2.5529,2.5688,2.5518,2.5281,2.5153,2.4843,2.4473,2.4057,2.3463,2.2716,2.1688,2.0713,1.9847,1.9241,1.8647,1.8286,1.8414,1.7845,1.7304,1.7166,1.6621,1.6148,1.5961,1.6235,1.606,1.5033,1.5664,1.5869,1.4992,1.4921,1.4921,1.4867,1.4418,1.4256,1.4551,1.4587,1.4776,1.5143,1.4974,1.4965,1.5161,1.5267,1.5232,1.5063,1.5753,1.5603,1.4659,1.4176,1.4024,2.3177,2.2962,2.3114,2.3822,0.0,0.0,2.5399,2.5137,2.5309,0.0,0.0,0.0,0.0,0.0,0.0,0.0,0.0,0.0,0.0,0.0,0.0,0.0,0.0,0.0,3.2342,3.2513,3.2717,3.2925,3.1931,3.1269,3.1169,2.9348,2.8404,2.86,2.8644,2.8949,2.9607,3.0207,3.0599,3.0763,3.0677,3.0805,3.1112,3.1063,3.1288,3.1713,3.1165,3.0969,3.1014,3.0852,3.0561,3.0376,3.172,3.2063,3.1741,3.1263,3.0322,2.9102,2.7684,2.6861,2.6272,2.5375,2.5554,2.6005,2.5419,2.5265,2.5286,2.5272,2.4522,2.3709,2.3618,2.2856,2.1835,2.066,1.9918,1.9312,1.8772,1.82,1.7869,1.8059,1.7495,1.6934,1.6751,1.6123,1.5646,1.5598,1.5539,1.5336,1.4943,1.5343,1.5461,1.4945,1.5044,1.5008,1.4687,1.4461,1.4353,1.4364,1.4507,1.4705,1.4939,1.4776,1.475,1.4956,1.5693,1.607,1.6026,1.6017,1.57,1.508,1.4991,1.5418,2.3691,2.3294,2.3278,2.3321,0.0,0.0,0.0,2.4293,2.4539,2.6067,2.5877,0.0,0.0,0.0,0.0,0.0,0.0,0.0,0.0,0.0,0.0,0.0,0.0,0.0,3.2552,3.2361,3.2479,3.3153,3.2393,3.1844,3.1696,3.0491,2.9664,2.9357,2.9147,2.9421,3.0192,3.0655,3.1247,3.1942,3.18,3.1922,3.2231,3.2007,3.2043,3.2281,3.1948,3.1637,3.1331,3.1093,3.0486,2.9824,3.1176,3.1692,3.1585,3.0575,2.9761,2.8936,2.7358,2.6482,2.5909,2.5071,2.5066,2.5327,2.4953,2.4877,2.4926,2.5019,2.4468,2.3759,2.3355,2.2701,2.1799,2.0428,1.9699,1.9131,1.8522,1.8185,1.7971,1.7879,1.7623,1.7382,1.7174,1.6612,1.6167,1.6053,1.5824,1.5471,1.4955,1.5151,1.5195,1.4792,1.4838,1.4812,1.4623,1.4389,1.4191,1.4054,1.4245,1.4346,1.4346,1.4443,1.4731,1.5178,1.6114,1.6603,1.6603,1.6777,1.6611,1.6193,1.5982,1.6355,0.0,0.0,0.0,0.0,0.0,2.3769,0.0,0.0,0.0,2.459,0.0,0.0,0.0,0.0,0.0,0.0,0.0,0.0,0.0,0.0,0.0,0.0,0.0,0.0,0.0,3.1697,3.195,3.3361,3.2826,3.2287,3.1917,3.136,3.0745,3.0088,2.9856,3.0134,3.0965,3.1397,3.2164,3.324,3.3085,3.3214,3.3535,3.3227,3.3039,3.3007,3.2962,3.2415,3.1539,3.1342,3.0569,2.9598,3.0632,3.1149,3.1151,2.9727,2.9007,2.8539,2.6895,2.6063,2.5604,2.4974,2.4679,2.4588,2.4577,2.4463,2.4379,2.4651,2.4284,2.3685,2.3164,2.2593,2.1781,2.0451,1.9718,1.9125,1.8522,1.8405,1.8303,1.7961,1.8073,1.8117,1.7801,1.7314,1.6882,1.6682,1.6333,1.5842,1.5107,1.5249,1.524,1.482,1.4874,1.4909,1.4838,1.4507,1.4227,1.4018,1.4137,1.4111,1.3964,1.4443,1.5044,1.578,1.6664,1.714,1.7207,1.7816,1.7845,1.7343,1.7071,1.7308,0.0,0.0,0.0,0.0,2.5239,0.0,0.0,0.0,2.3011,2.3066,0.0,0.0,0.0,0.0,0.0,0.0,0.0,0.0,0.0,0.0,0.0,0.0,0.0,0.0,0.0,2.8881,2.9747,3.1386,3.015,2.9539,3.0069,2.9694,2.959,2.9909,3.0832,3.1649,3.2285,3.3323,3.4027,3.4419,3.4502,3.4641,3.4795,3.4808,3.4564,3.4113,3.3929,3.3051,3.1733,3.1309,3.048,2.9561,3.0175,3.0108,2.9689,2.9833,2.9207,2.8174,2.7418,2.6863,2.6355,2.5632,2.5188,2.4892,2.4603,2.413,2.3803,2.43,2.3468,2.2539,2.3046,2.2134,2.0939,2.04,1.9779,1.9202,1.8825,1.8741,1.8724,1.8691,1.8841,1.8758,1.8076,1.752,1.7107,1.6899,1.6429,1.5938,1.5497,1.5868,1.5973,1.5443,1.5815,1.5991,1.5691,1.5301,1.4982,1.4796,1.4633,1.4535,1.4502,1.5348,1.6167,1.6904,1.755,1.802,1.8314,1.915,1.9001,1.7916,1.8104,1.8818,0.0,0.0,0.0,0.0,0.0,0.0,2.4682,0.0,2.1906,0.0,0.0,0.0,0.0,0.0,0.0,0.0,0.0,0.0,0.0,0.0,0.0,0.0,0.0,0.0,0.0,0.0,0.0,0.0,2.8786,2.8775,2.9909,3.0262,3.0666,3.122,3.2224,3.2987,3.3486,3.4086,3.4687,3.5299,3.535,3.5413,3.5458,3.5418,3.5273,3.5015,3.4399,3.3428,3.2248,3.1345,3.0311,2.9271,2.934,2.9334,2.9218,2.8688,2.8235,2.7771,2.6813,2.6301,2.598,2.5396,2.5061,2.4806,2.4391,2.3967,2.362,2.3639,2.318,2.2687,2.2716,2.2052,2.1199,2.062,2.0056,1.9522,1.9075,1.9225,1.9407,1.9291,1.9423,1.9473,1.9158,1.8293,1.7649,1.7547,1.6873,1.6281,1.5991,1.6263,1.6315,1.5885,1.6114,1.6202,1.5982,1.57,1.5515,1.5427,1.564,1.586,1.6044,1.6733,1.729,1.7731,1.8365,1.8889,1.926,2.0125,2.0432,2.0202,2.0033,2.0457,3.1481,0.0,0.0,0.0,0.0,0.0,0.0,0.0,0.0,0.0,0.0,0.0,0.0,0.0,0.0,0.0,0.0,0.0,0.0,0.0,0.0,0.0,0.0,0.0,0.0,0.0,0.0,0.0,0.0,2.8045,2.9749,3.0681,3.1466,3.2115,3.3288,3.4063,3.438,3.4773,3.5283,3.5905,3.5872,3.5839,3.5795,3.5689,3.5644,3.5611,3.4863,3.3963,3.2967,3.1714,3.0509,2.9405,2.8881,2.8743,2.8756,2.7807,2.7489,2.7361,2.6361,2.5978,2.5883,2.5434,2.5192,2.4976,2.4525,2.4024,2.3539,2.3198,2.2948,2.2719,2.2468,2.1932,2.1355,2.085,2.039,1.9917,1.9479,1.9709,1.9993,1.9862,1.9933,2.0015,1.9955,1.8915,1.8083,1.8134,1.726,1.6577,1.6482,1.6595,1.656,1.6272,1.642,1.6482,1.6324,1.6193,1.6149,1.6228,1.6732,1.7248,1.7741,1.8131,1.8554,1.8991,1.9289,1.9684,2.0185,2.0875,2.1554,2.2232,2.1724,2.1868,0.0,0.0,0.0,3.091,0.0,0.0,0.0,0.0,2.3812,0.0,0.0,0.0,0.0,0.0,0.0,0.0,0.0,0.0,0.0,0.0,0.0,0.0,0.0,0.0,0.0,0.0,0.0,0.0,0.0,0.0,2.9114,3.0237,3.1186,3.1974,3.3744,3.4738,3.4882,3.5717,3.6159,3.6193,3.6068,3.5938,3.5795,3.5795,3.5795,3.5784,3.5487,3.4823,3.3855,3.2516,3.1323,3.0247,2.906,2.8369,2.8002,2.77,2.735,2.6954,2.6461,2.6412,2.6522,2.6178,2.5889,2.561,2.5268,2.4439,2.3539,2.3198,2.2678,2.2252,2.2374,2.1677,2.0942,2.1052,2.0726,2.0335,2.0107,2.0232,2.0378,2.0378,2.0378,2.0318,2.0123,1.9088,1.8327,1.8459,1.7406,1.6664,1.6856,1.6891,1.6812,1.6603,1.6942,1.7089,1.6891,1.6874,1.6994,1.7328,1.785,1.8533,1.9383,1.9446,1.9948,2.0985,2.0394,2.0423,2.1163,2.137,2.2123,2.3326,2.2734,2.2876,0.0,0.0,3.5809,3.3707,0.0,0.0,0.0,0.0,0.0,0.0,0.0,0.0,0.0,0.0,0.0,0.0,0.0,0.0,0.0,0.0,0.0,0.0,0.0,0.0,0.0,0.0,0.0,0.0,2.4972,0.0,0.0,2.9549,3.0934,3.2542,3.4182,3.5269,3.5756,3.6267,3.643,3.6265,3.6307,3.6255,3.6137,3.5997,3.5982,3.6019,3.5126,3.4499,3.3996,3.2162,3.1082,3.0497,2.9471,2.8873,2.8491,2.7648,2.6998,2.6502,2.626,2.6214,2.6275,2.6229,2.59,2.548,2.5424,2.48,2.4042,2.3613,2.3194,2.2818,2.259,2.1884,2.1305,2.156,2.1266,2.0871,2.0667,2.0791,2.093,2.093,2.0749,2.0529,2.0324,1.9479,1.8714,1.8411,1.7699,1.7116,1.6926,1.7133,1.722,1.7028,1.7312,1.7459,1.7306,1.7632,1.8005,1.8432,1.9216,2.0025,2.0851,2.0761,2.1014,2.1683,2.147,2.1797,2.2658,2.3178,2.4069,2.5325,2.5203,2.5094,3.8466,3.8248,0.0,3.4628,3.3632,0.0,2.9634,0.0,0.0,0.0,0.0,0.0,0.0,0.0,0.0,0.0,0.0,0.0,0.0,0.0,0.0,0.0,0.0,0.0,0.0,0.0,2.2497,2.45,0.0,0.0,0.0,0.0,3.1173,3.2746,3.4612,3.5794,3.6223,3.6499,3.6523,3.6301,3.6391,3.6371,3.6255,3.6127,3.6122,3.6148,3.528,3.4671,3.4169,3.237,3.1315,3.0739,2.9701,2.9082,2.8657,2.772,2.6945,2.6341,2.6227,2.6198,2.6278,2.6507,2.6107,2.5566,2.5705,2.5217,2.4519,2.4046,2.3624,2.3223,2.2843,2.2226,2.1714,2.1873,2.1667,2.1407,2.1217,2.1237,2.1269,2.1269,2.0962,2.0621,2.034,1.9736,1.9125,1.8657,1.8127,1.7718,1.7493,1.7699,1.7801,1.7672,1.7808,1.7862,1.7699,1.8181,1.874,1.9339,1.9987,2.0877,2.2139,2.1895,2.2025,2.2658,2.2714,2.3063,2.3718,2.4352,2.5283,2.6473,2.6665,2.6733]}]]